GFSCGP_sfc_rhum_000.txt.gz
RH
94 93 95 85 70 73 65 64 67 52 42 47 46 48 38 37 36 39 48 54 60 57 63 63 64 64 60 61 60 63 64 78 92 96 96 96 95 96 96 96 94 94 91 88
94 91 70 75 72 67 54 52 61 53 47 46 46 44 39 40 34 37 47 56 59 60 62 63 65 68 67 65 61 56 57 62 82 94 96 96 96 97 95 90 78 77 81 82
80 82 62 68 70 63 60 58 71 65 50 50 52 51 48 40 45 46 50 55 62 59 62 66 68 71 71 69 69 61 60 57 59 68 77 76 78 78 78 77 67 68 66 60
86 75 75 69 82 73 90 55 49 52 57 64 52 66 54 41 47 50 56 59 62 65 71 64 65 68 70 70 68 66 63 62 60 65 62 70 73 76 79 80 73 67 67 66
86 89 91 79 70 71 80 50 50 52 61 67 66 62 52 48 50 52 55 58 64 68 68 68 67 66 69 70 72 71 65 65 68 66 70 70 73 77 76 75 69 71 64 67
75 70 77 82 71 59 53 49 48 55 60 74 60 54 57 48 45 54 57 54 61 68 71 69 68 66 69 72 73 74 68 71 71 69 72 74 75 71 66 69 66 66 64 66
74 83 61 59 56 48 51 50 78 70 76 75 67 66 51 44 39 41 47 51 61 69 71 70 68 70 71 73 74 69 71 75 75 71 70 72 76 76 73 72 67 61 56 58
86 95 58 43 66 70 58 58 72 75 78 69 64 63 42 48 52 43 43 48 62 69 70 70 70 72 73 74 76 75 73 73 74 73 74 71 69 68 64 65 64 60 60 60
81 82 47 36 40 55 59 56 56 67 78 81 70 53 42 50 54 58 51 54 64 68 69 70 72 72 78 80 78 73 70 70 71 72 72 70 64 63 62 63 58 54 54 40
61 62 50 43 32 35 46 43 59 68 77 80 72 62 53 42 58 62 58 57 63 67 68 72 73 78 83 81 75 69 67 68 68 67 67 60 58 53 51 49 48 47 45 44
52 56 62 44 48 45 44 50 58 60 69 69 73 54 47 43 48 56 56 56 62 66 68 73 76 83 82 75 69 65 64 63 62 63 59 52 46 45 43 44 45 43 43 43
59 64 63 53 66 48 48 45 50 64 67 71 67 56 45 49 50 55 56 56 57 62 69 76 81 84 76 68 62 59 58 59 58 58 50 45 42 42 42 42 42 40 40 39
62 72 85 74 72 73 66 55 50 57 62 68 64 55 41 48 52 53 52 53 55 63 76 83 89 83 76 67 58 54 53 54 54 51 44 39 40 40 40 40 38 37 38 38
59 68 66 73 69 64 74 60 56 53 67 65 61 54 52 49 49 52 58 66 60 71 74 88 91 83 72 62 56 52 51 49 48 41 38 39 39 39 38 40 40 40 40 40
53 61 64 58 64 63 60 59 57 54 51 56 55 52 54 55 51 49 56 57 67 74 74 86 88 83 73 63 57 52 50 44 45 37 38 40 41 40 41 43 43 42 42 38
55 59 52 52 49 47 56 59 60 59 58 57 59 57 47 64 67 71 74 65 68 70 71 88 87 79 73 64 57 51 48 38 38 38 39 41 41 43 45 44 42 42 42 40
48 49 52 59 57 56 46 44 68 61 57 55 60 46 50 66 60 68 67 64 63 67 72 93 83 78 66 60 55 50 41 34 33 38 39 41 43 45 46 44 44 43 43 44
47 50 52 56 68 54 45 66 44 52 58 56 60 60 60 63 63 65 67 76 69 69 88 88 80 70 61 58 50 42 32 28 35 38 40 43 46 47 47 48 48 48 46 47
49 56 70 63 65 56 65 58 64 58 72 66 64 63 65 62 70 71 72 80 77 78 90 82 74 66 57 47 35 29 29 35 37 40 42 44 47 49 50 49 50 48 49 49
59 61 56 92 82 67 57 57 52 55 73 65 62 67 70 70 73 70 76 86 89 85 77 73 65 55 42 34 31 33 35 36 38 42 45 47 50 52 53 53 51 51 53 50
67 73 70 80 80 71 57 56 53 65 64 72 65 62 66 69 65 70 88 89 84 77 70 63 55 47 38 32 29 34 36 38 42 46 49 51 52 55 54 54 55 54 56 55
60 77 82 88 85 75 64 63 62 66 70 63 64 64 66 65 72 84 88 87 78 75 70 58 50 41 34 30 35 37 36 42 47 51 53 54 56 51 45 60 61 64 62 60
68 64 69 72 74 69 74 69 71 64 64 67 67 63 61 67 78 83 86 89 82 72 64 55 49 40 35 39 39 40 42 48 51 55 55 56 54 53 53 60 61 60 59 61
81 76 75 72 78 72 66 66 64 62 64 66 74 73 70 74 76 79 85 90 86 69 58 48 39 33 33 38 42 45 48 51 55 58 58 57 59 56 59 60 59 64 62 62
75 79 82 85 86 76 72 72 65 68 70 73 75 77 77 78 80 84 88 90 81 65 49 41 36 36 40 46 47 49 49 54 54 56 55 57 57 64 62 60 66 60 58 61
89 80 81 78 75 75 76 74 74 74 77 82 82 84 83 86 84 89 91 92 76 55 45 42 38 42 44 49 51 51 52 54 60 56 52 56 57 65 63 64 61 58 59 60

GFSCGP_sfc_rhum_003.txt.gz
RH
85 91 96 76 71 62 56 53 53 56 42 41 44 43 35 33 34 34 41 48 48 50 52 53 52 51 47 49 49 53 63 73 72 75 74 75 73 63 58 52 48 46 46 46
83 93 74 71 73 62 59 59 59 52 44 41 45 42 36 37 35 32 42 49 48 50 52 55 54 53 53 52 50 50 51 57 72 78 80 77 61 58 54 53 52 49 45 45
80 78 62 68 82 75 64 64 61 61 50 44 47 45 41 34 34 43 47 49 49 51 54 55 55 56 56 57 58 55 54 55 56 54 51 51 54 56 55 55 51 51 47 44
84 72 70 73 76 72 85 54 55 53 59 65 43 53 47 37 36 47 50 51 52 56 57 58 57 57 58 62 64 60 60 57 58 57 57 59 59 58 58 54 51 46 46 45
88 84 76 82 74 69 76 61 62 56 54 51 49 50 43 38 39 45 49 54 56 58 58 60 61 62 62 64 67 63 60 61 61 58 58 56 57 56 53 49 46 45 42 44
88 72 74 70 67 66 50 57 62 53 51 61 52 47 47 40 34 45 47 50 57 59 60 61 62 62 63 67 67 66 61 61 60 59 57 57 56 48 46 47 41 39 37 39
88 86 85 84 65 58 54 72 97 95 72 64 55 55 43 39 34 37 42 46 56 59 61 60 61 62 64 67 67 62 62 62 57 54 52 52 51 47 43 40 35 32 29 34
96 98 72 77 79 73 75 73 78 75 69 59 58 57 36 35 40 40 42 43 58 61 61 60 62 65 67 68 64 61 60 61 55 51 47 43 42 39 34 34 31 29 30 32
77 85 59 58 53 60 78 81 52 63 66 68 62 50 39 41 44 47 47 50 60 61 63 62 63 64 67 64 62 58 56 57 56 47 38 35 31 32 32 30 29 30 28 24
74 70 58 38 42 38 59 47 74 60 67 71 65 56 49 38 40 52 51 50 60 62 63 64 63 69 67 61 59 57 53 53 49 41 32 29 28 27 28 27 28 29 28 29
55 62 66 41 46 49 54 76 59 55 63 64 61 49 41 39 38 48 50 51 56 60 62 64 68 71 64 57 54 53 50 50 46 36 29 26 26 26 24 24 26 28 28 29
51 62 68 54 58 46 42 49 50 58 63 63 58 52 36 41 44 50 50 52 54 58 63 66 73 66 55 52 49 49 47 47 43 33 26 26 26 25 24 24 26 26 28 28
56 69 78 64 60 65 54 45 47 53 57 63 59 51 37 44 50 52 51 50 51 58 69 72 75 62 54 49 45 43 42 43 36 28 26 26 26 26 25 27 27 27 28 29
57 67 72 72 67 62 68 57 53 47 59 59 55 46 40 42 47 48 47 49 50 58 72 76 75 65 56 49 44 42 39 38 31 27 27 28 28 29 29 30 30 31 30 30
52 61 62 59 60 56 56 56 52 51 44 48 48 50 42 38 45 44 41 46 59 70 77 79 76 65 56 49 45 43 37 34 30 27 28 31 32 33 32 34 34 33 33 32
58 61 53 55 55 54 62 60 52 50 55 52 52 52 41 48 51 55 54 55 63 70 75 81 75 65 58 51 47 44 35 30 30 29 31 34 34 35 37 36 35 35 35 33
61 52 57 59 53 47 52 47 61 55 56 46 54 42 47 59 57 56 58 57 59 65 71 82 75 67 57 52 47 41 29 28 28 30 32 35 37 38 38 37 36 37 36 37
62 64 59 57 52 59 48 58 53 55 50 46 51 50 54 59 56 54 58 56 58 61 70 84 72 64 54 52 44 34 28 27 29 32 33 37 40 40 39 38 38 38 37 38
51 51 65 63 59 52 64 58 58 53 59 62 65 64 62 56 56 58 63 68 70 65 78 78 65 56 53 44 35 28 27 29 31 34 36 38 40 41 40 39 39 38 39 39
57 54 54 91 71 51 50 55 51 55 60 65 62 65 61 61 61 59 68 74 80 81 75 70 58 49 40 31 27 28 27 28 31 36 40 41 42 42 41 41 40 40 42 41
63 67 64 74 71 64 54 56 52 63 54 67 62 65 67 62 59 66 77 79 77 70 64 56 49 41 33 28 29 28 29 30 36 41 42 42 42 42 40 41 42 44 44 45
58 71 73 82 78 62 57 59 58 61 66 61 61 60 61 61 70 77 80 81 75 70 65 53 43 36 33 31 28 30 30 36 41 44 44 42 41 41 39 47 48 48 49 49
58 53 63 64 66 72 71 68 69 61 62 64 64 65 61 63 68 81 83 85 77 71 64 53 46 38 35 35 32 31 35 41 44 45 42 41 41 41 44 48 48 48 47 51
78 74 76 72 78 73 70 66 62 61 62 64 64 64 62 65 68 71 82 88 82 72 60 52 43 35 36 35 34 38 40 43 45 43 42 41 42 45 44 48 50 52 54 54
72 72 82 89 86 73 70 69 68 70 70 69 69 68 67 69 73 77 82 88 85 70 58 46 39 39 36 37 39 41 41 45 42 42 42 42 44 50 52 51 52 51 50 54
87 78 78 76 75 74 72 70 70 72 76 75 74 78 82 84 80 84 86 87 79 62 49 49 42 36 37 41 42 43 44 45 47 43 40 44 49 54 53 54 54 58 60 60

GFSCGP_sfc_rhum_006.txt.gz
RH
64 92 95 67 73 47 36 41 46 37 32 36 37 35 27 25 24 23 22 26 29 31 35 36 36 32 34 35 39 44 51 50 46 50 51 48 46 41 39 38 35 33 32 32
68 94 64 74 61 56 42 46 46 34 35 35 36 38 32 25 24 23 23 27 30 33 32 36 35 35 34 34 34 40 48 52 54 54 48 44 42 40 39 39 37 34 32 31
78 75 61 81 62 57 48 49 41 40 42 40 37 37 30 24 24 26 23 27 29 31 33 35 36 38 38 40 41 41 44 44 41 40 40 41 43 41 40 38 36 34 31 29
59 58 80 75 69 55 55 41 44 50 62 55 36 43 31 23 26 28 30 32 32 35 34 37 37 39 42 47 48 44 43 43 42 40 40 40 39 41 39 35 34 30 29 26
76 80 88 84 66 47 48 47 48 53 59 52 45 42 28 28 26 30 32 32 34 36 37 40 42 46 46 50 51 46 43 42 41 40 37 36 37 36 34 30 28 27 25 24
53 82 78 54 53 50 47 47 50 46 50 61 39 39 29 23 21 25 32 34 37 38 39 41 44 44 48 52 50 46 42 42 40 38 36 37 36 31 29 28 23 20 18 20
81 88 90 54 78 63 49 59 97 91 80 56 37 39 27 24 23 24 31 34 35 38 40 43 45 45 47 51 51 44 41 41 37 36 33 32 32 29 25 21 19 18 15 19
98 98 95 62 60 79 62 51 50 62 56 43 42 41 24 24 26 23 24 30 35 39 38 42 44 46 49 50 46 42 40 40 35 32 29 25 25 22 19 19 17 15 16 17
95 98 78 67 59 55 84 81 38 43 44 40 35 33 27 28 29 30 27 33 40 40 41 42 45 46 47 45 43 42 42 39 33 28 23 21 18 19 19 17 17 17 17 16
60 94 69 65 65 62 63 50 68 46 55 52 38 38 29 25 26 32 30 35 39 41 42 43 44 46 44 43 43 41 38 35 30 25 20 18 16 16 16 16 17 18 17 18
51 50 73 58 75 74 61 81 64 43 41 40 37 32 23 26 26 28 28 31 38 43 42 43 43 46 44 42 42 38 38 34 27 22 18 17 16 16 15 15 16 17 17 18
54 38 80 64 45 42 47 51 48 54 52 40 38 30 24 26 28 30 29 32 36 38 41 42 46 48 43 41 39 37 35 32 26 20 16 16 17 16 15 15 17 16 17 17
42 42 59 72 57 46 56 46 47 36 36 41 41 33 26 29 33 34 32 34 37 40 44 44 49 46 41 38 36 34 32 28 22 18 16 16 17 16 17 18 18 18 18 19
52 43 37 48 46 41 52 45 46 46 48 40 36 30 27 30 34 35 33 32 34 40 45 46 50 44 39 36 33 31 29 25 21 18 18 19 19 20 20 21 21 20 20 21
51 46 42 43 41 38 41 47 42 44 40 40 34 34 26 23 30 30 31 31 33 38 47 50 51 45 40 37 34 31 27 25 19 18 19 23 24 23 23 23 23 23 24 23
48 52 40 43 48 40 42 40 43 43 40 34 32 33 24 24 27 30 28 31 36 40 46 50 52 47 43 38 35 34 28 22 19 18 22 25 24 24 25 26 25 25 25 24
52 46 45 48 40 41 50 41 40 37 33 32 37 30 29 35 33 32 36 38 40 43 47 52 53 49 44 39 36 32 23 19 19 20 22 24 25 25 26 25 24 26 25 25
51 48 48 54 42 65 36 39 32 35 32 30 30 32 31 31 35 39 37 37 41 45 48 54 54 52 44 38 34 26 20 19 21 21 22 24 26 26 25 24 24 24 24 25
45 78 78 58 76 37 36 44 39 42 39 35 34 33 38 41 40 47 47 47 48 47 48 52 53 49 42 38 30 23 21 20 20 22 22 24 24 25 23 24 24 24 26 27
63 83 86 79 63 49 36 41 35 34 32 37 35 41 44 42 43 41 49 53 58 59 58 57 50 42 38 31 23 23 20 19 21 23 24 26 26 25 23 26 27 27 27 26
65 58 84 60 70 40 38 40 41 39 39 47 40 42 44 42 42 51 55 60 56 57 57 49 43 39 32 23 22 22 21 21 23 26 26 26 24 24 24 26 28 30 29 27
58 57 55 65 86 85 46 47 44 47 50 47 46 46 47 50 54 55 58 61 58 58 54 44 40 34 26 24 22 22 22 23 26 27 27 25 23 24 27 36 35 32 28 28
45 42 43 43 45 58 53 50 50 44 47 47 48 47 47 52 52 56 60 60 58 55 50 42 38 33 28 24 22 22 22 26 27 26 24 24 24 24 28 32 35 33 29 30
54 57 47 52 59 56 54 50 46 42 47 47 47 48 46 49 53 56 57 61 59 57 53 45 40 35 30 27 28 23 26 28 28 25 24 23 25 30 30 28 29 33 32 35
50 54 55 67 63 56 52 48 49 52 52 53 51 50 50 50 54 54 58 62 63 61 54 46 42 36 32 28 25 26 28 28 26 24 23 25 26 30 31 29 31 36 38 45
54 51 48 46 48 46 47 50 51 52 55 53 54 58 60 57 58 62 61 63 65 61 52 45 39 36 29 26 26 28 29 29 29 26 25 28 33 33 30 31 34 42 49 55

GFSCGP_sfc_rhum_009.txt.gz
RH
55 85 87 66 58 68 50 56 43 38 29 32 35 33 25 22 22 22 18 18 22 25 28 30 30 29 31 35 40 42 42 43 43 47 47 45 45 41 38 35 32 30 29 28
72 91 54 45 56 62 58 48 41 34 32 33 31 32 26 24 24 22 18 18 23 28 28 30 30 28 28 32 38 42 47 48 44 43 44 42 41 38 38 37 32 29 27 27
75 71 47 44 66 74 61 64 43 43 35 33 34 40 34 28 23 21 20 19 22 26 28 30 31 32 33 36 40 42 41 43 43 43 42 41 40 40 36 34 33 30 25 23
66 57 69 49 68 78 71 55 37 40 45 50 35 39 25 23 24 23 20 22 25 26 27 30 32 35 38 43 44 40 40 39 38 37 37 36 37 37 34 32 30 27 25 22
78 73 79 62 71 70 70 45 40 46 45 57 54 46 29 23 24 24 22 24 26 28 30 33 36 40 42 46 46 42 39 38 37 34 33 33 34 33 30 27 26 22 21 21
60 60 66 59 63 80 62 51 56 49 48 59 40 40 28 25 22 20 23 26 29 30 32 34 38 41 46 48 46 44 37 36 34 34 32 33 34 30 29 26 23 20 18 19
85 94 83 74 94 92 71 78 91 79 74 50 30 36 28 20 20 18 25 27 29 32 34 38 41 42 46 48 45 38 36 36 33 32 31 30 31 28 26 22 20 18 16 18
98 97 88 72 92 91 83 75 54 62 55 42 33 42 27 20 19 18 23 27 30 33 34 38 39 42 46 45 40 37 35 34 30 29 27 25 25 23 20 19 18 16 16 17
87 91 75 83 70 63 81 74 38 40 33 35 37 29 23 22 24 22 23 28 33 34 36 37 39 41 44 42 39 38 35 33 29 26 23 21 19 20 20 18 17 17 16 14
90 98 88 91 74 83 67 41 55 39 49 46 34 30 28 26 24 25 24 29 33 34 35 37 39 40 40 39 39 38 34 32 28 23 21 19 16 16 16 16 16 17 15 16
91 94 94 90 82 86 90 66 53 35 36 38 38 31 20 22 22 25 24 27 32 35 36 37 38 40 40 40 40 37 34 30 26 22 19 18 16 15 14 15 15 15 15 16
76 91 99 74 46 49 60 60 44 43 46 35 35 31 20 21 24 24 24 26 30 35 35 35 37 42 41 40 38 36 34 29 25 20 17 17 17 16 16 16 16 14 15 16
54 66 98 92 60 64 73 48 46 40 36 38 36 32 20 23 27 26 25 26 31 35 35 35 38 43 40 39 37 34 32 28 22 19 17 17 18 18 18 17 17 16 17 17
54 48 48 46 44 57 71 60 44 43 44 38 34 29 24 26 28 29 28 28 32 34 37 37 41 42 38 36 35 32 30 25 22 19 18 20 20 20 19 20 20 19 18 20
54 49 36 30 32 39 44 51 51 49 43 41 31 30 23 22 25 26 26 29 32 35 38 39 43 41 38 36 33 30 28 24 20 19 19 23 22 21 21 22 22 21 22 22
50 56 40 42 39 35 38 38 41 43 41 38 32 31 21 20 19 23 25 28 31 34 36 39 42 41 39 36 34 32 29 25 20 19 21 22 21 22 22 24 23 23 24 24
59 60 46 47 39 42 49 37 36 37 34 34 38 31 24 27 26 26 26 28 30 32 36 41 43 43 40 37 35 32 26 22 20 20 20 21 22 22 23 22 22 24 24 24
55 56 48 58 41 65 34 31 29 32 32 31 31 27 27 26 25 25 27 30 33 37 40 43 44 45 41 36 34 29 22 22 22 21 20 20 21 21 21 21 22 22 22 25
55 61 67 66 66 48 39 34 34 35 36 28 28 26 27 31 38 42 37 33 37 38 38 44 44 44 41 38 32 26 24 23 21 20 20 20 20 21 21 22 22 23 25 27
64 63 76 75 64 62 35 35 29 29 40 25 27 29 32 40 44 42 44 44 48 48 49 51 48 43 41 35 28 27 25 22 20 21 21 21 21 22 22 22 24 26 27 26
96 96 95 96 86 47 33 34 31 37 41 35 29 31 38 40 40 44 44 47 48 51 51 47 45 43 37 29 26 27 23 20 22 23 22 21 21 21 21 24 27 31 29 28
79 89 94 95 90 82 36 40 40 45 41 35 35 36 39 47 47 45 48 53 54 55 53 45 43 37 28 26 27 25 23 22 23 23 22 22 21 20 24 36 39 35 30 28
64 44 43 45 51 48 39 46 42 39 41 40 41 42 44 47 49 52 55 54 53 51 48 42 39 33 30 26 25 24 23 22 22 23 22 21 21 22 26 36 37 34 28 28
40 42 40 41 48 46 43 44 41 37 40 41 41 42 42 46 49 51 52 54 53 51 47 42 39 36 33 27 26 22 23 23 23 23 22 21 23 27 27 28 30 31 29 33
42 44 45 49 55 52 48 44 43 44 44 45 44 43 44 47 48 48 51 54 54 55 51 46 44 40 35 30 25 23 24 24 25 22 21 23 25 28 31 29 29 29 31 38
46 41 45 42 41 39 45 44 44 48 49 48 52 55 55 48 53 52 53 54 57 58 53 50 46 41 35 28 24 24 25 26 25 24 25 28 30 32 31 30 32 38 42 45

GFSCGP_sfc_rhum_012.txt.gz
RH
55 79 87 78 70 67 61 59 67 47 44 44 42 40 38 32 32 33 32 28 33 38 40 41 44 48 53 58 58 62 63 62 65 73 60 58 62 57 54 48 40 39 38 41
71 85 59 54 57 64 62 75 76 51 42 42 39 41 34 34 30 29 30 27 34 41 43 43 42 46 51 59 63 66 65 60 58 59 60 59 59 57 55 52 44 36 33 34
77 65 55 51 54 63 64 68 78 72 47 51 44 48 41 32 28 30 29 26 34 38 43 44 47 50 54 62 61 59 61 60 58 55 52 54 61 59 56 54 49 39 30 29
65 52 52 60 60 55 67 54 64 74 82 74 46 71 44 35 34 34 33 32 36 37 40 42 47 54 61 65 62 58 56 57 57 57 59 58 57 56 54 49 45 39 31 29
78 68 60 65 76 54 66 56 67 70 81 86 63 59 49 33 40 35 31 31 36 37 41 46 52 56 60 65 65 59 54 52 50 48 48 54 53 52 48 43 36 31 32 30
72 56 58 61 56 65 54 68 83 80 77 90 80 60 52 38 33 31 31 35 37 38 44 49 56 59 66 67 64 58 51 50 49 48 47 49 48 46 43 37 36 32 34 35
91 87 68 74 86 63 66 88 98 100 99 92 46 62 49 30 26 26 28 36 38 42 46 54 61 66 66 66 60 53 51 48 46 45 43 42 41 37 33 33 32 27 30 33
88 86 87 79 86 77 82 92 99 98 97 60 39 58 45 26 25 28 30 36 39 43 49 54 59 64 66 61 54 50 47 45 41 39 36 35 34 36 32 28 29 27 28 28
97 95 80 68 63 74 82 99 83 84 41 53 54 44 34 31 30 32 35 38 42 44 49 52 58 62 63 58 53 50 46 42 38 35 31 29 27 27 28 26 26 28 25 18
93 100 82 81 75 83 86 74 98 84 60 74 58 50 45 39 38 32 38 42 44 45 48 51 54 59 58 55 55 48 43 40 35 31 28 25 23 22 22 24 23 23 22 23
92 98 96 81 95 90 97 97 82 68 60 60 62 51 34 34 33 34 36 38 43 45 47 50 53 56 56 56 55 50 43 37 33 30 27 25 24 22 22 22 22 21 22 23
89 96 100 98 74 73 77 82 60 55 66 62 54 51 29 32 32 33 33 36 41 44 46 50 54 56 58 58 54 50 43 37 33 27 25 26 25 24 24 23 22 22 22 23
92 98 99 99 94 95 92 77 59 60 56 62 54 52 31 38 36 35 35 40 41 46 50 51 56 57 58 57 52 50 44 36 29 26 26 26 28 27 26 25 25 24 25 26
86 81 99 97 76 82 89 72 58 64 70 60 53 46 38 41 40 38 38 40 45 46 46 50 56 58 56 54 50 46 41 33 29 26 28 30 29 29 28 28 28 28 28 29
83 92 86 60 62 63 65 66 62 62 58 65 48 39 34 38 41 40 40 42 46 47 48 51 59 58 56 53 49 43 38 32 27 27 32 32 30 29 29 30 32 31 32 32
53 77 66 50 45 51 63 60 59 55 51 51 47 48 30 30 35 39 42 42 44 45 48 52 56 55 53 52 47 41 38 31 28 29 32 30 29 28 30 32 32 33 35 35
65 74 68 63 50 49 59 50 56 56 52 51 55 43 36 35 33 38 39 41 44 46 50 53 57 57 54 50 43 42 36 30 28 29 27 27 28 29 31 30 30 33 34 34
71 77 70 70 59 79 51 42 39 43 42 42 40 40 38 36 39 44 40 41 46 47 52 55 61 60 54 50 45 37 31 30 31 29 26 27 28 28 29 30 32 33 34 36
54 70 83 80 82 58 55 44 46 47 46 38 42 39 43 51 55 58 54 50 55 56 59 62 63 57 52 48 34 30 32 31 30 28 26 25 26 29 30 32 33 34 37 41
72 82 91 94 84 84 52 45 36 41 59 45 40 39 51 53 68 70 60 60 64 66 67 64 57 51 49 40 34 34 32 30 27 27 28 27 28 30 30 32 34 38 44 39
92 94 97 91 94 77 45 43 38 56 58 49 42 45 52 65 64 59 59 64 66 66 62 59 57 56 46 37 36 34 29 28 30 29 28 28 28 30 30 35 40 45 46 42
83 97 96 98 99 93 42 48 54 58 54 48 52 55 64 62 58 60 64 67 65 65 61 56 50 40 35 35 32 31 31 31 30 30 29 30 30 27 28 46 53 50 46 44
84 77 78 80 77 56 54 58 55 51 52 55 62 59 57 60 64 65 67 67 65 61 57 49 41 40 37 36 33 33 33 30 30 30 30 30 29 29 35 44 50 50 43 43
71 59 62 56 62 60 58 54 53 50 54 55 56 56 57 63 64 67 66 65 62 58 56 49 44 43 41 35 31 33 32 30 30 30 31 30 32 38 39 41 44 47 44 44
57 56 58 68 68 60 58 56 57 56 55 56 56 58 60 61 65 66 68 67 67 64 59 54 52 49 43 38 33 33 31 31 33 33 32 34 38 42 46 44 44 44 44 46
57 53 59 60 50 52 56 56 56 57 59 61 62 68 67 66 68 69 73 73 72 71 65 64 61 51 44 37 32 33 33 34 36 36 39 44 48 52 50 48 44 45 44 47

GFSCGP_sfc_rhum_015.txt.gz
RH
67 88 86 84 79 76 68 76 78 72 54 59 57 57 48 40 40 44 37 37 47 49 48 47 52 63 67 71 72 72 72 75 60 58 57 56 64 49 46 39 37 37 39 38
80 88 68 63 68 76 79 89 85 68 60 62 59 56 45 41 39 40 40 40 49 53 52 52 54 67 71 78 80 74 71 68 62 60 64 64 56 58 54 49 37 32 32 33
85 70 56 61 67 76 79 89 81 75 63 65 68 69 52 42 37 37 37 38 44 47 50 54 61 70 70 72 73 69 66 60 57 52 51 54 60 62 60 53 45 34 30 32
80 59 61 69 71 67 83 60 61 66 73 89 76 85 63 46 42 38 39 44 47 49 49 53 60 68 70 73 70 68 66 61 59 56 57 60 59 59 58 56 46 38 30 30
83 72 72 72 67 61 71 54 58 60 74 81 78 88 68 45 43 39 44 47 46 47 47 54 63 66 70 69 68 64 60 58 59 60 57 57 58 56 54 45 41 36 33 31
72 65 69 63 53 54 66 71 73 76 82 98 88 85 70 52 42 37 40 45 45 48 52 60 65 69 73 68 63 60 55 55 54 55 54 52 49 45 42 38 37 38 40 38
96 93 76 72 83 77 78 88 89 93 97 89 68 97 77 43 37 33 35 45 45 49 59 66 70 70 72 68 62 55 52 53 49 46 44 42 39 36 34 34 32 31 32 34
96 92 89 76 77 77 85 82 92 89 87 75 78 96 60 44 34 33 36 42 47 54 61 67 70 73 71 64 58 54 51 48 44 41 40 38 35 37 34 31 31 30 30 29
99 94 71 68 65 64 79 92 66 96 88 98 89 60 40 39 41 42 46 47 51 59 62 68 69 69 71 64 58 52 48 44 39 36 33 30 30 30 30 28 29 30 27 21
84 96 66 70 68 71 75 65 95 99 98 96 74 56 49 46 45 46 48 50 53 58 61 65 66 69 66 61 58 50 45 41 37 32 28 25 25 26 26 26 25 24 24 25
72 96 92 95 96 84 92 93 80 92 87 89 88 63 44 40 39 47 48 49 53 57 58 63 66 63 63 62 52 50 44 37 33 30 27 26 26 25 25 25 24 24 24 25
88 98 99 89 80 71 61 79 73 93 99 89 61 54 40 39 38 42 47 48 50 54 56 62 64 63 62 59 55 46 42 37 34 30 28 28 28 27 27 26 26 26 26 26
92 98 95 98 93 85 81 78 67 71 97 78 60 54 41 43 42 39 48 50 52 55 60 63 64 61 60 60 52 48 43 36 31 29 30 31 30 29 29 28 28 27 28 29
90 96 99 98 94 82 83 73 80 93 96 73 55 51 52 47 43 44 50 50 53 54 56 62 62 61 62 58 55 51 40 33 30 31 33 32 31 31 30 30 31 32 31 32
90 100 98 92 85 77 76 80 90 98 73 62 48 43 47 47 46 45 52 52 53 54 57 62 62 62 62 58 56 45 37 32 30 34 35 34 34 31 31 33 34 33 34 35
86 98 94 91 72 72 81 83 69 61 59 54 57 60 39 48 48 49 55 52 52 53 54 60 60 59 60 56 50 38 36 33 33 36 37 35 33 30 33 33 33 34 36 36
73 83 92 69 75 71 81 70 69 63 60 54 64 52 42 47 43 46 55 50 53 56 58 62 59 58 57 50 42 38 33 33 33 34 33 32 31 30 32 31 31 35 36 38
73 84 75 82 65 78 48 46 56 59 57 57 52 46 44 48 64 63 57 53 54 55 57 61 61 61 54 47 41 34 32 33 35 33 31 31 30 30 30 32 34 36 37 41
65 78 86 86 90 63 56 46 50 55 55 50 52 49 53 58 58 66 66 64 65 67 69 73 65 55 48 42 33 32 34 35 34 32 30 28 28 29 31 34 36 37 42 49
73 81 86 96 86 85 54 48 44 47 62 54 49 53 53 55 59 75 76 71 73 69 61 57 52 45 37 34 32 32 34 33 32 30 30 28 30 31 32 35 36 41 48 48
92 90 93 92 95 83 57 47 45 62 56 57 52 54 56 61 63 71 73 73 68 62 60 54 49 42 38 37 32 34 32 31 32 31 30 30 30 31 32 36 43 49 52 51
88 96 98 94 98 90 51 50 46 53 59 67 71 68 73 72 71 74 72 71 67 66 61 51 47 43 41 39 31 32 33 34 33 32 31 31 32 28 30 47 52 52 53 52
93 83 88 85 78 63 59 62 59 56 59 72 70 68 67 71 73 72 74 70 67 63 52 43 40 42 42 35 32 35 35 33 33 32 32 32 31 32 40 46 50 54 50 50
82 72 69 73 64 64 63 61 58 60 66 67 64 65 64 71 70 72 70 67 62 57 48 42 41 42 40 37 35 35 34 33 33 33 33 32 38 45 44 47 50 52 53 56
71 71 70 71 78 71 66 63 66 63 62 65 66 65 68 68 71 68 68 64 62 62 53 48 46 44 41 36 36 36 35 34 36 33 35 42 47 50 53 52 51 54 54 55
60 60 67 70 60 56 61 62 61 61 66 64 66 73 72 67 72 73 76 72 68 66 62 60 56 49 45 38 38 38 38 37 37 38 43 49 54 58 58 57 56 50 49 50

GFSCGP_sfc_rhum_021.txt.gz
RH
76 90 92 76 89 89 94 93 87 79 63 75 78 75 65 61 58 54 61 54 53 47 49 52 54 60 72 80 77 68 82 66 56 55 54 47 46 41 38 35 33 34 38 40
88 96 77 68 74 80 87 89 86 77 67 70 71 72 61 56 57 55 50 52 49 51 55 54 63 81 84 86 89 92 76 67 62 58 60 56 48 40 36 35 34 36 37 37
91 74 60 67 76 82 87 92 77 82 72 68 69 61 44 43 49 52 50 46 45 47 54 61 77 86 90 92 95 88 78 71 64 54 46 42 36 35 37 34 40 37 36 38
86 67 65 71 78 79 84 73 75 77 88 91 76 78 58 60 52 54 50 50 52 53 50 61 85 90 92 92 92 81 72 64 54 49 44 39 40 41 49 47 40 37 36 36
90 93 78 79 74 70 73 65 78 82 92 95 81 94 72 53 50 50 60 52 54 54 54 67 80 84 90 90 88 80 69 64 62 54 46 48 52 53 56 43 37 34 36 35
79 72 75 76 62 64 68 74 80 79 88 95 72 84 60 43 50 57 59 53 51 56 56 68 86 84 87 87 84 77 70 73 67 60 58 50 51 48 44 46 44 41 40 40
98 95 82 78 79 66 71 89 98 98 96 85 66 77 61 46 52 48 47 48 52 56 68 83 84 83 82 81 80 74 68 72 66 62 58 55 50 43 42 43 44 38 34 36
98 98 96 82 80 81 84 88 95 91 94 85 49 63 53 47 36 33 39 50 56 58 66 74 79 78 76 73 72 70 68 65 60 56 52 45 40 42 40 38 37 34 33 33
96 95 91 84 70 80 99 99 74 86 84 95 83 74 68 52 57 54 44 47 61 62 67 74 76 74 70 68 66 64 61 56 51 45 40 39 37 36 35 32 32 34 32 26
82 97 83 82 70 80 89 70 96 99 96 94 79 87 64 72 60 42 58 54 60 64 71 75 73 69 64 63 60 55 50 46 42 37 34 34 32 31 32 31 29 28 28 28
78 90 92 94 96 89 91 95 91 78 88 94 93 76 78 61 53 54 57 58 64 69 72 76 70 65 64 60 54 49 42 37 35 32 31 31 31 29 28 27 28 28 29 29
75 92 96 81 70 62 65 70 78 89 87 77 77 62 48 56 48 56 67 69 74 76 76 72 71 67 60 56 52 47 40 34 32 30 29 31 31 30 29 29 29 29 30 32
78 99 96 98 83 83 99 74 65 69 84 76 75 43 44 48 54 58 70 73 75 82 80 77 72 65 61 56 50 42 37 33 31 30 32 33 32 31 31 32 32 32 33 35
71 99 98 90 97 88 96 88 80 78 90 74 67 59 53 60 64 65 72 73 80 80 78 77 73 67 62 54 47 41 38 32 33 34 34 35 34 34 34 35 35 36 36 38
92 100 100 96 94 99 96 77 78 92 75 74 53 71 73 62 67 66 72 72 78 79 82 78 74 70 64 55 47 40 36 34 34 35 38 39 38 37 38 38 38 38 39 38
96 99 100 97 90 95 98 94 80 75 65 60 62 85 56 56 61 65 70 69 74 77 78 76 72 69 62 53 44 36 35 37 36 38 42 42 40 38 39 38 37 38 38 40
98 99 100 100 94 96 99 86 76 69 64 66 93 67 63 61 60 54 65 63 68 72 75 75 72 67 61 52 39 36 35 39 38 41 42 40 38 38 38 35 35 37 39 45
95 98 98 99 98 97 85 81 56 59 66 73 76 80 72 67 62 64 64 61 65 70 73 72 71 69 62 47 40 36 37 38 41 43 40 39 38 36 36 35 35 37 42 46
77 83 97 99 97 73 58 93 88 88 86 81 84 74 66 68 70 64 74 68 72 74 72 72 70 65 52 43 36 36 38 41 41 40 38 34 33 34 34 35 37 40 46 51
88 82 94 94 95 87 61 55 71 70 90 66 65 69 66 69 61 59 82 84 83 81 74 71 61 53 45 38 34 35 39 39 39 38 36 35 36 34 35 36 42 46 52 52
95 94 97 90 89 86 70 62 56 83 60 63 64 68 68 62 78 86 73 70 68 68 62 55 52 48 40 35 34 38 38 39 38 37 36 36 35 35 37 45 50 53 56 54
85 83 89 87 97 91 62 55 60 55 76 80 78 67 85 89 81 76 70 66 62 60 53 47 45 42 39 36 34 37 37 39 38 38 38 37 36 35 43 52 55 53 57 61
94 82 89 82 82 68 70 74 74 66 70 83 84 84 80 80 80 74 70 62 56 52 50 45 42 41 40 38 33 37 42 40 40 38 37 36 43 46 49 52 55 57 64 68
88 84 89 83 78 80 74 73 75 70 78 84 82 79 73 80 77 73 63 59 55 51 49 42 40 40 42 40 40 39 42 39 37 37 39 47 57 55 57 54 52 63 70 73
87 84 83 83 76 70 70 74 72 76 76 77 76 75 74 73 73 67 62 58 54 51 49 44 42 42 46 42 41 42 40 37 36 39 44 52 55 59 59 57 62 69 68 68
78 81 81 80 67 63 65 65 73 76 79 74 72 74 72 67 69 65 64 56 53 52 50 48 48 46 46 43 43 43 41 37 38 42 46 62 61 65 62 66 67 54 53 55

GFSCGP_sfc_rhum_024.txt.gz
RH
78 88 94 83 85 86 96 90 89 70 59 72 74 72 62 58 68 69 61 56 63 58 47 48 50 56 64 72 74 92 90 71 61 59 58 55 52 44 39 36 33 33 34 41
89 96 76 74 71 76 79 86 84 66 59 76 78 74 59 55 56 56 62 58 58 58 55 51 58 68 76 80 81 92 84 69 64 61 64 79 46 39 36 36 33 33 35 40
92 76 66 73 81 79 77 88 87 82 69 66 72 68 44 36 38 40 42 44 48 54 55 54 62 75 87 89 92 91 81 74 66 54 48 48 38 33 35 33 36 36 39 41
91 72 75 80 82 82 90 74 77 83 90 89 75 82 52 45 38 40 39 46 50 56 56 54 62 84 91 92 95 90 79 71 58 50 46 41 45 35 36 33 36 40 39 40
86 92 93 90 74 74 77 68 80 84 92 95 86 95 72 55 54 50 63 66 58 57 53 56 64 68 91 95 96 90 77 67 61 53 45 46 45 40 37 34 34 38 38 38
75 76 76 77 65 66 68 77 80 85 89 95 72 89 59 46 41 40 33 44 52 55 58 56 70 91 95 96 93 82 71 71 62 55 54 44 37 33 34 37 39 42 43 43
94 88 80 75 85 74 75 99 97 98 98 89 70 82 63 44 41 40 36 50 57 59 64 80 92 92 95 95 89 80 72 73 66 54 48 40 34 32 34 38 40 38 38 39
99 93 86 84 77 83 84 86 95 93 95 86 61 74 62 48 40 36 34 52 57 64 71 78 82 85 90 91 84 76 73 71 63 54 54 48 41 43 42 44 39 36 36 36
98 94 90 75 76 67 97 98 76 94 95 97 86 73 55 54 49 54 48 39 42 66 79 81 86 86 88 86 81 76 71 66 60 53 47 44 41 40 39 36 35 37 34 29
86 96 84 84 80 78 92 82 98 99 96 94 82 76 64 55 49 56 55 59 52 70 78 83 88 87 83 78 75 68 59 56 49 44 39 37 35 33 33 33 33 31 30 31
73 91 91 92 96 87 98 99 99 96 95 88 80 69 63 62 65 65 60 54 60 71 75 84 86 79 73 68 64 58 48 44 40 36 34 32 32 31 29 29 31 30 32 32
71 95 96 83 68 65 68 78 81 90 90 87 87 61 57 74 67 65 65 71 73 73 79 84 79 72 67 62 56 51 42 38 35 33 31 32 31 30 30 31 32 32 33 35
75 98 98 93 86 81 100 87 69 67 84 88 90 53 30 41 52 72 81 90 93 91 88 82 74 69 63 56 49 41 37 34 32 31 31 32 34 33 33 34 34 34 36 38
70 98 96 93 86 96 98 94 96 90 95 74 71 59 44 44 74 77 74 93 95 93 87 81 73 66 59 52 44 38 34 32 33 32 32 34 36 36 37 38 38 38 39 39
85 99 95 96 91 100 99 95 98 98 80 85 58 54 43 65 73 88 78 93 94 92 82 76 74 65 58 50 43 36 34 34 32 34 37 41 40 41 42 41 41 41 39 40
92 98 100 97 85 96 98 96 95 88 77 74 64 64 47 64 76 84 84 82 90 83 78 74 69 63 56 48 41 34 35 37 35 38 43 43 43 42 43 41 41 39 41 44
98 100 100 95 98 94 98 90 89 87 72 69 87 61 47 52 79 75 71 72 75 79 78 74 70 62 55 46 37 36 36 39 40 42 43 43 42 41 42 38 36 38 41 47
95 99 99 98 99 98 91 82 70 75 66 64 62 62 70 77 73 73 72 73 77 78 78 75 70 65 54 43 39 38 38 40 43 44 42 42 42 40 38 35 35 39 46 51
73 88 99 99 97 93 64 90 73 78 75 61 60 55 62 79 70 69 72 71 73 79 74 74 69 62 48 41 37 38 41 44 43 42 42 39 38 37 35 35 39 46 52 54
90 88 98 100 98 94 64 60 73 71 94 74 71 67 71 74 81 68 79 79 81 76 75 75 64 52 45 40 36 38 42 41 42 42 39 38 37 34 35 40 47 52 56 53
98 97 97 96 88 83 71 66 77 91 70 62 75 70 78 82 80 84 74 75 74 75 70 61 57 51 42 36 35 40 40 42 42 39 38 38 36 36 44 51 55 56 56 57
92 91 91 87 95 91 65 66 77 61 74 77 76 76 82 83 82 78 72 71 67 68 60 51 47 43 39 37 36 39 41 43 39 39 38 37 41 41 47 55 56 55 62 66
93 79 86 80 80 66 72 62 64 70 73 81 82 87 82 83 82 75 70 64 59 56 53 47 44 43 42 39 34 39 44 39 38 38 39 45 48 51 51 53 56 61 69 73
89 86 90 82 77 80 79 68 77 74 84 91 90 83 77 82 74 68 60 58 55 52 48 44 42 42 44 41 39 39 39 38 36 39 48 58 56 58 58 56 54 68 74 76
86 87 85 86 79 78 71 76 80 84 80 80 80 77 75 68 67 62 60 57 52 49 47 43 42 43 45 40 41 40 39 36 37 46 50 56 59 61 61 61 65 71 74 72
88 83 82 80 72 68 67 75 76 77 79 75 74 76 73 64 64 58 58 53 50 50 47 46 45 44 44 42 43 43 40 39 43 47 57 64 62 67 65 70 70 57 54 55

GFSCGP_sfc_rhum_027.txt.gz
RH
73 82 88 82 80 75 87 90 79 69 60 65 63 61 52 46 49 50 47 46 45 50 43 41 42 38 41 47 53 60 78 84 69 63 64 64 60 55 60 40 36 36 40 37
84 91 67 57 70 74 76 82 80 60 54 61 64 68 55 53 51 46 43 42 46 43 45 44 43 44 46 48 57 73 79 72 65 62 63 74 70 51 41 40 42 40 35 36
89 71 67 73 77 76 82 87 70 63 64 61 65 61 38 31 34 37 41 40 38 40 41 44 44 47 54 60 67 74 74 68 64 63 56 57 56 51 37 36 46 43 36 36
91 70 74 83 83 79 86 70 70 75 84 77 65 71 40 34 30 28 32 33 37 38 38 40 44 49 58 63 77 76 71 65 58 57 54 59 57 52 36 40 38 35 33 32
84 85 93 82 72 74 77 66 73 76 88 83 72 88 54 48 46 42 36 36 36 38 42 44 47 48 55 74 81 77 70 62 55 54 54 69 68 50 35 34 33 33 32 32
78 71 74 79 71 67 65 77 78 81 89 96 69 78 55 41 36 34 33 32 42 46 47 46 47 51 68 83 85 79 70 62 55 53 56 54 58 35 35 35 34 30 31 32
84 86 75 70 76 73 72 99 95 97 98 83 61 80 56 40 39 36 34 33 31 38 42 53 63 71 80 87 86 76 69 64 55 50 46 40 35 29 30 30 32 31 29 30
93 90 82 77 74 82 88 89 91 91 87 73 63 78 56 43 35 33 34 34 35 39 51 58 63 72 77 86 82 71 68 63 53 48 42 34 32 32 32 31 30 27 27 27
95 92 84 85 78 68 96 98 72 87 76 94 67 57 45 40 45 45 49 53 50 43 54 61 68 73 78 84 78 71 67 60 53 48 42 37 38 38 36 30 28 28 27 25
79 98 80 84 71 75 88 74 97 99 95 87 78 76 57 46 40 64 65 62 60 53 52 68 73 77 81 80 75 68 61 58 50 44 39 37 34 31 29 28 28 27 25 26
82 89 84 94 96 77 94 98 98 90 90 79 66 57 42 38 64 73 72 68 72 69 54 64 76 81 83 77 71 63 57 51 43 38 34 31 30 28 25 25 25 25 25 26
75 90 99 86 62 64 64 78 80 97 84 89 74 54 56 66 68 75 76 72 80 80 70 80 84 77 75 70 62 56 49 42 38 32 29 28 27 26 24 24 25 24 26 28
77 95 98 88 84 69 96 87 90 94 98 93 85 54 33 46 55 71 78 75 83 85 84 80 76 74 70 64 54 46 39 34 31 28 27 27 27 26 25 26 26 27 29 30
67 91 89 83 84 91 99 97 96 98 97 77 77 58 42 38 40 48 78 81 86 86 82 77 73 66 60 53 45 37 33 30 29 28 28 29 28 28 28 29 29 30 30 31
82 99 95 91 83 94 99 96 97 99 86 91 59 55 43 41 43 73 80 74 81 90 83 75 70 61 52 45 38 33 31 30 28 29 31 33 32 32 32 33 33 32 33 35
82 98 100 96 81 83 99 95 95 94 90 78 68 67 43 59 67 68 66 80 84 86 82 74 66 56 49 42 36 33 32 31 30 33 36 36 35 34 36 35 33 36 38 37
96 100 100 94 79 94 99 94 95 93 83 77 90 65 52 55 57 60 70 88 76 82 78 70 61 54 47 38 35 36 31 32 34 36 36 37 35 34 36 32 33 37 37 38
88 99 99 98 98 98 88 77 80 81 75 70 66 58 59 64 78 78 72 78 68 78 76 68 58 50 41 34 32 33 33 35 37 38 37 36 35 34 32 30 33 35 37 38
83 84 99 99 96 81 67 74 84 81 87 68 68 62 62 64 74 78 75 70 76 76 71 64 56 46 39 35 33 34 37 38 38 37 36 33 31 31 29 33 35 37 39 39
85 81 97 99 99 96 68 66 76 73 84 68 61 60 61 73 84 72 79 80 80 77 72 64 52 43 38 35 33 35 38 36 37 36 34 32 31 29 32 36 39 42 41 38
98 96 96 97 99 82 68 68 78 74 62 61 69 65 77 76 76 77 74 76 76 74 66 54 47 42 37 34 33 37 36 38 38 34 33 31 31 33 38 41 41 42 42 42
90 96 96 95 93 91 66 80 79 58 68 71 72 78 79 82 78 76 72 73 72 69 60 50 45 41 36 34 33 36 40 37 34 33 33 34 38 37 42 46 45 44 47 47
95 78 82 79 76 65 70 62 65 71 74 75 81 81 78 77 75 71 67 62 59 55 51 45 43 41 38 35 34 39 39 34 33 32 39 42 42 42 43 44 48 46 51 52
88 87 90 82 74 77 75 74 74 80 83 88 86 80 77 78 70 66 61 58 55 52 48 43 41 41 41 37 37 36 35 32 32 39 44 44 45 47 46 44 47 51 55 57
85 89 86 85 78 78 70 75 77 83 82 82 77 75 71 67 67 62 59 55 51 49 46 43 42 42 42 37 36 34 33 32 38 44 49 51 50 49 49 49 51 55 56 58
88 84 87 81 69 68 67 78 79 80 83 79 73 72 68 63 63 58 56 51 48 48 45 44 42 41 39 36 37 36 36 36 40 45 48 51 51 52 52 54 52 54 52 54

GFSCGP_sfc_rhum_030.txt.gz
RH
60 68 66 51 46 43 55 56 58 50 43 46 45 41 35 31 31 32 29 28 27 27 25 26 27 26 27 26 27 28 32 38 44 52 56 66 68 68 57 61 48 44 35 35
68 74 46 47 50 55 58 61 54 45 41 46 43 44 36 33 32 29 27 24 22 22 21 22 26 26 27 28 27 30 35 42 49 52 53 58 61 66 64 61 48 41 43 37
60 55 52 55 55 60 60 69 65 58 44 39 45 43 28 21 20 21 23 23 23 22 20 20 20 24 27 28 31 34 39 49 53 52 56 58 54 54 54 55 61 47 40 30
62 48 57 61 62 55 60 46 54 58 61 65 47 56 31 24 22 21 19 20 21 23 22 22 21 21 23 28 36 40 46 53 55 58 56 57 58 64 52 45 52 45 39 42
66 66 71 71 61 53 62 50 53 55 62 66 56 83 34 30 30 25 20 18 18 19 20 20 24 24 23 32 42 48 51 54 56 56 54 56 62 55 48 45 38 34 30 27
54 54 59 54 51 52 52 60 63 59 69 89 56 68 40 27 23 22 19 17 17 17 21 23 23 26 27 34 50 54 55 56 55 56 54 58 63 52 43 35 44 43 35 27
66 63 60 58 67 61 66 95 79 90 94 64 33 50 45 24 25 23 21 20 20 23 20 21 26 32 35 38 56 58 55 56 55 55 56 59 56 57 39 32 40 33 28 26
81 77 63 66 65 59 74 70 74 69 54 43 39 52 32 23 22 20 23 27 37 35 33 25 25 31 37 46 54 56 55 55 53 54 56 54 51 41 31 33 33 26 25 24
83 82 61 59 55 57 88 97 60 85 63 78 48 31 23 21 23 24 30 41 37 41 41 35 29 32 37 46 53 55 54 53 52 51 44 38 36 36 40 37 28 29 24 21
65 89 57 57 61 63 74 58 90 97 81 67 41 36 33 26 28 40 39 40 45 48 44 41 33 34 40 45 52 54 51 51 49 45 38 35 35 40 41 29 30 26 21 20
59 68 68 75 82 65 83 96 98 71 72 68 54 37 21 22 22 34 40 43 52 55 51 47 38 40 48 51 57 56 52 50 46 41 36 34 36 33 35 26 26 22 20 20
54 71 82 77 42 44 40 52 62 95 81 82 70 57 24 33 40 44 35 40 49 56 58 56 51 52 57 60 59 56 51 46 43 37 34 32 29 27 23 23 21 19 20 20
56 88 88 81 68 55 74 58 55 83 85 93 86 51 24 28 36 32 35 41 46 58 58 58 61 60 60 59 56 52 46 40 36 33 30 29 27 23 22 21 20 20 20 21
60 71 82 70 80 77 99 76 90 99 98 72 72 57 36 30 30 26 25 30 44 61 61 61 62 60 59 56 52 46 40 39 36 29 28 27 24 23 22 22 22 22 21 22
64 100 83 83 69 82 90 85 88 100 92 94 55 48 38 34 33 29 29 44 46 62 65 69 62 58 56 54 45 39 36 33 28 28 29 27 25 24 24 24 24 22 23 25
68 92 93 97 70 70 92 91 95 96 95 95 80 69 41 37 36 39 46 43 48 69 58 70 60 55 54 46 40 34 31 31 39 35 31 28 27 27 28 26 25 27 29 28
73 96 99 96 69 73 90 95 95 88 78 76 94 61 43 44 43 50 52 67 67 68 60 67 57 53 49 40 34 33 36 36 35 33 29 29 28 28 28 25 26 30 29 29
76 95 92 95 82 94 87 73 84 85 80 77 66 57 50 48 60 72 75 81 74 63 61 62 52 49 43 39 33 37 34 34 31 32 30 28 28 27 25 24 27 28 28 29
66 78 93 97 96 70 65 76 91 90 86 63 72 64 66 68 75 74 79 68 65 59 60 53 46 40 36 35 29 28 29 29 30 30 29 26 25 24 23 26 27 28 29 29
78 78 90 82 97 77 62 73 68 64 74 50 58 62 58 53 88 79 74 74 69 59 53 48 41 36 32 29 27 28 28 30 30 29 27 24 23 22 24 28 31 31 28 28
92 94 95 96 97 65 48 51 64 58 53 52 54 58 55 61 70 70 69 72 66 60 52 42 37 34 31 28 27 28 29 31 29 27 25 24 23 24 28 31 31 31 29 28
73 78 86 87 92 82 46 54 60 49 51 54 56 62 84 66 82 70 71 70 67 64 53 42 39 35 31 28 27 29 32 30 27 26 24 25 28 30 34 39 37 33 30 29
76 55 54 58 51 46 47 48 45 53 56 56 64 60 67 67 74 75 65 59 56 51 46 39 36 34 30 27 28 33 30 28 26 26 29 30 32 33 35 37 39 32 32 30
63 60 63 64 48 51 50 49 54 59 63 67 68 64 60 61 61 60 57 55 51 47 43 38 36 34 33 30 31 31 29 25 26 28 30 31 32 33 33 32 35 34 32 31
57 66 66 64 52 47 50 52 55 64 63 62 61 62 58 56 58 56 54 51 48 45 41 38 36 36 34 30 29 28 26 25 27 28 31 34 35 34 35 35 36 34 35 43
61 57 55 46 48 50 49 57 60 64 66 60 60 60 55 55 55 51 49 46 44 42 40 39 37 35 32 29 28 27 26 27 29 31 32 33 34 36 35 34 33 49 49 51

GFSCGP_sfc_rhum_033.txt.gz
RH
49 55 57 43 42 38 35 43 40 33 31 37 36 34 29 24 24 26 25 25 23 22 20 20 22 22 19 19 21 21 23 26 29 37 44 48 63 85 83 70 60 53 47 38
66 75 42 36 38 40 43 47 44 35 31 36 36 34 27 24 24 23 23 23 23 20 18 19 20 21 23 22 22 23 24 26 31 37 45 49 71 81 70 67 60 47 41 38
59 45 42 42 47 51 47 50 48 49 41 35 37 37 25 19 19 19 21 21 21 20 18 16 16 19 24 24 25 25 25 30 36 40 46 56 66 64 66 69 71 61 49 40
54 40 47 47 51 44 52 36 41 46 53 50 40 48 29 20 18 18 17 17 17 18 17 18 17 17 18 25 31 31 29 33 40 47 52 62 67 68 66 73 68 60 40 44
59 55 56 57 49 42 52 44 48 48 53 62 48 63 34 23 24 22 19 17 16 16 16 16 19 21 20 24 34 36 34 36 45 50 52 61 58 58 60 64 62 50 44 36
45 43 48 49 45 45 47 50 54 53 63 85 50 41 33 22 18 16 15 16 15 14 15 16 18 18 21 27 33 42 39 42 48 53 56 56 59 57 56 58 51 45 40 37
62 55 49 45 56 50 53 74 73 83 91 64 26 40 38 22 20 19 18 17 17 18 23 25 21 18 24 29 32 41 44 48 50 56 52 52 59 55 57 51 48 47 42 38
81 77 53 57 58 55 60 62 70 62 50 39 28 41 26 17 17 18 18 17 18 25 27 31 32 25 24 32 33 39 46 49 50 53 53 53 53 54 51 50 42 41 43 35
70 73 47 50 46 48 66 89 52 71 54 65 39 26 20 17 17 16 17 20 24 29 34 34 35 31 21 26 34 42 47 48 50 52 52 56 52 50 43 39 36 33 31 28
56 81 49 50 49 50 57 50 84 95 83 62 36 32 28 21 18 17 20 32 32 35 35 37 36 32 25 26 33 43 44 47 49 51 54 54 45 38 38 34 35 35 30 25
51 58 65 62 70 57 69 78 77 64 72 62 53 38 19 21 21 19 30 30 35 38 38 39 42 34 29 31 36 44 45 48 50 51 44 40 39 38 36 34 33 29 25 26
48 57 81 66 40 38 40 58 60 92 65 78 76 63 25 23 21 31 30 29 30 35 39 42 48 43 41 41 45 48 48 48 49 42 39 38 36 34 33 31 29 25 25 23
49 73 83 83 55 44 57 49 47 68 86 94 86 55 24 26 25 24 30 26 23 32 41 44 48 50 50 52 53 51 48 47 42 39 38 36 34 33 29 29 26 27 24 21
53 61 76 72 84 71 99 69 65 96 98 72 66 54 37 31 31 32 26 28 23 27 38 51 54 52 51 54 53 50 46 42 41 37 34 37 33 29 27 28 27 28 22 22
58 100 73 71 62 75 82 74 74 99 95 99 68 65 51 44 39 33 32 29 28 34 42 58 56 55 58 55 51 43 40 38 35 34 34 31 28 27 31 28 28 25 25 25
62 87 88 92 55 57 70 55 74 92 95 96 94 94 68 51 38 38 36 33 36 36 38 58 59 55 57 52 45 43 40 35 33 31 32 30 30 30 31 28 27 31 30 27
71 93 91 81 61 59 78 94 95 93 90 94 98 66 48 45 42 44 62 62 56 53 54 59 60 56 52 43 40 35 34 37 39 40 36 36 38 38 39 29 30 33 30 29
72 78 84 87 68 86 57 49 64 85 84 78 82 71 62 59 65 61 77 81 80 69 66 60 55 52 43 35 34 40 46 47 50 48 48 42 32 32 29 28 30 29 29 30
66 68 77 84 71 57 50 49 66 89 93 60 72 77 75 79 77 86 80 75 65 56 58 54 46 41 37 39 40 45 48 50 50 52 59 40 29 27 28 29 29 28 29 30
66 65 80 72 91 72 53 50 50 60 80 51 50 59 62 72 96 96 85 69 62 55 49 44 40 36 38 43 48 53 54 54 58 44 28 25 24 26 28 30 31 30 29 29
96 99 98 94 91 55 37 44 56 65 55 52 52 64 63 76 87 82 70 64 62 58 52 46 48 51 64 69 72 73 56 51 38 27 25 25 26 27 30 32 31 31 28 28
66 78 87 91 97 83 38 42 58 48 48 48 52 64 82 76 67 73 70 64 56 50 43 41 40 36 33 31 28 29 32 29 28 27 26 29 30 29 35 44 41 35 31 30
63 46 56 57 57 38 38 46 43 46 52 50 58 54 80 85 91 66 73 62 57 49 42 35 33 32 30 29 30 32 30 28 28 30 31 32 34 36 41 45 46 36 31 29
49 44 55 56 42 41 40 40 44 51 55 57 58 56 66 60 61 60 56 53 52 46 42 36 33 32 33 31 32 31 29 29 30 31 32 32 34 33 33 34 38 35 31 28
50 56 55 53 45 40 45 47 49 54 53 55 56 56 55 55 57 55 54 51 46 42 39 36 34 35 34 31 30 28 29 28 30 30 32 34 34 33 35 34 36 34 33 41
46 51 56 49 38 46 44 49 52 55 56 54 56 56 52 52 54 51 50 46 44 41 39 39 37 35 32 29 29 29 28 29 30 33 33 34 34 34 35 35 35 48 46 47

GFSCGP_sfc_rhum_036.txt.gz
RH
72 80 87 71 61 56 54 50 49 42 33 41 43 40 36 31 30 30 31 31 30 29 27 27 28 30 29 26 27 30 36 37 38 48 54 61 64 80 79 82 74 67 62 62
66 78 50 44 46 53 48 53 53 43 35 41 44 45 37 32 29 27 27 27 27 28 27 24 26 31 32 33 30 29 35 34 34 38 53 64 95 96 92 86 79 72 61 54
63 54 46 49 49 52 55 62 57 53 45 43 46 49 38 29 28 27 26 24 24 25 26 24 24 25 30 29 30 32 33 37 36 47 61 81 81 86 86 82 83 71 68 63
61 45 45 51 54 49 62 45 46 48 62 74 49 78 45 32 27 24 26 26 28 26 24 23 22 23 24 28 29 35 39 38 45 55 63 80 81 90 92 88 80 72 67 56
69 57 60 61 51 46 56 49 52 55 66 66 65 82 54 32 33 29 26 26 26 25 25 25 27 26 27 30 41 33 38 42 49 50 64 81 89 83 80 72 70 62 62 47
54 43 54 54 46 48 48 55 55 61 66 91 71 64 54 35 31 28 24 26 24 26 27 28 28 29 32 33 38 50 45 48 58 60 72 77 80 79 83 73 64 64 60 56
64 60 53 49 60 53 56 74 96 98 95 90 38 59 44 28 24 25 26 25 27 25 31 33 43 44 38 33 42 43 56 54 67 74 80 72 70 73 77 71 62 53 50 54
86 80 60 53 60 65 67 67 96 86 90 71 43 57 41 26 23 22 22 24 24 30 35 45 45 49 49 40 42 43 56 61 70 76 73 70 68 68 67 65 56 52 52 50
80 74 50 52 49 55 70 86 64 82 70 91 61 39 28 23 23 22 22 23 27 31 46 46 47 49 48 44 46 45 60 64 72 75 70 71 63 65 62 56 50 51 45 41
64 78 56 55 46 49 61 54 92 97 97 85 60 51 41 32 28 25 26 38 40 46 46 49 49 51 47 44 44 48 60 66 72 70 71 62 64 57 53 47 46 39 38 30
54 67 72 69 74 71 72 78 75 75 85 89 81 60 43 35 31 32 33 44 45 57 51 50 52 58 55 47 47 57 65 68 66 76 61 57 52 47 41 37 33 32 30 30
51 66 92 81 50 52 53 66 66 90 83 83 92 71 32 33 35 31 32 46 47 40 45 50 56 60 62 59 57 64 65 59 68 51 49 49 43 37 36 33 33 31 35 28
54 81 93 90 67 53 67 58 55 67 87 92 94 67 30 33 33 32 33 34 31 35 45 56 61 64 65 69 66 59 58 61 48 48 48 46 41 39 35 33 33 31 30 32
56 69 86 94 90 84 95 79 65 80 98 83 76 66 50 42 43 43 45 33 37 36 37 64 67 70 68 64 77 63 55 46 48 46 44 42 42 36 30 30 29 30 33 27
67 99 84 79 66 74 81 79 74 98 95 99 79 78 66 68 72 62 56 43 39 39 44 69 70 75 71 68 66 51 49 47 43 43 41 38 32 31 31 34 34 30 30 30
66 97 89 92 67 67 78 66 65 70 92 96 92 90 65 62 61 55 59 64 62 47 44 71 69 74 75 61 48 45 49 46 43 39 36 33 33 35 38 40 40 42 34 32
80 96 96 90 69 69 82 72 82 92 85 92 98 91 78 74 72 84 87 82 79 74 73 69 64 64 50 48 44 43 43 40 36 35 34 35 37 38 41 39 37 35 35 36
92 90 88 96 81 97 72 68 67 75 73 75 80 71 70 77 79 87 90 92 88 84 73 70 62 50 44 38 38 39 41 41 42 46 47 50 59 64 57 48 54 52 41 38
84 89 94 96 83 69 52 58 68 82 80 73 64 62 74 81 89 91 84 78 73 73 65 58 46 39 38 42 44 50 56 62 66 76 80 79 76 77 72 47 38 40 36 36
84 84 87 93 96 86 66 59 56 72 89 68 64 76 77 84 95 97 90 75 52 48 47 42 41 42 48 49 56 63 64 74 81 82 82 78 75 60 39 39 40 38 38 33
98 94 97 96 96 73 46 59 64 92 78 65 61 79 81 92 96 84 74 82 58 48 42 42 48 56 60 68 72 79 79 84 79 76 72 54 37 38 36 39 38 35 34 34
86 92 92 97 98 92 53 59 70 67 68 65 66 75 88 79 83 79 69 66 88 90 86 81 85 88 88 84 82 90 91 87 76 49 38 37 36 33 42 49 47 41 41 41
78 63 71 74 76 51 54 61 59 62 68 71 74 71 89 88 81 74 67 60 49 50 75 86 91 94 94 82 70 70 50 34 34 34 37 40 43 48 54 57 53 46 41 41
62 55 76 67 57 59 59 56 59 64 71 68 69 72 77 88 72 64 70 73 61 45 38 36 36 37 37 34 33 32 32 32 34 36 39 45 47 47 47 48 53 48 45 44
72 65 71 72 61 58 61 63 64 64 62 66 67 70 68 66 67 63 60 56 51 48 43 39 39 39 37 32 32 32 32 32 35 39 46 48 47 48 52 54 57 51 60 57
68 74 78 77 56 61 68 63 60 64 66 66 66 66 66 64 64 58 56 53 49 45 42 41 40 37 33 32 33 33 33 34 40 44 50 52 53 53 54 52 57 46 46 42

GFSCGP_sfc_rhum_039.txt.gz
RH
83 88 95 88 84 73 63 67 63 52 41 48 52 52 46 39 41 38 35 39 38 34 31 34 33 32 30 30 33 38 51 55 58 69 75 79 91 73 76 74 68 77 65 61
79 83 64 59 60 63 74 71 65 52 44 49 50 49 41 39 37 34 33 38 37 33 33 32 33 35 36 35 36 34 43 52 56 60 63 86 96 96 86 89 81 68 70 63
81 60 49 56 59 60 60 73 70 64 54 53 56 59 51 41 38 33 31 29 28 28 30 32 33 33 34 39 39 38 37 45 45 50 85 96 96 96 97 95 85 74 67 69
65 54 53 60 63 57 74 54 56 58 70 82 60 89 68 42 33 31 37 38 31 29 30 32 32 32 32 34 40 38 39 42 45 50 76 87 86 93 96 95 92 78 68 71
77 61 60 64 60 52 64 55 59 64 76 79 77 86 69 53 38 34 31 30 31 34 30 28 31 30 28 30 35 43 37 45 49 46 70 77 90 96 96 91 86 80 78 65
62 49 57 61 52 54 53 59 65 72 79 98 77 77 67 42 33 33 34 28 29 31 31 31 34 41 40 38 38 48 49 46 53 50 82 75 94 95 92 86 84 83 79 62
67 64 55 55 68 62 64 77 97 94 94 90 63 83 66 36 30 29 29 28 30 27 32 42 50 51 54 55 49 42 47 51 58 69 86 88 86 89 88 80 83 76 64 58
91 90 69 60 67 74 77 75 93 93 98 87 58 69 50 34 28 29 24 26 25 29 45 50 55 55 54 54 55 50 46 52 66 88 86 82 83 90 88 82 80 72 60 47
91 83 56 52 55 61 80 90 68 87 86 96 74 52 36 29 30 29 31 30 30 37 57 54 55 54 56 60 60 55 49 62 83 87 80 81 82 88 86 80 73 68 60 48
70 83 66 59 52 59 63 62 89 96 98 95 77 68 48 41 37 34 35 37 49 57 59 58 56 56 60 63 66 59 55 67 90 85 81 75 82 77 74 65 63 54 47 39
58 68 79 66 74 77 76 71 69 82 94 95 97 75 44 40 42 41 40 44 56 55 55 55 56 61 64 66 71 64 66 82 92 83 75 78 76 70 63 60 52 45 39 38
56 72 95 83 63 59 67 72 77 94 82 95 96 74 37 36 38 38 36 34 33 42 50 57 62 65 66 68 68 75 76 89 86 72 70 66 65 58 54 50 44 39 35 33
59 83 96 88 77 68 79 69 66 75 89 93 90 69 38 37 38 38 41 52 50 39 46 63 68 68 70 69 81 83 86 67 64 56 49 47 46 41 38 39 35 36 35 34
58 80 84 89 87 86 92 83 73 81 98 84 78 63 52 48 50 54 61 68 60 49 41 68 75 71 69 78 75 66 61 56 57 50 47 44 42 36 35 35 35 34 38 37
72 91 90 82 76 84 81 80 79 89 82 98 69 71 63 63 72 74 71 73 59 59 50 74 78 80 84 77 70 63 65 61 56 55 52 48 39 36 35 36 38 39 40 41
75 97 94 93 75 78 87 72 74 74 74 78 79 93 66 63 65 75 81 79 80 74 75 81 80 84 69 67 58 55 62 59 51 52 45 40 39 36 40 44 48 53 60 64
84 96 98 98 75 78 89 72 67 80 86 85 98 82 65 70 78 86 92 90 86 84 82 79 82 64 57 51 47 54 51 47 45 44 39 42 42 47 54 54 59 70 73 78
87 95 95 96 88 95 70 63 65 77 79 79 80 73 72 81 84 86 88 84 73 70 88 82 61 56 50 42 43 40 40 42 44 46 50 53 57 67 71 73 79 77 75 76
81 85 98 97 96 71 59 64 70 86 80 70 81 68 81 78 87 90 86 53 54 65 66 54 46 45 46 45 46 51 59 62 60 66 74 73 77 86 87 88 91 90 87 55
85 84 98 98 98 89 69 62 63 78 95 68 67 76 88 83 96 97 86 51 47 50 44 46 48 51 53 57 60 69 72 75 85 86 88 88 89 90 91 89 75 47 40 37
99 99 98 92 98 84 56 50 68 90 74 74 68 76 84 92 93 77 79 76 55 52 52 54 58 62 69 72 75 84 88 96 94 93 90 88 88 76 45 41 38 38 34 35
90 95 98 96 99 93 50 63 73 66 76 74 76 84 84 87 82 69 73 85 84 82 78 75 76 85 86 81 87 92 96 92 89 88 82 70 64 46 46 48 46 42 45 46
88 76 80 82 78 56 56 67 72 68 71 78 83 85 84 85 78 68 60 75 87 90 92 91 92 95 95 91 90 96 99 88 78 63 48 44 44 45 50 54 54 49 44 47
61 56 68 75 61 63 60 66 70 72 73 68 74 84 91 86 76 79 70 48 60 62 70 76 72 74 82 78 74 74 64 43 39 43 46 50 52 55 54 54 54 52 50 54
77 75 79 81 70 68 71 70 71 70 69 71 71 76 85 72 72 73 70 61 48 43 40 39 38 38 37 34 35 36 36 36 39 41 47 54 52 54 58 59 56 63 64 55
76 78 86 83 64 65 70 76 68 68 70 73 69 73 71 69 66 59 57 54 48 44 42 41 39 38 36 35 36 36 36 37 40 49 52 56 58 60 59 59 61 50 47 44

GFSCGP_sfc_rhum_042.txt.gz
RH
91 90 94 87 74 66 67 72 70 64 45 49 51 55 47 40 45 45 39 41 41 39 33 39 36 36 35 35 35 44 64 63 79 90 91 95 93 90 80 78 68 69 73 70
96 93 78 74 78 73 78 70 69 57 49 52 54 53 42 38 37 36 34 33 35 35 35 36 36 38 38 37 36 36 48 58 66 79 76 87 89 95 89 89 77 73 74 70
81 64 56 61 66 72 63 74 74 67 58 57 58 45 44 41 40 36 31 32 33 34 31 29 38 38 38 40 40 40 41 53 64 68 88 99 98 98 99 97 95 78 75 81
73 56 58 63 63 61 68 58 59 63 71 84 62 81 68 49 45 38 35 44 41 36 32 32 30 36 36 35 37 41 43 44 56 72 92 84 79 93 94 91 95 95 83 85
78 66 62 64 62 52 67 57 62 68 79 83 83 88 66 55 42 35 35 33 32 35 39 37 37 36 35 35 38 39 41 48 49 54 74 86 74 80 98 98 96 92 94 88
64 55 60 59 56 55 54 61 70 79 83 95 78 82 66 48 37 38 34 30 30 30 32 35 36 47 51 52 46 44 45 50 53 57 68 83 84 97 98 97 95 92 91 88
69 69 60 55 68 63 63 76 93 93 98 84 71 87 73 50 38 34 32 31 30 34 35 45 53 56 63 66 59 56 50 48 49 62 74 76 92 93 93 93 90 90 83 80
90 92 66 60 68 74 75 71 90 79 97 91 67 83 51 42 37 33 34 33 32 31 41 55 62 58 56 58 58 61 61 59 54 56 82 92 91 91 90 88 88 83 80 79
91 84 63 58 59 62 80 88 69 88 87 96 79 63 38 37 38 37 38 38 48 38 48 60 57 56 58 60 61 65 66 65 58 62 93 95 94 94 91 90 86 85 80 71
73 93 68 61 55 60 65 64 88 94 95 91 80 77 49 42 42 40 43 47 49 55 57 58 58 56 58 62 67 73 72 68 61 86 94 94 95 93 90 86 86 81 69 61
66 79 83 68 76 79 79 82 82 84 91 94 95 74 50 43 47 45 47 45 48 52 51 43 54 60 62 65 68 73 80 77 86 96 93 96 96 93 89 85 80 74 62 52
59 82 95 81 69 64 70 76 77 94 77 97 95 80 43 51 49 43 40 44 48 48 56 53 48 58 62 66 73 84 88 87 95 92 92 93 88 87 87 79 72 65 57 51
62 84 95 88 75 75 85 75 73 78 92 96 94 74 43 46 37 37 49 58 60 61 67 59 53 61 63 70 83 90 90 92 89 85 83 85 84 84 81 72 60 48 47 41
63 80 80 89 80 85 89 83 78 80 98 91 86 65 51 46 44 51 64 68 72 67 72 58 61 70 75 89 79 76 71 72 72 74 77 76 77 74 66 49 39 38 37 41
69 89 91 85 78 87 83 81 83 90 77 95 67 72 62 56 54 68 75 74 74 77 78 80 77 84 90 82 75 76 73 71 66 74 67 61 51 47 43 41 41 44 49 53
77 89 95 93 76 82 90 79 78 73 70 71 74 79 54 55 60 80 86 85 83 82 78 74 80 84 78 79 69 68 75 72 77 75 64 55 56 61 46 46 52 56 61 61
84 96 97 98 78 84 95 80 74 74 75 68 88 76 64 66 79 91 93 82 70 65 74 78 74 64 66 63 62 64 59 59 56 55 56 55 52 58 61 64 71 80 86 86
92 93 97 98 87 97 72 59 58 64 68 78 80 75 69 74 86 87 81 66 60 52 67 87 67 58 56 57 52 55 65 72 75 76 69 70 64 72 78 81 86 88 86 88
73 84 97 99 98 74 59 64 72 84 75 72 82 75 67 82 88 92 78 50 53 48 48 55 56 56 54 53 55 56 63 69 75 78 76 77 79 86 88 92 93 93 95 96
83 84 96 98 98 83 62 61 73 77 94 75 72 72 76 84 95 95 82 52 52 52 52 55 55 60 65 64 62 68 71 73 80 83 88 91 91 90 92 93 96 95 85 65
99 99 95 91 98 82 58 56 75 87 75 77 77 72 89 86 90 80 76 72 68 64 62 64 68 73 82 76 72 82 89 97 97 93 92 95 93 93 90 88 76 59 42 38
91 87 92 91 98 94 51 76 76 69 77 79 79 85 91 92 76 70 83 84 82 87 79 80 87 88 88 83 85 93 97 99 96 95 93 84 79 76 67 56 48 41 42 47
84 82 82 83 77 58 57 63 60 67 76 80 83 87 88 90 75 66 80 87 86 86 87 87 93 96 92 88 89 96 100 87 88 84 69 50 47 46 47 52 56 51 49 48
78 60 74 74 63 57 51 66 66 76 77 72 73 87 85 86 71 60 60 80 82 87 87 84 86 92 95 91 91 93 88 75 53 48 50 50 54 58 56 55 53 52 54 56
87 74 71 77 72 64 65 72 66 69 70 74 76 88 90 79 80 70 58 62 58 56 55 52 53 56 60 53 56 57 50 42 45 51 59 61 59 59 60 58 60 59 57 50
79 83 81 72 62 70 70 72 71 72 72 75 80 83 78 74 75 68 61 53 46 45 43 44 42 41 39 38 39 40 40 41 47 55 56 59 60 61 62 64 68 52 49 48

GFSCGP_sfc_rhum_045.txt.gz
RH
90 97 95 84 75 72 70 79 82 73 54 55 55 57 48 42 46 48 44 43 44 41 35 39 40 40 39 39 40 42 71 69 83 96 97 97 98 95 89 84 78 72 69 78
98 94 80 81 77 80 71 80 84 62 54 57 59 58 45 40 39 37 36 34 35 35 38 37 38 40 41 38 37 40 49 73 75 86 86 89 93 94 88 88 83 74 75 82
83 76 73 79 84 90 83 84 80 71 61 61 64 55 49 40 41 40 37 35 33 34 32 30 36 39 39 42 41 40 42 54 75 81 87 99 97 99 99 98 92 81 80 84
65 55 71 69 79 73 72 56 62 65 71 85 64 83 67 48 46 44 39 36 40 41 39 36 34 37 41 40 41 42 43 46 59 85 88 90 90 93 94 90 90 94 91 91
79 64 72 74 65 53 66 58 63 68 80 82 82 89 65 49 38 33 35 35 33 32 36 38 40 39 38 39 40 40 41 47 51 73 89 92 88 87 93 94 93 96 96 92
69 59 59 60 60 56 55 62 71 85 82 92 78 80 59 45 42 39 35 34 34 34 36 36 39 48 57 59 52 48 44 43 49 56 81 93 89 96 98 100 98 98 97 96
72 69 61 57 69 63 63 76 90 85 95 84 82 85 61 48 44 42 40 37 38 36 35 43 56 57 58 65 59 58 55 53 54 59 66 88 90 96 94 95 96 97 96 96
94 94 68 64 69 75 76 72 86 71 92 88 75 87 52 49 39 40 42 46 54 55 49 59 60 61 60 55 56 60 62 63 62 62 64 79 88 94 93 94 95 93 90 89
87 83 68 61 62 63 82 90 72 88 88 96 76 60 38 41 43 42 44 45 47 52 56 54 55 57 59 60 59 61 65 68 69 67 67 86 92 94 95 95 94 93 91 86
72 93 70 66 59 63 70 67 88 94 74 86 73 75 48 45 45 48 45 46 47 48 51 52 51 53 58 60 64 68 72 72 73 76 79 87 95 94 93 96 96 93 87 81
69 79 86 69 78 84 79 89 88 85 88 90 92 61 54 49 51 50 50 49 56 64 69 64 59 57 56 56 66 69 74 84 86 86 91 97 98 98 97 96 94 87 81 74
67 83 94 80 70 67 72 77 81 90 80 94 88 82 51 54 53 47 41 46 53 59 65 71 69 64 61 62 64 70 88 92 92 93 97 98 98 97 97 96 93 83 79 77
62 84 95 86 73 75 84 77 74 81 88 97 93 72 47 51 43 43 47 52 65 66 70 73 75 70 68 75 82 80 82 87 88 95 96 97 97 95 89 85 78 69 62 59
63 80 79 87 79 85 92 86 81 83 100 92 87 77 50 48 48 49 51 76 75 70 70 70 83 84 82 79 76 77 76 78 81 85 86 93 93 85 80 71 72 66 55 53
69 89 90 83 76 88 83 81 88 87 78 92 75 74 57 50 48 51 78 77 75 74 72 74 79 92 91 74 75 78 84 86 78 73 72 71 68 64 57 56 57 55 54 54
75 93 94 91 76 84 91 82 81 84 78 79 72 74 49 44 50 73 84 81 75 67 61 58 74 71 71 78 74 75 79 80 69 70 71 62 58 58 63 63 68 62 63 65
80 94 94 98 79 84 91 82 80 76 75 62 78 62 57 66 67 84 90 78 64 60 54 63 72 62 63 71 72 81 72 60 61 63 65 69 72 76 76 72 72 79 84 85
88 92 94 98 84 95 65 65 61 64 63 67 68 64 60 73 78 86 81 65 58 56 53 61 58 60 64 64 73 72 78 84 82 82 82 83 88 91 83 88 90 90 88 90
70 85 94 97 98 75 64 59 73 77 74 68 72 71 75 68 90 94 76 50 55 55 53 54 59 64 60 56 62 72 81 85 88 92 93 91 88 84 87 91 93 93 93 95
81 83 94 97 97 89 68 65 74 76 87 78 80 74 70 83 93 90 80 64 60 58 59 65 66 64 64 64 65 70 75 79 85 89 91 89 88 90 93 94 97 97 94 99
99 99 97 82 92 82 58 52 79 88 78 77 78 76 78 93 86 86 77 72 69 68 69 74 77 83 86 82 85 94 96 97 95 92 93 94 93 94 92 94 93 92 91 82
94 96 91 92 98 92 56 74 76 66 71 79 78 78 87 89 80 71 86 81 82 82 80 81 86 90 85 83 87 96 99 100 97 93 97 94 90 83 80 76 63 50 45 45
96 83 85 85 79 57 57 57 60 64 74 79 82 77 88 90 78 70 87 87 84 83 87 88 90 91 91 88 88 97 100 91 90 88 79 57 50 52 52 55 56 54 52 52
83 68 79 85 76 73 60 66 66 76 78 77 74 77 90 87 72 63 83 88 88 86 86 84 86 92 96 91 90 91 83 72 62 52 52 51 55 58 57 53 52 54 56 58
88 77 74 75 76 67 67 65 62 75 78 71 76 81 88 85 76 59 68 73 74 74 63 67 77 82 82 83 83 76 51 50 55 60 63 63 59 60 61 62 57 53 53 50
80 75 87 89 70 71 74 71 73 77 75 71 80 88 92 81 77 64 59 58 51 50 52 52 50 52 48 46 45 45 48 51 54 57 58 60 61 66 70 73 76 54 54 52

GFSCGP_sfc_rhum_048.txt.gz
RH
85 95 94 78 81 71 76 79 81 78 60 59 63 64 52 43 49 49 47 44 40 37 37 42 41 42 43 42 43 42 47 80 95 96 96 97 95 94 94 94 90 81 76 85
96 94 85 75 69 70 76 86 88 70 58 61 61 61 49 42 43 42 40 39 38 38 35 39 41 43 44 41 42 44 46 53 79 94 90 91 88 92 92 92 93 84 80 84
87 85 78 81 84 83 86 83 82 80 65 65 68 61 49 42 42 39 38 40 41 40 37 34 39 40 42 44 43 41 43 50 72 85 92 99 98 99 98 98 96 92 86 86
66 77 84 89 88 84 97 63 64 64 73 86 67 85 65 52 44 41 40 38 37 34 34 38 40 42 42 40 44 44 44 47 56 90 92 94 91 94 94 94 93 94 89 90
88 83 92 94 82 68 68 60 65 69 78 82 80 85 58 49 38 37 36 41 42 39 38 43 44 41 43 44 45 44 44 48 52 60 92 96 94 92 96 96 96 96 94 90
67 55 59 60 62 56 57 63 71 80 81 91 78 76 50 42 49 46 46 48 52 48 47 50 58 61 64 65 64 60 47 43 47 59 82 96 95 94 98 99 98 99 98 96
73 68 59 57 68 60 65 80 92 80 92 80 83 82 57 52 49 52 48 50 55 56 56 57 58 61 61 61 59 58 62 60 58 60 64 86 95 95 96 94 96 98 98 98
95 92 67 64 68 74 81 75 87 67 84 75 76 90 48 52 43 48 51 51 48 50 57 55 55 57 58 57 59 60 61 64 65 67 65 69 84 96 96 95 95 96 96 94
88 86 69 63 66 66 80 89 71 90 89 94 73 60 34 49 52 52 49 48 50 51 52 57 60 60 57 57 58 65 66 68 69 71 76 76 79 89 94 96 94 95 94 95
76 95 76 70 63 67 70 68 86 93 78 74 64 69 42 49 48 50 49 48 51 60 67 70 70 67 60 60 60 64 67 69 75 85 87 83 88 91 91 96 98 98 97 95
71 79 88 68 80 82 79 91 87 84 86 78 73 45 52 48 57 55 51 52 58 70 76 80 80 77 74 67 67 67 74 84 93 94 93 94 95 97 98 98 98 97 94 93
69 82 96 85 74 71 76 80 80 86 86 91 93 75 53 57 59 54 52 52 60 69 76 82 84 83 78 79 85 91 81 79 86 95 97 98 96 96 96 98 96 89 86 80
63 84 96 88 75 74 83 76 75 80 86 99 95 64 50 56 49 45 53 61 82 78 82 83 83 88 93 89 83 77 78 80 80 89 97 96 94 94 92 90 82 78 73 70
61 78 78 87 79 86 93 86 81 82 96 90 91 78 51 49 51 48 54 85 75 70 74 62 68 91 94 71 73 80 79 75 79 83 91 91 89 88 84 78 70 65 59 58
69 89 89 81 76 88 83 80 88 86 82 89 77 79 59 54 52 50 61 79 74 68 63 62 64 74 72 67 73 84 88 84 81 79 75 73 72 66 69 71 67 61 61 61
74 99 94 91 77 86 92 84 85 86 81 83 74 76 50 46 48 63 87 82 74 60 61 52 70 81 63 72 81 77 76 77 74 70 72 66 67 68 72 71 74 75 77 78
75 94 93 92 80 85 92 84 81 85 80 71 87 62 53 65 64 75 88 79 65 59 54 59 66 64 64 80 86 91 74 70 72 74 76 77 76 77 77 73 77 80 89 86
85 90 93 99 83 95 58 69 66 65 62 66 63 58 55 65 68 86 78 65 60 57 57 58 55 56 68 76 76 77 81 84 85 86 86 86 87 89 89 89 90 92 89 91
66 85 92 94 100 77 67 73 72 74 72 65 64 63 63 68 89 97 78 58 56 58 59 59 61 70 67 65 68 73 78 83 89 92 92 92 90 94 95 98 99 100 98 97
82 83 88 96 86 94 64 71 72 76 89 71 79 79 76 85 94 92 83 65 64 63 64 69 70 70 71 73 78 85 90 92 93 92 91 89 89 90 96 97 97 98 97 99
95 98 96 82 83 85 58 55 78 93 83 78 80 78 83 88 90 84 74 73 76 78 76 79 81 85 86 85 88 96 96 98 94 92 92 92 92 96 96 99 98 99 99 96
80 88 92 89 94 94 58 76 80 70 69 77 77 80 83 88 81 80 83 80 87 93 88 83 88 90 87 84 89 97 99 99 97 96 97 98 97 97 97 97 90 65 54 53
96 89 91 81 80 59 58 56 57 69 64 73 81 79 82 89 81 83 88 84 82 90 88 87 88 90 90 88 94 99 100 98 97 93 94 91 83 67 57 55 56 53 53 56
84 68 80 85 79 76 64 69 72 75 75 77 78 78 84 90 84 74 88 89 86 89 84 84 86 92 96 90 90 89 85 75 56 51 54 55 56 57 56 54 54 57 59 60
82 74 76 77 72 71 71 72 71 69 76 76 74 81 86 90 84 68 86 88 87 84 90 84 84 87 91 86 83 61 52 54 58 62 61 61 60 63 63 57 51 49 54 53
88 85 92 92 82 90 84 76 80 76 77 75 78 82 92 89 85 63 77 68 74 62 60 66 67 70 69 65 57 53 57 57 58 58 58 62 67 73 74 78 80 56 57 57

GFSCGP_sfc_rhum_051.txt.gz
RH
87 91 89 81 73 63 65 71 71 65 53 54 60 60 50 43 44 43 41 38 35 32 31 36 38 36 36 36 37 36 38 58 81 86 90 93 96 93 93 89 81 72 72 78
97 88 71 67 65 66 69 75 76 62 52 53 57 56 46 41 44 42 40 38 38 36 32 31 32 35 36 35 36 37 38 38 60 76 74 78 83 89 88 88 88 80 75 76
98 90 67 69 77 75 80 79 76 68 57 55 60 56 45 38 36 35 33 34 32 34 30 32 34 34 37 36 40 38 40 42 46 68 81 88 90 93 92 94 92 88 80 80
93 90 84 81 78 73 92 73 63 60 67 71 60 66 53 45 33 36 41 43 38 36 34 41 48 46 43 44 49 43 44 44 44 58 78 84 77 84 82 82 86 88 85 82
88 97 93 90 88 72 83 59 62 63 70 68 65 66 43 38 37 39 41 46 48 44 44 47 52 55 52 59 60 54 44 42 46 47 67 84 84 77 81 84 87 88 91 85
67 59 66 87 84 79 58 61 66 71 71 83 64 64 38 38 39 40 40 42 47 48 49 50 52 54 52 56 57 57 54 51 46 47 54 83 88 86 92 92 93 91 92 91
94 75 59 68 86 65 60 76 88 76 87 78 72 74 50 41 41 40 40 42 44 46 49 53 55 57 58 59 57 54 53 51 51 54 51 53 78 91 91 88 90 88 93 95
94 95 66 60 68 75 68 68 87 62 68 58 71 73 42 44 38 37 41 43 46 49 49 54 57 61 61 60 57 56 55 54 53 55 57 56 57 68 83 88 85 85 89 88
84 92 64 63 62 63 74 84 64 85 79 83 59 53 33 43 42 42 45 50 49 51 57 63 64 64 62 60 59 59 58 57 56 57 64 66 64 68 69 73 84 86 85 88
73 95 72 67 59 62 67 65 83 89 79 62 48 51 32 44 42 46 46 48 50 55 67 71 68 68 66 67 66 64 60 61 64 75 77 78 81 78 76 74 77 83 86 87
69 77 85 69 78 77 75 82 81 73 74 59 46 33 41 40 46 49 45 48 52 69 74 72 70 70 73 72 72 70 69 70 70 75 80 84 91 88 90 90 88 88 87 86
68 82 95 84 70 66 68 75 70 84 84 90 83 51 43 44 45 48 45 48 56 73 69 71 72 74 78 74 68 67 66 69 72 77 81 86 84 87 89 90 90 88 86 84
62 83 96 88 74 72 81 75 70 74 84 97 81 43 45 50 46 44 47 52 76 68 65 62 60 62 78 67 69 72 71 69 69 71 78 83 84 86 89 87 82 79 78 76
59 75 76 84 78 84 92 83 75 81 94 81 83 62 47 46 49 49 50 65 73 66 58 58 57 62 68 63 69 69 70 68 67 66 69 76 77 82 84 75 68 67 64 58
67 89 84 76 73 84 82 83 82 86 79 85 60 73 52 50 52 46 50 78 73 62 56 55 65 73 61 63 65 64 68 69 67 67 68 72 72 74 75 72 70 65 61 60
72 97 91 89 75 84 90 80 83 78 76 76 72 73 48 46 50 59 80 80 71 58 56 57 59 64 64 70 75 72 72 72 68 73 76 74 74 76 80 80 81 81 80 80
74 92 90 89 78 80 92 83 80 82 79 68 84 63 54 55 61 67 85 75 64 59 57 56 56 57 64 73 79 80 76 74 79 80 79 79 78 77 80 79 84 90 93 92
80 87 89 97 79 93 56 67 66 67 67 70 68 60 52 57 63 86 76 66 61 58 59 58 60 60 62 71 74 77 78 82 86 89 89 86 87 90 91 92 94 92 92 93
62 85 94 93 93 73 69 74 72 72 68 58 60 58 61 70 86 92 73 57 58 62 61 64 62 63 65 67 68 74 79 83 86 90 94 95 92 97 99 99 99 100 98 98
79 76 84 93 83 87 61 71 64 67 88 67 67 72 77 78 85 87 76 64 68 66 69 72 72 74 76 80 82 86 92 92 94 93 94 92 96 98 99 99 98 100 97 100
98 98 95 83 85 79 60 53 72 93 81 70 73 73 78 82 82 82 71 73 72 80 80 78 78 83 83 84 84 95 95 97 95 95 96 97 97 99 99 99 98 99 98 97
78 83 89 90 90 89 57 77 81 70 69 68 72 73 76 80 82 79 78 80 82 87 84 81 85 87 84 84 88 96 99 98 96 97 98 99 99 96 95 91 85 68 54 51
90 82 90 80 73 59 64 62 58 63 71 70 75 72 74 82 86 83 84 82 82 88 89 88 89 90 90 90 92 98 100 94 88 89 92 81 68 54 49 47 47 44 44 46
83 74 83 86 78 76 67 64 68 69 73 70 71 71 76 82 86 84 84 84 84 84 88 82 85 92 94 90 88 88 87 66 56 55 50 47 46 47 45 43 43 45 47 47
80 75 76 81 78 78 75 69 76 80 81 76 74 74 77 85 89 80 86 86 86 86 86 83 84 88 90 85 72 62 53 49 52 52 51 50 49 47 47 41 37 37 42 39
90 83 87 84 79 89 87 85 84 83 81 78 76 76 81 90 88 76 88 83 84 80 78 84 83 85 85 81 54 56 54 51 50 48 50 54 57 62 64 64 64 59 58 57

GFSCGP_sfc_rhum_054.txt.gz
RH
76 96 80 58 44 40 38 44 38 42 43 43 41 42 38 33 31 30 26 24 23 22 21 23 23 22 22 23 24 24 24 26 33 52 86 90 92 90 86 73 62 58 59 58
89 94 52 46 49 49 45 42 42 52 45 43 44 43 35 32 32 31 28 26 24 24 21 22 23 22 21 22 22 24 26 26 28 35 54 67 70 75 72 81 83 76 64 64
95 77 52 52 54 53 51 48 51 47 47 43 44 39 37 32 27 29 26 25 23 24 27 31 31 30 27 27 28 27 27 28 29 30 37 53 60 70 75 79 84 78 78 70
94 74 58 57 54 46 63 54 53 52 52 46 45 32 38 27 33 31 31 31 32 32 32 34 34 35 35 39 43 37 31 30 30 33 35 48 59 66 63 61 69 75 78 84
96 88 85 65 56 48 65 55 52 51 51 54 48 46 32 27 35 34 33 35 36 39 40 39 41 43 41 45 46 40 35 35 32 33 34 38 54 53 53 57 64 63 71 80
91 88 85 89 91 61 48 50 51 52 54 73 52 46 27 27 30 35 33 34 37 39 41 42 43 43 42 46 46 46 40 36 36 38 35 38 43 52 60 65 68 68 72 79
96 82 85 83 95 76 51 62 86 81 89 60 52 53 28 29 30 35 39 37 38 40 43 46 47 48 47 49 48 44 41 40 38 38 37 38 39 46 60 61 64 67 73 83
99 98 81 82 75 73 70 62 73 61 54 42 54 41 29 28 28 29 34 38 39 42 47 50 50 50 49 49 48 46 45 43 41 41 39 38 41 41 41 47 53 55 59 64
94 96 55 52 49 51 63 78 49 64 60 60 35 36 32 30 32 32 37 41 42 44 53 51 48 50 50 52 53 52 48 45 43 44 46 44 44 50 49 47 44 47 52 56
59 92 62 56 50 50 52 46 70 85 70 52 34 31 24 37 36 32 37 41 40 47 52 49 49 51 51 53 52 51 50 51 50 53 53 54 59 60 60 60 59 54 50 52
51 59 79 59 63 60 58 61 59 49 51 34 21 23 24 32 30 34 35 38 40 53 53 49 49 47 53 52 50 49 48 50 51 53 54 58 63 64 67 75 76 73 71 64
54 59 83 74 56 53 51 52 45 67 69 65 50 27 30 26 31 34 36 39 44 54 53 47 47 47 53 51 50 52 50 50 51 52 54 60 62 64 66 70 71 72 74 74
49 69 88 85 65 61 67 58 52 57 72 84 45 30 33 33 32 31 38 39 50 56 49 46 46 48 53 50 50 52 53 52 50 50 53 58 63 67 69 67 67 69 72 73
51 59 64 65 78 70 90 67 57 80 91 54 45 36 34 32 32 35 38 45 57 54 49 48 53 54 50 50 51 50 51 52 53 54 57 61 64 66 65 64 62 60 57 59
51 96 76 61 61 80 72 69 67 87 65 87 40 42 29 30 35 36 39 60 61 52 50 51 55 53 51 53 53 54 57 57 55 59 63 66 68 71 74 74 71 70 71 70
56 92 82 80 62 67 78 61 63 61 56 58 52 53 33 33 34 42 50 64 60 52 50 51 52 52 53 55 59 60 61 61 60 61 65 66 66 74 80 81 82 84 83 83
58 76 80 78 66 65 73 61 59 58 56 54 66 45 36 38 44 50 61 66 57 52 52 51 50 49 52 58 62 63 64 68 68 66 62 64 70 79 86 84 87 91 94 93
59 66 70 76 66 81 50 51 49 53 52 51 49 45 39 43 48 60 65 59 54 52 53 52 50 51 54 56 58 63 72 72 74 78 77 76 82 88 93 96 98 97 96 96
47 59 78 77 70 56 51 60 60 60 54 44 47 43 45 52 61 66 63 53 51 51 50 52 54 56 58 59 64 68 76 78 80 92 91 93 95 96 97 99 99 100 99 98
62 54 64 80 78 59 56 58 52 50 89 52 45 49 57 59 69 67 64 56 56 53 54 56 60 66 65 68 63 72 80 83 89 89 94 95 96 96 98 98 98 100 99 100
77 78 79 68 68 51 40 42 55 94 79 56 57 54 58 62 55 67 58 61 62 60 62 61 60 62 68 65 68 81 89 96 96 96 96 96 97 99 98 100 97 100 100 99
62 68 77 70 74 74 43 60 73 68 51 53 55 56 60 57 62 65 63 68 72 71 68 65 68 69 71 71 79 90 98 98 96 97 99 97 95 92 94 84 70 59 48 48
65 52 54 53 49 42 48 56 49 54 57 56 58 56 58 60 66 66 69 71 73 77 72 70 70 83 86 87 87 96 99 90 89 90 85 72 52 41 39 39 39 33 31 31
67 57 60 66 49 47 45 51 54 62 64 62 59 57 57 60 62 64 65 67 75 78 74 66 75 79 88 84 90 92 84 73 68 57 43 34 33 33 31 30 32 31 30 30
56 64 63 62 55 57 59 62 66 61 61 61 59 58 58 62 65 62 64 67 70 76 78 71 73 76 85 78 79 71 60 56 43 36 36 35 32 29 28 28 27 24 28 28
59 55 64 60 48 52 55 62 63 64 64 62 61 60 58 66 66 65 62 65 71 79 82 77 76 74 76 69 63 58 50 40 37 36 35 34 35 39 41 44 48 58 56 58

GFSCGP_sfc_rhum_057.txt.gz
RH
88 94 91 54 36 28 26 31 24 25 37 37 33 32 24 25 26 26 23 20 18 17 15 17 20 20 21 21 22 21 21 21 22 30 43 74 90 88 82 67 56 51 50 51
95 96 63 40 34 32 35 32 31 34 37 37 30 34 30 28 26 23 23 22 20 20 19 20 21 21 19 19 20 21 22 24 24 26 30 51 68 76 81 82 76 65 55 55
73 74 70 72 46 42 36 39 33 38 44 37 38 39 33 30 26 26 24 21 20 20 21 26 28 27 26 28 32 27 25 27 27 28 28 35 53 61 66 71 76 74 71 70
82 62 78 74 52 38 43 31 34 47 45 35 35 24 36 30 30 28 25 22 24 28 29 32 32 34 34 40 43 36 32 28 27 30 31 33 38 51 55 55 57 61 66 77
94 77 89 61 50 38 39 44 46 48 48 47 43 39 31 28 33 32 29 31 33 34 34 35 38 40 39 45 47 43 35 31 32 30 30 33 37 40 48 50 53 53 58 70
92 87 88 65 68 48 48 48 48 48 50 70 44 34 34 29 28 31 31 32 34 36 38 38 40 40 40 45 46 46 40 35 34 34 34 35 41 39 43 51 53 54 56 63
99 97 88 78 82 62 53 61 90 90 89 60 41 48 29 21 25 29 32 33 36 37 40 42 43 44 44 47 47 43 39 39 36 36 36 34 37 39 42 44 50 53 56 65
100 100 97 90 83 91 74 59 72 67 65 49 43 42 26 23 28 30 33 36 38 39 43 44 44 45 45 47 48 46 43 42 38 38 38 36 36 38 37 38 39 47 50 51
94 98 91 85 80 71 86 79 46 50 44 47 34 30 29 26 28 29 34 37 39 40 46 45 43 44 45 47 48 48 46 45 45 45 44 42 41 45 48 46 43 41 39 42
59 95 67 66 65 57 63 45 70 85 69 47 34 27 24 34 32 29 34 37 38 41 46 44 43 44 46 48 47 46 44 45 45 46 46 48 51 53 54 55 56 58 55 53
45 53 79 55 60 56 54 58 52 49 46 36 23 24 23 28 30 32 35 38 39 46 48 44 42 42 48 47 47 46 45 45 46 46 46 50 53 55 56 57 59 62 65 65
47 54 80 70 50 46 45 44 41 69 60 54 46 34 22 24 26 31 35 37 40 49 49 43 43 43 48 47 46 47 47 46 47 46 47 51 54 58 59 60 61 62 66 66
42 64 86 78 58 52 60 48 42 48 74 82 42 36 24 24 29 30 36 37 44 50 46 43 44 45 47 46 46 46 48 49 48 49 51 54 58 60 62 61 58 56 56 61
50 51 62 65 81 63 80 57 51 79 91 47 38 36 33 30 30 34 35 37 48 50 46 45 50 49 47 47 49 48 50 50 52 54 57 60 63 65 66 66 63 63 62 59
44 92 71 55 53 80 70 63 62 95 62 86 34 33 30 26 32 34 34 46 52 50 46 47 51 48 48 48 49 52 54 55 54 56 60 62 63 66 70 73 75 74 72 70
50 87 78 82 54 58 72 54 56 56 54 48 43 44 28 29 32 39 42 55 57 49 47 48 49 48 50 51 54 56 58 60 59 60 60 61 63 70 76 81 84 84 82 84
53 69 79 74 58 57 68 54 51 52 47 47 59 39 32 37 41 45 50 59 53 49 48 48 48 46 49 53 56 59 61 62 65 66 64 64 68 76 83 83 87 90 92 93
52 58 61 71 60 81 57 44 41 45 44 43 42 38 36 40 43 46 56 54 51 48 49 49 47 49 50 51 53 57 62 67 75 78 74 71 79 91 95 96 98 98 96 96
40 48 66 71 62 48 39 49 54 53 50 39 42 38 39 44 50 53 54 48 47 48 46 48 47 51 56 55 56 60 66 73 84 89 87 89 89 95 95 99 99 100 98 98
52 47 62 69 73 59 56 52 41 44 67 40 37 42 47 51 64 65 57 50 50 49 50 51 52 55 55 56 56 62 68 76 87 89 95 95 94 92 95 97 98 100 96 99
67 66 74 64 66 47 36 51 50 87 84 51 48 49 52 58 56 62 54 54 53 54 56 54 54 56 58 58 61 74 83 93 95 95 95 96 96 96 95 98 94 96 97 93
58 63 63 60 73 71 36 44 65 67 52 51 51 52 55 55 52 58 56 59 62 63 61 57 60 62 62 65 74 86 98 98 97 96 96 92 86 82 80 80 73 62 48 45
56 44 49 47 49 41 45 50 50 50 54 57 59 54 56 56 55 58 61 62 63 66 66 64 64 75 76 75 81 96 99 94 88 84 80 70 56 44 40 44 43 34 30 30
48 41 52 59 42 39 43 43 47 54 61 62 59 57 54 57 54 57 58 62 63 69 66 61 68 77 84 82 89 92 86 79 71 62 48 35 32 31 30 31 37 34 28 27
46 52 53 49 42 48 49 47 53 55 55 56 55 56 56 56 57 57 58 60 61 67 66 69 66 71 77 78 82 79 69 64 54 38 33 33 32 30 30 32 31 25 36 39
43 50 56 52 40 41 48 54 56 58 59 58 59 57 55 57 60 57 58 56 60 65 72 76 73 74 73 73 74 69 62 54 38 36 36 33 35 36 40 44 52 60 58 58

GFSCGP_sfc_rhum_060.txt.gz
RH
70 88 89 74 59 46 42 49 50 35 37 40 43 44 35 30 31 34 34 30 27 25 23 24 28 28 28 28 31 32 32 31 34 40 57 93 96 97 94 82 80 75 68 76
86 91 65 54 48 46 38 40 42 33 41 43 41 39 32 30 32 32 34 31 28 27 28 28 30 30 28 29 34 34 33 34 34 36 43 68 95 95 90 92 81 83 88 77
81 67 58 57 50 46 42 47 37 43 47 44 44 45 40 35 35 32 34 33 29 28 29 34 38 38 42 52 52 44 40 38 38 42 45 47 72 92 95 95 91 75 78 87
85 71 71 80 69 42 49 36 38 47 57 60 44 46 42 40 36 33 33 32 32 39 41 41 45 49 53 57 58 55 44 41 37 40 45 50 54 66 84 88 88 88 89 91
94 85 81 94 72 46 42 39 50 54 59 61 54 68 60 38 41 38 36 41 45 46 44 47 51 53 54 61 65 61 56 47 44 46 44 50 53 56 58 67 75 79 82 91
93 75 80 82 81 76 46 55 56 58 63 92 60 50 54 42 38 39 38 43 45 49 53 52 53 53 56 62 63 63 57 51 49 47 48 48 52 56 57 60 74 78 79 84
97 96 86 90 87 66 58 72 90 96 97 88 48 58 54 32 35 38 42 44 48 51 57 57 59 59 60 63 64 57 57 56 52 52 54 52 52 56 59 59 66 70 77 83
99 100 97 92 83 85 68 68 92 79 94 74 49 67 41 34 39 41 41 46 47 53 60 59 61 61 62 62 64 63 61 59 57 59 60 56 57 64 63 64 63 64 64 64
99 99 94 88 77 78 87 97 59 71 56 84 56 43 35 40 42 40 44 45 51 55 61 59 61 59 61 64 63 63 60 60 60 62 64 67 70 72 75 75 76 80 77 67
70 98 96 91 78 78 78 59 80 96 78 74 52 49 44 43 42 38 49 52 52 51 58 57 57 57 61 64 63 61 58 59 60 61 63 66 72 73 76 79 81 81 83 79
55 75 97 90 97 97 92 96 73 68 66 75 56 48 38 35 38 40 47 48 50 58 61 57 56 55 61 61 63 62 60 60 61 61 63 72 76 77 75 75 77 81 83 84
55 70 95 76 52 52 62 58 63 96 78 79 74 59 30 32 39 43 46 44 49 58 59 55 56 56 62 62 62 62 61 63 63 64 68 73 74 76 79 78 74 70 72 74
53 80 95 87 68 60 71 56 52 67 87 90 85 62 31 35 38 37 43 46 55 58 54 54 56 58 60 61 60 62 65 67 67 68 72 75 79 82 84 81 76 73 67 62
56 63 79 91 87 78 86 67 61 87 94 79 67 52 41 38 39 39 44 48 60 58 52 54 62 62 60 59 63 66 70 69 69 71 75 78 82 84 85 85 79 71 68 68
61 88 84 67 67 95 88 72 69 93 79 80 58 47 41 37 39 44 43 57 59 57 53 56 62 64 62 64 67 69 73 73 71 73 76 79 81 79 77 78 85 79 81 78
64 90 89 89 58 66 84 64 66 67 66 62 54 56 41 41 42 48 53 61 64 57 53 54 56 62 62 70 71 69 75 77 76 76 77 77 82 77 79 87 88 89 90 91
68 87 92 90 70 69 83 64 60 65 58 59 71 52 43 44 48 53 62 65 60 56 54 54 57 58 64 71 70 79 80 79 80 73 70 79 79 85 94 93 93 94 96 96
62 73 82 93 82 96 68 53 49 54 53 51 50 47 42 52 55 59 67 68 60 55 55 55 59 61 65 66 70 74 78 74 82 81 77 77 87 96 97 98 98 97 97 97
51 62 78 93 91 63 60 54 59 58 57 48 52 47 46 55 66 69 65 56 58 58 57 61 62 66 70 71 71 78 83 76 82 87 86 86 88 96 97 98 98 100 98 98
57 55 75 86 89 84 72 55 48 51 78 46 47 48 57 63 84 89 64 58 58 58 59 63 65 67 71 72 73 78 75 77 89 93 89 86 88 95 97 97 97 98 96 99
78 76 86 76 83 67 63 58 54 87 86 63 51 61 63 74 80 77 63 64 62 64 65 65 68 72 73 75 80 86 91 93 93 91 91 96 93 95 93 97 95 95 96 95
68 77 78 75 86 87 51 53 72 73 65 60 64 64 67 67 64 68 65 69 70 72 69 66 74 76 81 83 85 94 98 98 97 95 95 92 88 82 91 93 94 90 82 71
69 59 60 62 68 54 57 68 64 63 68 73 67 69 68 69 68 68 72 73 74 76 75 74 79 85 80 78 84 97 100 97 93 90 90 89 84 72 67 63 57 50 45 46
56 50 65 69 59 53 60 58 63 69 78 76 70 68 67 66 67 69 70 74 76 79 78 75 78 81 83 79 88 93 92 86 82 75 74 50 44 43 44 44 49 48 43 40
62 58 63 62 56 67 57 59 66 67 67 67 66 68 69 68 67 66 69 74 75 80 77 69 74 81 81 80 89 86 81 80 84 61 45 44 44 42 48 68 72 48 67 67
60 68 76 70 56 53 65 72 65 70 72 70 74 74 69 68 67 68 72 71 75 80 80 77 75 77 80 81 84 80 73 81 59 48 49 46 44 44 56 66 77 61 61 58

GFSCGP_sfc_rhum_063.txt.gz
RH
78 89 91 72 70 59 70 66 58 53 40 46 46 48 41 38 40 38 36 35 32 29 27 32 32 33 30 32 35 38 37 38 41 64 95 97 96 97 98 93 84 90 91 85
94 90 72 63 63 64 54 64 63 48 41 43 47 54 46 42 37 35 35 37 35 32 32 36 33 32 46 57 54 48 44 41 41 47 50 86 97 96 86 93 92 90 91 95
86 72 63 66 67 67 64 56 57 55 52 50 48 52 47 39 36 35 35 38 35 34 40 46 48 52 55 59 61 55 48 45 42 42 45 52 72 95 98 97 97 94 92 92
84 73 70 71 66 61 73 43 45 54 62 70 45 60 47 43 42 35 38 39 36 48 50 50 52 57 61 66 64 62 59 52 43 46 46 50 57 61 82 95 96 96 93 91
96 87 89 84 74 67 58 46 56 60 61 63 60 66 51 50 47 42 38 36 42 52 54 55 54 56 61 62 67 66 61 56 52 49 50 54 56 63 65 65 72 86 95 95
94 77 83 83 80 82 73 56 64 68 74 93 68 62 54 55 43 44 48 52 53 59 63 61 59 60 64 65 65 63 59 57 56 57 58 56 57 58 63 64 67 71 83 89
97 96 85 86 82 79 77 75 97 95 96 92 54 66 51 41 42 44 50 52 56 60 64 66 65 64 65 70 68 62 64 62 61 63 63 62 65 65 68 72 73 72 77 84
91 100 96 89 88 92 83 69 90 88 98 90 54 71 49 38 41 42 44 51 56 65 67 64 64 68 69 69 68 66 65 66 65 68 71 75 78 81 81 83 86 89 89 88
91 94 91 87 88 84 91 90 64 73 73 88 70 50 42 50 53 52 55 54 56 66 67 63 65 67 70 71 69 67 66 66 65 67 72 79 81 82 87 88 89 91 90 76
89 97 92 90 91 81 84 66 78 93 70 81 74 62 52 57 53 48 51 57 61 65 67 64 65 65 71 69 70 66 65 66 65 67 76 79 82 79 80 79 82 82 86 88
70 81 98 93 98 96 86 92 81 75 76 72 66 56 38 45 43 47 53 56 59 65 68 64 63 62 70 69 70 68 68 67 68 71 77 81 82 80 80 79 77 76 77 78
60 79 99 98 77 74 82 81 70 90 82 80 74 64 36 40 40 44 53 51 57 68 64 63 62 64 70 70 68 70 70 71 73 75 79 82 82 83 85 84 81 78 74 70
58 84 97 97 76 73 94 82 72 68 87 89 83 62 40 50 49 47 51 52 64 65 61 61 64 67 70 70 70 74 74 76 76 77 81 84 87 89 92 90 84 80 76 73
60 72 78 86 81 80 87 74 64 77 89 73 76 59 54 50 46 44 49 55 68 61 58 62 68 71 68 68 71 76 78 77 78 78 82 88 92 92 93 93 90 87 79 75
67 85 81 75 79 90 86 73 75 84 72 78 59 49 42 43 43 43 50 65 65 59 57 62 67 69 71 74 78 80 81 78 78 80 85 91 90 77 82 87 93 92 93 85
71 93 87 89 68 72 78 69 72 70 67 72 69 62 40 36 46 50 56 66 68 60 56 59 61 64 72 81 81 79 83 85 82 83 87 87 81 82 87 88 89 90 92 93
77 88 94 92 72 72 77 71 72 73 69 63 76 57 49 48 52 58 68 70 68 60 58 59 60 66 75 79 80 88 89 86 83 76 77 82 88 94 96 96 94 95 97 97
78 81 89 94 85 94 51 58 56 62 62 63 58 52 47 52 58 66 74 74 64 58 58 58 62 67 71 76 81 84 88 81 81 83 81 85 91 96 97 97 97 97 94 96
63 78 88 94 96 64 73 60 61 66 66 57 57 51 47 61 68 79 68 62 60 60 61 64 68 72 77 77 83 87 86 81 86 86 87 88 88 96 97 99 99 100 97 98
64 66 80 91 94 90 72 61 53 59 86 57 52 52 52 69 90 93 66 61 62 61 63 66 68 72 77 80 84 87 80 86 93 88 87 88 91 96 97 97 95 98 94 95
82 79 88 73 92 72 62 64 57 89 79 65 50 55 70 80 78 81 66 65 64 66 68 69 72 77 80 84 88 92 88 94 92 89 91 92 92 94 93 95 94 98 97 96
72 76 80 79 89 88 63 60 75 78 73 67 72 71 73 72 76 72 68 70 74 76 74 73 81 84 90 91 92 90 96 96 93 93 94 91 92 87 88 95 97 94 87 79
72 64 57 73 75 56 58 71 75 69 68 69 67 65 67 68 68 71 73 73 76 78 78 79 84 91 93 91 87 97 99 97 94 93 92 89 90 95 94 82 72 66 64 58
71 58 65 65 65 63 70 74 72 77 81 80 75 70 65 65 65 69 73 77 80 83 81 82 79 83 90 82 90 93 96 91 87 86 91 93 80 63 57 49 52 49 47 44
69 64 68 71 61 67 66 65 72 72 71 72 72 74 70 70 71 71 72 78 78 81 81 81 82 83 82 79 88 88 88 84 85 87 72 52 50 51 65 72 52 56 68 56
72 72 80 83 67 64 73 73 73 73 74 74 77 79 76 75 74 74 72 72 76 84 85 84 77 84 80 78 84 86 82 82 92 70 53 55 53 50 64 75 79 59 61 56

GFSCGP_sfc_rhum_066.txt.gz
RH
94 93 91 79 72 70 68 64 67 62 47 54 57 54 44 40 46 44 44 39 35 33 34 37 38 37 38 51 47 44 41 42 71 96 97 97 97 96 96 97 92 93 94 89
99 91 71 69 68 67 67 69 69 53 47 49 51 51 45 42 45 40 39 38 36 37 39 39 40 57 57 60 58 54 50 44 43 51 58 91 96 97 96 95 95 95 96 96
88 79 65 67 76 76 73 70 68 58 55 52 58 63 55 49 46 38 38 40 38 31 41 52 59 60 63 67 68 62 61 53 47 45 48 55 67 96 98 98 98 96 94 94
84 71 72 78 79 71 81 51 51 55 65 78 51 79 49 49 46 43 42 40 39 45 53 56 59 63 63 67 70 66 63 58 51 53 50 50 56 59 81 83 92 93 94 95
97 81 81 82 74 60 65 50 52 62 68 66 68 68 55 51 54 47 45 42 40 58 61 62 63 64 66 67 70 68 62 60 60 59 58 60 58 64 65 65 61 63 75 90
92 81 87 86 86 80 76 63 66 72 77 92 69 68 62 54 47 41 46 44 48 60 65 66 68 68 69 69 69 68 64 64 64 64 66 67 65 66 68 72 75 76 80 91
96 94 87 87 82 81 80 75 97 95 98 93 68 73 54 44 44 43 51 62 68 71 73 71 70 71 73 73 70 64 68 69 68 72 79 82 85 83 87 89 93 91 91 93
94 99 95 89 89 87 88 71 91 90 95 87 62 82 57 48 44 42 47 54 66 73 74 71 70 71 74 71 71 69 71 70 69 73 82 86 87 92 94 94 95 96 95 95
95 98 90 84 82 89 94 95 69 75 81 90 72 60 45 56 55 54 56 62 68 73 72 70 72 72 75 73 72 71 71 70 71 79 85 89 87 86 88 87 88 93 94 81
87 98 84 86 84 86 91 70 81 92 78 85 78 68 59 68 60 58 61 64 65 72 72 71 72 74 77 73 72 71 68 69 73 78 82 84 84 83 82 79 79 77 82 80
80 83 94 90 96 97 96 88 83 74 74 75 73 64 49 54 49 54 55 57 61 73 72 71 69 72 75 75 72 73 71 72 76 80 83 86 86 84 83 83 83 79 74 72
74 84 97 89 82 77 82 83 66 90 82 83 72 59 41 46 48 49 52 54 59 70 69 68 67 74 76 74 74 75 75 77 81 81 84 87 87 88 90 88 86 82 79 76
62 89 98 97 82 81 97 91 83 76 86 90 81 51 44 48 45 48 55 56 64 70 67 69 70 76 76 74 77 78 79 82 80 81 86 90 93 94 96 95 91 86 84 82
62 77 79 87 79 85 90 92 80 84 93 86 83 57 50 53 53 54 53 54 69 65 62 67 75 79 79 77 81 83 83 82 81 84 90 95 95 83 87 97 97 97 94 92
62 85 84 82 82 86 81 88 80 85 77 85 66 52 45 50 49 45 48 61 73 65 63 65 72 78 77 82 87 85 85 84 84 88 93 95 85 82 84 86 90 88 89 89
76 92 86 88 77 72 75 76 76 70 65 68 69 63 44 42 48 51 56 71 70 64 61 62 66 70 76 84 86 84 90 88 85 91 94 91 82 85 88 88 92 94 92 92
77 89 91 87 77 79 77 71 73 74 69 61 72 56 50 49 53 58 66 73 72 65 60 62 65 70 78 83 84 91 92 89 88 84 80 83 87 91 93 90 92 95 96 93
82 82 89 96 82 84 51 62 59 65 68 65 63 54 50 53 57 60 69 74 74 61 59 61 64 70 77 83 87 92 92 89 82 83 84 86 92 96 94 95 97 95 93 94
69 83 90 95 96 68 68 64 66 71 67 64 62 58 53 61 72 82 78 75 65 62 61 63 67 75 81 85 89 92 93 90 86 87 89 88 90 96 96 98 99 100 97 95
67 72 81 94 94 92 70 66 57 61 83 63 57 59 64 75 86 81 68 64 63 62 64 67 71 77 81 88 90 91 92 88 89 87 88 90 92 96 96 96 97 97 94 99
78 78 86 88 94 80 56 69 62 86 74 73 58 56 72 81 76 81 68 66 65 66 67 67 72 79 80 87 89 92 92 94 90 88 88 91 92 94 93 96 95 99 98 98
82 85 84 81 87 90 68 70 80 76 78 75 74 75 75 78 80 72 68 70 72 74 74 74 80 82 87 89 91 95 96 94 91 91 94 93 93 89 90 94 96 92 87 84
78 63 72 74 74 55 60 64 75 73 66 68 71 74 73 71 75 75 74 73 75 77 79 80 82 91 94 94 92 95 98 93 93 94 93 89 86 96 96 97 96 95 88 68
76 66 68 68 64 61 70 76 75 77 81 80 69 69 66 64 65 68 73 74 76 80 80 82 86 88 96 95 95 92 96 90 90 92 87 87 95 97 94 73 63 62 57 53
72 70 70 72 63 68 69 73 76 76 75 74 72 74 72 68 69 68 72 76 78 82 84 83 83 87 86 91 89 92 92 88 89 88 95 96 87 76 60 59 50 50 59 45
78 75 80 79 64 61 63 71 76 77 77 75 76 80 80 81 78 78 76 78 81 84 87 86 84 85 86 81 87 88 89 87 87 87 87 69 60 60 71 84 84 57 63 55

GFSCGP_sfc_rhum_069.txt.gz
RH
95 97 84 81 85 77 69 72 68 62 49 56 58 53 46 42 43 47 49 46 42 36 40 42 41 44 52 53 48 47 45 45 88 97 97 97 97 96 97 97 94 95 94 90
98 97 66 73 72 72 70 73 70 57 52 54 56 57 47 43 46 41 43 46 43 38 40 40 53 60 60 63 59 54 51 47 47 60 76 94 97 97 96 96 95 95 96 96
97 85 68 71 81 77 82 74 69 62 53 52 56 61 55 51 56 45 40 43 43 40 41 50 58 64 67 70 71 66 64 54 50 48 52 57 64 97 97 97 98 96 96 96
91 69 74 82 85 78 86 60 56 59 63 76 54 86 57 58 53 50 46 44 43 38 51 57 62 67 67 72 72 68 65 63 57 56 53 51 55 59 74 76 83 70 81 92
97 80 83 84 80 65 73 59 57 62 68 67 65 75 64 57 65 49 46 49 45 48 58 63 67 68 71 69 70 68 65 65 65 66 61 62 59 63 64 64 62 64 73 90
90 87 83 87 84 68 68 64 68 76 75 92 70 71 71 55 49 53 48 50 44 63 69 69 74 73 74 75 73 72 69 73 74 77 77 74 72 69 73 82 85 86 89 92
90 93 90 85 84 83 74 77 97 97 97 94 73 72 54 47 46 45 44 49 47 70 77 80 79 78 77 76 73 70 73 74 76 84 88 90 91 91 91 94 96 94 95 96
99 99 93 90 85 86 83 70 92 89 96 90 71 84 62 50 49 45 45 50 66 79 82 79 77 78 78 74 74 75 74 73 78 86 90 91 93 96 96 95 96 97 97 97
94 99 87 86 88 87 91 91 69 80 85 92 75 64 46 52 51 58 65 73 76 77 81 77 77 78 79 78 75 76 74 76 84 87 88 89 87 85 84 81 81 88 90 78
81 98 86 91 76 88 91 82 85 92 86 92 80 74 54 61 57 61 68 77 77 75 76 77 79 80 80 78 77 75 73 78 84 87 87 88 88 85 84 84 84 80 77 74
78 85 93 91 94 83 96 94 86 79 74 78 76 62 50 45 52 59 60 64 76 80 77 77 79 84 80 79 78 77 76 79 83 84 87 89 89 87 87 87 86 83 79 77
79 85 92 95 80 74 80 84 78 92 84 87 75 64 42 48 53 55 62 61 65 75 77 78 74 85 85 82 80 79 81 84 85 85 89 91 90 92 93 92 89 85 85 82
72 88 98 97 83 83 97 88 79 78 84 90 83 63 45 61 59 57 60 60 59 71 71 73 76 86 84 82 83 84 86 87 86 86 90 94 95 96 97 97 96 94 92 92
61 81 80 86 77 87 99 96 89 82 92 88 80 62 48 55 54 58 58 60 64 68 68 71 74 80 79 79 83 86 88 86 86 89 94 95 93 85 88 96 97 96 95 95
62 86 83 83 84 85 87 86 87 94 75 84 64 66 44 41 52 54 59 61 74 71 68 70 73 76 77 80 85 85 86 87 87 92 95 94 85 82 84 86 87 87 87 87
76 91 83 84 78 74 75 77 89 86 81 81 71 66 42 40 45 51 53 63 72 70 67 66 69 74 76 86 88 85 90 89 89 93 95 92 84 86 88 90 93 90 90 90
77 88 87 81 81 71 69 69 80 84 71 68 78 58 50 47 50 53 58 68 70 70 65 63 67 72 78 86 87 92 91 89 90 91 91 84 86 90 91 90 89 91 93 92
80 81 87 97 79 84 55 64 61 68 72 67 64 56 49 47 47 54 63 70 74 71 64 62 65 71 79 84 87 92 91 88 88 90 86 86 89 92 92 94 93 93 92 92
71 84 93 94 95 72 67 72 69 71 64 61 64 58 53 61 74 80 75 80 75 71 65 65 67 76 84 88 93 94 95 92 90 91 90 90 92 94 96 98 98 100 95 94
73 75 82 95 95 90 64 71 61 65 82 68 65 65 58 76 84 78 76 72 68 64 64 68 73 78 86 92 93 95 95 94 93 88 88 90 92 93 96 97 96 97 94 99
82 81 90 90 96 79 60 70 66 82 70 80 68 64 77 83 74 73 71 68 67 67 66 70 74 79 82 91 90 94 96 96 88 88 89 92 93 93 92 96 92 100 99 99
84 86 93 89 93 88 63 76 75 68 80 80 76 68 76 82 82 75 70 72 72 73 72 72 78 81 85 91 91 95 96 94 90 89 93 94 94 87 89 92 98 96 93 93
80 72 79 75 75 56 60 71 74 77 73 71 78 82 78 84 81 76 75 75 75 75 78 79 81 85 91 93 92 95 95 92 90 92 94 92 90 91 85 95 95 94 89 83
76 69 72 70 69 64 63 76 79 80 81 82 68 71 74 71 69 73 75 73 74 76 78 79 82 87 90 95 93 92 96 89 90 91 89 88 90 96 98 97 92 94 84 78
70 71 72 76 68 68 63 76 78 82 80 77 74 72 69 67 71 74 85 90 88 80 82 82 81 85 88 94 96 95 91 88 91 89 89 88 88 93 97 82 65 62 58 55
79 74 78 77 63 62 62 75 76 81 80 77 76 75 77 75 75 77 75 74 80 84 87 85 81 85 86 88 92 89 90 88 91 94 92 94 97 86 69 70 78 56 55 62

GFSCGP_sfc_rhum_072.txt.gz
RH
82 98 91 89 86 81 81 82 84 68 65 66 78 72 52 83 84 66 50 47 44 43 42 45 46 47 52 52 49 52 76 54 95 98 98 98 98 98 98 98 95 95 94 93
97 100 76 77 78 74 74 81 83 64 59 62 62 69 62 59 59 48 38 38 43 46 44 46 51 61 56 58 58 55 52 48 53 79 93 96 97 97 96 96 96 95 95 95
90 90 70 76 85 80 84 84 81 72 62 55 64 75 80 59 56 44 43 45 46 46 41 48 62 65 68 69 70 66 62 57 56 52 54 58 64 94 97 97 98 96 96 97
93 81 75 80 86 78 89 67 60 62 71 87 58 91 68 56 48 44 38 50 47 47 45 51 61 71 74 77 73 68 65 64 61 61 55 52 56 59 72 76 75 66 72 90
97 93 91 84 82 67 75 62 62 66 69 75 69 79 68 53 56 44 38 49 50 46 48 57 66 72 77 74 74 71 68 68 68 67 62 63 61 66 70 70 72 77 88 90
94 76 84 87 80 72 64 67 67 75 73 92 72 75 74 59 49 47 44 47 45 44 57 69 79 79 79 80 76 76 76 79 81 83 82 77 73 71 76 86 91 94 95 95
97 96 90 81 86 82 68 79 98 98 97 94 73 75 57 50 44 41 38 44 50 56 73 83 87 84 81 80 78 76 74 79 88 92 94 94 93 93 94 96 96 95 96 97
100 99 93 92 83 86 74 70 92 90 96 91 73 85 59 48 48 43 42 44 51 73 84 84 85 85 82 78 81 80 78 84 90 91 90 90 91 92 91 91 96 96 97 97
97 100 86 88 90 84 90 93 69 84 87 92 80 66 46 45 46 51 49 63 63 81 86 87 86 86 83 82 82 79 79 89 91 91 89 89 87 85 84 83 81 83 80 68
83 98 87 83 82 90 86 72 85 92 88 93 82 76 60 47 45 50 60 77 81 87 87 86 86 87 85 81 83 79 78 85 90 90 89 89 90 87 87 86 86 83 80 78
78 83 96 82 91 94 96 96 87 79 77 82 83 64 54 47 41 46 59 77 87 84 86 87 87 88 85 84 83 81 82 85 88 88 91 92 92 91 90 91 90 87 85 84
78 82 95 85 80 85 86 90 81 92 88 90 80 70 43 48 50 55 66 72 80 84 84 86 88 91 89 85 85 84 87 88 89 90 93 95 95 94 96 96 94 91 92 91
73 89 97 95 84 89 96 86 86 80 86 91 88 71 41 56 70 68 69 72 75 81 82 84 86 92 91 86 86 88 90 91 92 92 94 95 96 96 98 98 97 96 95 96
65 84 81 88 77 89 98 87 84 88 96 90 81 70 55 50 55 63 66 68 72 81 78 80 81 89 90 86 86 88 91 91 91 93 94 95 94 88 87 96 87 83 90 95
65 87 83 80 86 90 91 86 87 98 81 90 74 67 49 47 46 53 62 65 75 78 77 76 77 83 85 83 86 87 88 88 91 94 95 95 88 82 84 86 87 86 85 82
74 88 80 83 77 83 81 83 89 86 82 78 74 79 49 46 54 56 59 65 74 75 74 72 72 76 81 83 86 86 88 88 88 91 93 92 85 86 89 91 90 89 89 90
77 87 86 84 81 74 74 72 80 85 79 80 93 66 57 49 50 52 62 67 69 72 72 70 72 75 77 81 83 88 90 89 91 91 91 89 86 89 90 88 88 91 93 92
82 80 83 93 80 88 55 60 61 72 77 75 70 60 55 51 46 52 59 65 67 70 71 68 68 71 80 86 90 92 91 91 92 93 94 88 89 92 92 91 92 92 91 89
73 84 93 95 95 72 66 74 70 69 65 65 68 62 59 56 76 66 60 62 60 74 73 70 70 74 81 85 90 92 94 92 93 95 93 90 90 93 95 98 97 99 93 91
76 77 82 96 95 84 54 77 64 66 80 68 70 67 69 75 77 69 80 80 78 73 68 69 73 81 88 93 93 95 96 96 96 94 89 89 92 92 97 96 94 94 92 99
88 83 88 88 97 84 61 62 68 83 71 80 80 69 68 82 70 73 78 74 73 72 70 73 76 80 84 93 94 96 96 97 92 90 89 92 92 93 92 95 94 99 98 100
87 90 91 90 92 94 57 78 80 66 81 81 79 76 76 82 86 78 75 75 74 73 75 74 79 81 88 93 93 95 97 94 94 89 93 95 94 88 91 93 99 99 98 95
84 75 83 80 79 58 60 71 73 79 81 80 82 84 80 86 84 78 78 78 74 72 78 79 81 84 88 92 89 93 94 96 94 92 95 94 91 89 89 94 98 96 94 94
78 72 74 74 67 65 61 66 74 79 80 83 70 79 78 78 79 73 73 73 75 78 81 80 82 85 90 93 92 90 95 95 91 91 91 92 94 94 92 95 90 93 94 88
71 74 76 77 68 69 62 69 77 82 82 82 81 74 75 71 74 78 83 84 84 86 88 86 85 81 84 89 89 88 93 93 92 90 91 92 91 93 97 98 95 88 86 76
76 73 74 73 61 62 63 73 79 83 82 80 79 80 76 75 78 78 78 80 83 85 84 83 80 82 85 88 90 91 92 91 91 94 93 89 88 92 92 96 80 66 60 56

GFSCGP_sfc_rhum_075.txt.gz
RH
80 98 95 84 74 67 76 74 70 75 73 75 81 73 67 68 76 69 56 56 50 42 34 33 33 33 39 41 44 56 79 78 82 85 85 86 83 86 85 83 76 74 74 75
91 100 80 77 71 71 70 78 74 60 70 65 77 75 60 73 69 71 64 59 48 40 35 34 36 40 40 43 44 45 51 47 65 82 82 83 84 83 81 84 81 81 82 84
84 92 81 77 80 76 75 74 75 68 73 58 67 72 74 65 65 69 65 57 48 37 36 34 40 45 52 51 54 50 48 47 47 46 49 53 58 78 85 87 87 72 75 87
84 88 89 82 82 71 81 65 64 69 76 86 62 78 76 67 67 69 63 51 47 39 40 38 46 53 56 62 66 61 59 57 55 53 47 44 48 51 61 62 60 56 70 75
98 94 93 85 79 66 74 61 62 65 67 64 63 73 62 61 70 62 62 52 42 41 40 39 50 60 64 68 67 64 63 63 63 60 56 54 53 55 58 60 64 67 77 77
93 82 90 76 80 66 62 66 68 74 70 92 69 71 67 54 59 53 45 41 38 40 39 45 60 70 69 70 70 70 68 72 73 72 71 66 64 60 63 72 74 76 77 78
96 95 91 80 83 75 65 75 95 95 97 86 67 74 57 47 41 38 36 36 36 43 41 56 72 71 71 72 73 70 70 78 77 77 79 79 80 79 81 82 80 78 78 80
97 100 95 84 81 80 71 68 87 88 91 82 70 78 54 44 42 42 38 36 40 47 50 62 69 72 71 71 70 68 72 79 76 75 75 75 75 74 73 73 76 73 76 75
98 100 88 89 87 79 83 91 64 81 79 81 68 60 43 40 40 42 43 46 49 49 63 70 75 72 69 68 69 67 73 78 76 75 72 72 70 71 71 69 67 66 65 59
84 99 86 86 81 84 77 66 83 89 87 84 68 64 49 41 36 36 38 50 58 70 79 78 75 73 70 68 70 68 69 73 75 73 70 72 72 72 72 70 70 69 67 67
71 82 97 77 88 90 89 88 81 72 70 70 72 54 47 42 37 40 40 49 65 76 77 76 76 74 72 71 69 68 71 73 74 74 74 75 76 75 74 74 73 72 71 72
70 75 97 97 78 82 86 85 73 89 86 81 69 61 36 38 47 48 53 61 73 75 78 77 77 77 74 72 70 69 72 72 73 75 76 79 79 79 80 81 80 77 78 77
72 87 96 92 76 81 93 90 77 77 82 91 81 65 39 46 50 57 59 66 75 76 78 78 79 78 75 73 72 72 74 74 76 77 78 81 83 82 84 86 85 82 80 79
63 80 77 85 76 86 95 93 86 88 98 83 74 65 49 47 47 45 56 62 72 76 76 76 79 80 77 74 73 74 76 76 78 79 80 83 82 78 80 84 81 79 79 77
67 88 83 73 72 90 91 88 90 92 80 85 69 68 52 48 46 43 44 60 69 78 78 75 75 78 79 76 75 76 78 79 78 81 83 85 79 77 79 81 82 82 78 76
72 89 86 86 82 83 85 84 89 87 82 74 70 72 49 49 47 48 48 60 68 72 74 73 72 73 77 75 75 78 81 80 81 83 85 84 81 81 84 86 86 86 86 86
74 83 86 86 79 73 74 69 78 85 81 76 85 64 60 61 60 55 51 60 60 63 66 70 68 67 71 72 74 77 78 80 82 82 83 82 82 84 88 86 86 88 90 88
79 77 79 89 75 87 56 58 61 68 66 75 75 67 62 61 57 53 54 58 62 65 68 68 66 68 70 73 77 79 81 82 83 85 85 84 84 88 89 88 90 90 87 83
70 81 90 91 92 68 61 69 70 70 62 64 75 68 65 61 60 59 54 54 57 60 65 66 65 68 73 76 80 82 84 84 86 87 88 85 85 90 91 93 94 99 90 87
77 76 79 93 95 79 47 74 61 63 77 59 66 69 70 68 77 62 62 67 70 66 69 68 70 74 76 81 81 84 86 86 88 87 86 84 87 89 93 92 92 94 86 90
89 84 90 80 87 83 62 58 65 82 65 70 79 73 72 81 66 70 77 72 72 69 68 71 72 75 78 86 86 88 90 91 86 86 86 88 90 91 91 94 90 93 94 91
88 93 94 91 96 92 57 76 77 61 76 79 79 73 71 75 83 78 74 74 74 75 75 74 76 80 86 88 87 91 93 89 88 87 90 92 92 87 90 91 90 94 88 79
86 73 82 78 78 59 57 68 67 73 78 77 80 80 72 83 80 76 76 75 74 73 74 76 76 81 86 87 85 89 90 88 89 89 92 93 89 87 88 88 87 88 85 79
78 71 71 71 63 64 59 59 66 72 78 81 75 73 80 80 78 76 73 74 72 75 76 74 76 77 83 87 87 83 86 87 87 88 90 90 91 91 86 84 84 84 83 79
70 71 72 74 66 67 62 66 66 74 81 81 81 76 70 72 73 73 75 73 72 74 78 77 77 75 76 79 81 80 84 87 89 87 88 91 90 90 89 86 84 78 73 67
72 70 73 72 58 60 59 73 76 82 83 81 79 80 75 75 75 77 78 77 82 88 90 91 89 90 89 88 84 82 84 87 88 90 89 90 90 91 88 90 90 81 76 70

GFSCGP_sfc_rhum_078.txt.gz
RH
88 96 90 54 40 34 45 52 58 52 66 58 57 54 48 41 40 37 32 31 32 36 31 28 24 24 45 46 53 60 63 60 58 62 62 63 64 64 62 59 61 59 56 55
95 100 74 52 48 43 44 49 48 50 53 52 52 53 42 38 43 42 37 29 32 35 32 28 26 25 28 37 38 45 55 60 62 61 62 62 63 61 58 63 63 63 64 66
90 89 66 58 57 49 45 45 48 47 56 52 51 54 47 40 44 42 38 36 33 33 37 30 25 26 32 31 35 37 43 47 52 62 63 62 63 70 71 71 72 63 64 80
79 80 80 65 52 41 60 43 46 52 53 53 45 40 40 39 49 46 36 34 37 36 35 34 31 29 33 36 47 41 40 40 40 38 38 44 48 51 49 52 52 48 54 59
96 93 95 69 54 43 45 49 46 46 42 50 54 54 33 41 44 41 38 34 36 36 35 32 32 35 40 50 52 47 44 44 46 42 38 36 38 39 41 42 45 48 57 61
89 75 88 55 61 51 48 49 52 53 56 70 45 48 34 37 38 34 32 35 38 37 34 32 31 42 48 56 56 54 50 52 51 50 47 46 47 44 46 52 51 53 56 60
96 96 83 71 66 52 49 52 84 86 86 60 49 55 36 30 31 30 33 34 32 33 34 30 37 47 53 58 58 54 51 55 54 55 54 54 57 56 58 58 56 57 56 60
97 100 95 67 67 63 53 44 62 63 62 46 53 53 34 29 30 31 30 26 29 30 28 30 33 45 51 56 55 51 53 58 56 56 58 57 58 56 55 58 57 54 55 57
90 98 87 71 70 60 66 69 45 61 57 57 41 39 28 24 25 27 28 32 32 28 31 36 35 44 50 52 52 51 54 57 56 56 54 55 54 57 57 57 54 52 52 50
74 96 84 79 75 62 57 46 66 80 77 58 43 40 24 25 23 23 24 26 29 34 36 42 49 50 48 48 50 51 51 53 54 54 52 54 55 55 55 54 55 56 53 55
60 65 95 68 75 61 63 63 59 49 52 44 37 30 24 26 26 31 31 35 36 39 44 49 53 54 52 50 51 49 50 53 53 53 54 54 56 57 55 54 56 57 56 57
56 63 93 96 66 64 63 58 47 67 66 58 47 32 23 25 28 36 34 42 49 48 49 49 53 55 56 54 52 50 50 50 52 54 54 57 59 60 59 59 60 59 60 60
52 68 91 95 67 65 69 62 56 55 68 83 54 33 26 27 32 36 36 40 47 51 55 54 54 53 50 51 51 50 51 50 53 54 55 59 61 60 62 64 65 63 62 61
55 56 59 67 69 60 80 68 65 74 98 56 51 36 32 31 32 31 31 35 42 48 55 54 54 52 50 50 49 49 51 52 56 57 57 60 61 61 63 68 70 69 64 62
52 86 73 55 54 78 75 70 69 96 71 78 44 38 33 28 26 29 31 32 38 47 52 54 55 52 52 51 50 50 52 54 56 59 61 63 62 62 64 67 70 71 71 68
52 86 76 80 63 67 72 58 60 62 60 57 53 53 35 32 33 38 35 35 39 44 50 52 52 52 52 51 52 54 56 58 60 61 63 65 64 66 70 73 76 79 80 78
55 64 73 72 61 61 65 53 54 54 54 56 67 48 38 42 42 44 41 40 38 35 40 49 50 50 49 50 51 53 54 56 60 61 62 65 67 70 76 78 79 83 86 85
54 56 58 67 60 77 42 44 43 46 44 44 51 48 44 44 44 41 41 42 38 36 36 42 46 48 47 47 50 50 54 60 62 64 65 66 71 76 80 84 85 87 85 83
47 50 63 67 62 46 38 53 51 52 42 42 45 45 46 46 52 53 42 35 32 33 36 39 41 44 47 49 51 56 59 61 65 68 69 70 72 78 84 89 92 99 88 85
57 52 54 70 73 56 36 54 47 47 55 48 54 55 54 55 57 43 44 42 39 41 44 48 49 51 50 52 55 59 61 63 66 66 68 69 72 76 85 87 90 92 85 94
67 66 73 63 67 51 39 43 47 57 48 48 57 55 57 60 51 56 58 59 57 53 54 52 53 53 51 56 59 64 64 70 66 69 70 73 75 82 84 90 88 94 98 89
58 63 66 65 72 75 43 54 55 40 49 53 56 56 53 52 58 62 60 61 60 61 60 55 56 59 62 64 64 69 74 73 72 73 78 79 85 86 89 92 91 89 77 66
60 48 48 52 48 41 41 45 43 49 50 53 58 55 52 54 62 60 59 56 55 56 59 62 59 63 66 67 66 74 83 71 70 72 77 81 86 84 86 88 86 86 71 58
56 52 53 53 39 44 40 38 41 44 47 50 56 57 59 58 59 58 56 56 55 55 54 54 56 59 66 66 68 68 76 69 68 71 74 82 88 87 84 79 74 70 64 56
49 56 54 53 48 44 42 43 43 46 51 58 58 57 59 64 68 64 65 64 62 64 66 61 61 66 65 63 68 71 79 76 77 69 74 84 85 87 84 78 78 70 57 52
55 51 57 55 42 43 42 45 56 55 62 61 61 61 66 68 71 73 71 74 76 74 75 74 71 75 81 79 79 78 78 81 77 75 76 81 87 86 80 79 81 79 68 70

GFSCGP_sfc_rhum_084.txt.gz
RH
94 99 99 82 56 45 52 47 54 48 55 65 67 63 56 58 60 58 52 46 40 38 41 37 36 39 63 72 78 82 81 75 66 74 77 88 82 75 74 69 62 61 62 62
97 100 82 64 48 38 38 47 56 65 54 56 59 58 51 42 54 50 47 43 40 35 39 35 36 37 36 77 82 86 79 80 83 81 86 88 83 85 77 75 73 70 74 85
97 94 78 70 64 53 37 40 73 72 58 51 49 55 46 39 38 41 40 39 36 33 38 38 34 35 34 45 65 66 79 81 88 86 88 92 91 91 91 88 87 70 71 85
90 80 87 80 64 50 60 37 42 47 60 74 51 66 45 39 44 41 42 41 41 33 29 37 37 38 36 38 51 46 56 69 68 78 92 90 93 94 76 78 82 71 68 74
95 82 78 65 54 44 54 45 46 52 61 59 62 75 43 38 44 42 39 40 42 40 37 37 40 36 39 57 61 53 52 54 54 56 62 73 59 61 58 58 61 63 71 72
90 70 80 84 54 48 52 55 47 46 54 87 54 57 46 44 38 37 36 36 38 39 36 38 41 40 55 67 64 60 56 56 54 54 53 53 56 58 62 65 66 69 76 77
92 94 77 71 71 55 54 58 91 94 94 84 44 55 51 36 34 33 36 36 36 36 37 41 48 50 61 69 72 64 58 61 61 61 59 61 64 61 64 67 69 69 73 77
97 96 88 71 75 68 59 56 88 72 82 69 48 66 42 33 32 32 33 36 35 35 39 41 47 53 63 71 71 65 62 62 61 63 66 69 69 74 74 72 72 70 72 73
92 95 80 72 73 68 66 79 53 73 61 80 62 45 38 29 31 34 34 35 40 39 37 48 49 50 62 72 70 66 64 63 63 65 65 66 67 68 71 69 69 69 66 56
64 97 83 80 73 64 67 53 70 90 80 63 59 47 42 34 32 30 32 36 37 38 41 42 43 53 60 59 65 62 64 64 64 61 63 62 63 64 64 66 66 67 66 66
60 73 95 76 87 78 75 74 64 59 68 80 65 49 34 37 37 41 45 44 47 42 42 42 44 54 62 60 57 61 63 62 64 63 62 63 64 62 63 66 66 68 68 69
60 74 95 83 67 60 63 77 59 92 75 73 70 59 31 38 40 40 46 46 52 51 49 49 54 62 64 67 62 58 57 58 59 60 61 66 67 66 66 68 69 67 71 70
60 82 98 91 74 65 74 62 58 64 84 82 83 53 31 34 33 40 44 42 48 50 58 58 63 65 65 67 67 66 63 62 62 62 62 66 70 70 71 73 72 70 72 73
66 65 76 94 81 75 80 62 58 78 98 79 75 62 41 36 36 39 40 43 43 52 54 58 65 69 69 65 63 64 64 63 63 63 67 71 72 69 71 73 73 73 73 74
64 85 80 71 54 83 84 68 62 84 72 86 63 51 38 35 36 35 37 37 39 44 54 59 65 68 67 67 65 64 64 68 68 68 70 71 70 70 72 76 79 80 80 78
59 94 88 88 56 60 78 64 60 58 57 66 64 64 45 40 37 39 40 41 39 40 39 55 60 62 64 66 65 63 68 70 71 74 76 74 71 72 76 79 82 86 88 86
65 79 85 87 61 58 75 58 60 57 53 57 70 55 46 47 44 47 47 46 43 44 43 45 58 61 63 64 63 68 70 71 73 75 73 74 74 77 84 82 80 82 92 91
62 67 76 91 78 90 55 44 43 48 45 46 48 49 46 45 49 51 51 51 48 45 46 46 54 58 60 62 64 65 68 73 75 76 74 75 77 82 85 85 84 90 94 93
52 63 76 87 84 60 46 49 53 55 49 36 42 45 50 52 58 62 55 56 60 51 46 46 47 52 61 62 64 65 71 75 78 79 78 78 80 86 85 87 91 99 95 94
58 59 76 85 88 77 64 56 49 55 69 57 57 61 63 62 81 70 67 59 62 60 53 53 54 52 64 67 65 69 73 76 79 77 78 79 82 87 82 87 91 97 95 99
79 74 87 85 88 76 51 50 51 74 75 56 59 61 66 76 66 60 66 65 65 62 63 64 66 68 69 67 68 73 77 81 77 77 78 81 86 86 83 89 94 98 100 97
71 77 80 82 88 91 51 54 60 58 57 55 57 58 66 68 57 61 70 73 73 72 67 66 74 76 73 72 74 80 83 81 80 80 82 86 88 83 89 95 98 96 91 90
71 54 69 59 62 50 49 50 46 47 54 57 60 59 66 67 59 68 68 71 68 73 72 72 76 79 77 75 78 84 90 82 83 85 89 90 88 86 91 98 97 94 87 85
57 51 68 61 46 44 46 44 43 43 46 48 51 53 62 70 63 67 64 65 66 66 67 67 73 80 79 76 76 86 88 83 83 80 80 80 84 90 93 91 91 91 87 83
75 66 65 65 55 64 52 52 55 56 54 52 54 57 64 68 70 70 70 65 67 72 68 67 69 73 78 77 78 80 80 82 84 80 81 84 85 88 94 91 88 89 80 78
68 65 80 96 60 62 66 53 52 57 63 61 58 60 68 80 74 66 72 77 81 87 88 81 74 80 80 78 75 78 76 80 83 85 87 88 92 92 92 92 89 81 79 76

GFSCGP_sfc_rhum_087.txt.gz
RH
95 98 99 93 90 80 61 64 62 62 69 78 80 74 69 64 66 66 63 59 55 51 50 38 39 54 73 88 89 87 87 86 83 94 96 95 91 82 77 74 68 66 67 70
98 100 83 72 68 67 58 64 66 60 60 62 74 75 63 62 61 57 56 55 53 50 48 43 40 39 48 83 88 86 82 88 85 81 90 94 95 94 88 90 84 82 85 87
91 95 76 76 70 58 64 62 82 62 75 75 70 73 61 55 59 56 56 55 52 49 47 44 44 41 40 70 90 89 87 91 92 90 90 96 96 96 95 95 88 77 77 83
98 80 78 78 68 64 69 59 74 71 73 94 64 77 59 54 52 59 61 58 53 49 48 44 40 42 39 47 65 65 83 94 89 94 94 96 96 97 92 96 89 87 75 76
99 93 90 85 70 62 68 60 73 79 69 74 63 72 53 49 54 50 53 54 50 48 46 46 42 39 38 54 58 56 62 77 75 82 94 92 81 74 80 80 77 70 74 75
93 84 87 86 73 69 73 62 59 68 73 85 69 72 64 57 44 50 53 48 45 45 45 45 42 40 48 64 65 58 57 58 73 65 64 65 58 61 64 67 72 79 82 82
84 90 81 77 72 74 82 73 96 92 91 83 55 67 60 45 41 40 41 47 46 47 46 47 52 54 73 76 71 66 67 72 74 64 64 60 58 59 62 68 77 80 84 86
94 87 92 78 87 80 78 60 86 87 93 75 54 68 46 38 38 38 36 36 38 45 47 50 54 58 72 73 74 70 68 70 71 68 74 75 74 78 76 75 77 78 80 76
96 94 79 75 84 76 72 84 56 79 74 86 71 56 38 42 43 44 43 43 46 43 42 52 58 57 75 79 75 67 70 70 71 74 70 73 72 72 73 72 72 74 70 62
79 98 81 82 76 69 68 61 70 89 76 70 75 65 48 40 37 36 40 46 40 39 45 51 62 67 76 78 78 72 65 68 69 67 66 69 69 70 69 73 71 70 67 67
73 79 95 79 91 84 76 77 69 65 73 76 68 55 42 40 43 50 55 54 53 48 47 49 55 72 77 80 76 77 71 66 65 64 64 65 67 67 69 69 70 68 71 72
69 85 89 89 73 72 74 78 74 89 77 79 75 61 40 45 47 49 53 52 65 57 54 55 60 75 79 78 74 73 66 63 64 66 64 65 66 68 72 71 69 70 72 70
69 89 98 89 77 72 80 73 73 73 82 84 82 58 35 49 46 48 51 53 54 57 60 62 70 78 81 81 77 75 71 74 68 68 65 70 73 72 71 72 70 71 72 75
67 76 78 88 79 80 87 70 68 79 93 83 82 66 50 39 36 38 46 49 54 58 60 67 74 77 80 79 75 73 72 68 67 69 74 73 73 72 74 78 78 77 78 80
70 86 81 73 64 85 87 75 70 87 76 85 64 63 47 50 46 44 38 42 41 56 63 66 72 77 78 80 77 76 75 74 72 73 77 79 78 76 78 81 83 82 82 82
68 90 87 83 64 67 79 70 70 71 69 74 70 70 49 52 49 50 46 45 44 42 55 62 65 71 74 79 76 73 76 77 76 79 80 79 78 79 84 86 89 90 91 89
75 83 88 93 67 64 70 60 66 68 62 64 79 58 61 58 53 50 50 52 51 49 48 49 65 67 68 70 66 70 73 76 79 81 81 81 82 84 88 89 91 93 93 92
66 71 81 93 81 91 57 50 48 60 56 56 57 54 53 55 58 62 65 62 60 58 54 52 55 67 70 68 65 70 72 74 79 83 83 83 85 89 92 92 92 93 96 96
61 71 84 89 90 68 59 56 58 58 56 55 49 61 62 63 68 66 66 68 66 68 66 61 53 58 71 68 65 67 73 77 80 83 84 84 86 92 93 94 94 98 96 97
63 69 82 90 90 86 61 60 55 58 67 61 62 67 70 68 85 76 66 70 69 69 69 71 72 63 66 75 67 70 76 79 81 84 84 84 88 90 93 94 92 97 96 98
87 85 90 88 94 82 61 58 54 69 56 59 64 69 75 79 74 64 67 72 74 73 71 71 79 84 82 81 69 76 81 82 82 84 84 86 90 92 91 93 94 98 100 99
79 88 90 90 93 92 57 56 59 51 60 57 59 63 67 72 71 64 69 73 74 76 76 78 82 85 84 82 77 85 86 85 84 85 88 91 93 89 92 94 97 98 95 94
68 62 70 68 72 54 53 47 46 47 53 58 62 59 61 69 72 65 73 76 76 81 77 81 85 85 84 82 81 84 88 84 85 88 92 93 94 94 91 95 98 98 92 89
80 70 72 66 61 76 73 65 66 63 58 54 51 54 59 65 71 69 69 70 72 73 74 78 83 86 86 81 82 85 87 85 88 91 94 93 94 92 92 92 94 94 91 89
85 78 80 79 77 76 82 72 67 65 63 63 56 59 62 66 75 75 75 73 71 73 72 72 74 79 80 81 83 89 89 88 90 91 89 92 86 91 96 93 92 92 83 81
66 77 96 92 74 85 78 71 69 80 81 80 76 72 65 70 72 72 72 82 84 85 84 79 75 74 76 78 79 82 80 81 83 86 87 88 90 93 93 96 94 88 84 82

GFSCGP_sfc_rhum_090.txt.gz
RH
92 95 99 97 91 90 66 69 75 78 81 74 83 76 73 77 84 81 63 60 59 56 56 57 78 89 89 91 92 92 92 89 87 97 96 98 93 84 86 85 76 68 68 74
98 97 84 89 80 74 63 67 70 70 66 70 83 81 69 83 81 72 63 63 58 54 50 48 51 76 89 92 93 94 90 91 92 92 93 95 95 96 94 93 90 82 82 81
98 89 74 82 84 75 69 67 66 79 78 75 75 81 64 70 66 58 59 57 55 54 51 49 49 46 59 93 94 91 92 93 91 92 95 98 97 97 97 94 93 92 88 90
97 81 77 89 75 60 72 58 54 76 90 99 79 90 71 53 58 60 55 67 62 56 54 50 46 48 48 69 94 93 94 94 90 94 94 93 95 95 96 98 95 94 87 84
98 87 85 86 78 63 70 62 62 72 82 94 93 94 56 53 60 56 61 60 62 59 56 51 49 43 42 49 82 88 94 96 94 96 93 93 97 94 92 97 93 90 82 77
93 85 90 92 78 70 69 73 75 82 90 96 75 79 55 62 60 50 54 56 57 55 52 51 49 47 50 58 70 78 88 94 87 87 97 95 93 84 91 88 87 81 82 83
91 95 85 80 78 72 71 84 99 99 98 81 61 74 59 45 42 46 47 50 51 52 52 52 54 55 58 69 72 69 71 80 89 79 90 86 88 84 86 86 87 86 87 82
95 96 86 76 92 93 86 81 88 90 91 76 63 83 53 40 39 40 42 47 49 49 48 50 54 58 63 70 76 71 72 74 79 86 85 87 80 85 84 83 87 88 84 78
94 94 75 80 84 85 84 81 59 76 78 81 67 53 39 44 45 42 39 39 59 58 42 53 57 61 75 79 78 73 75 76 75 78 78 79 73 73 75 74 75 80 76 68
84 98 87 82 76 72 67 62 72 87 76 78 75 71 50 48 46 44 44 53 47 44 50 54 68 67 80 81 85 80 77 79 80 77 72 69 69 69 71 72 71 71 70 70
76 80 87 79 87 92 77 75 75 70 76 71 74 62 44 39 43 48 57 62 67 65 53 51 65 74 84 86 85 82 81 80 77 70 69 67 68 66 66 66 68 67 68 72
79 84 93 90 76 75 77 87 73 87 77 85 79 58 43 46 50 54 59 56 68 67 56 56 60 80 84 86 87 86 82 79 69 70 67 72 68 69 68 69 71 71 73 72
76 90 91 83 71 72 82 77 75 75 84 87 84 58 37 59 59 55 58 62 56 62 68 67 77 80 85 87 87 87 83 82 72 68 70 72 77 73 69 69 72 72 72 73
66 82 75 88 77 82 88 81 78 81 93 82 83 62 48 43 44 42 50 52 49 58 60 65 74 82 85 87 86 86 85 82 78 73 73 78 80 77 75 81 74 76 78 76
74 89 85 78 67 84 85 80 79 88 80 86 66 68 55 50 48 47 48 46 46 45 58 65 70 76 84 88 87 86 84 82 80 82 83 84 81 76 76 81 84 82 80 82
74 92 86 82 68 72 76 71 72 75 77 76 73 74 49 50 56 59 53 50 50 48 49 63 68 74 81 87 86 83 85 84 81 84 84 83 83 84 86 89 90 91 91 90
78 84 88 92 75 66 74 61 69 74 69 71 78 56 56 60 57 59 56 55 52 52 53 53 54 66 74 80 79 82 83 83 82 82 85 85 86 89 92 93 94 94 94 93
81 82 88 94 78 90 58 52 52 63 60 59 63 57 55 58 60 71 70 72 65 63 62 62 64 60 70 74 79 78 81 79 80 84 85 86 88 91 93 94 95 95 95 96
68 80 88 91 92 70 62 58 61 59 53 67 66 68 65 63 69 66 66 72 70 69 71 73 74 69 66 82 72 76 82 80 83 85 86 87 88 92 94 95 96 96 96 97
71 76 80 93 91 86 57 63 59 58 74 56 68 74 76 75 75 68 61 68 71 73 75 75 74 79 79 81 78 76 80 83 82 84 86 88 90 92 94 94 96 95 94 99
87 89 90 90 87 83 65 61 57 74 56 62 66 69 73 79 74 66 70 70 78 77 77 81 86 88 89 88 83 78 82 83 78 85 86 89 90 93 93 95 96 97 100 99
81 90 93 92 94 92 61 66 64 50 63 59 59 62 66 68 70 75 71 71 74 76 77 82 86 89 90 88 84 85 86 86 82 87 86 90 93 90 92 95 96 96 96 97
75 70 74 77 78 65 69 66 72 70 68 66 73 66 66 68 70 72 71 75 73 75 80 83 86 86 89 89 85 88 89 82 83 85 89 92 93 95 95 96 98 98 95 94
85 80 78 72 76 85 77 80 73 70 71 71 72 74 70 71 65 67 75 75 73 74 76 83 87 86 87 88 84 82 84 81 81 84 90 93 95 96 97 95 94 95 95 93
82 83 87 86 83 81 84 76 81 81 83 82 78 77 76 84 87 76 70 78 75 75 76 78 82 80 84 87 90 88 85 84 87 90 94 96 95 94 95 95 93 94 87 85
87 86 91 93 86 92 90 85 86 84 83 82 81 81 80 80 92 88 76 77 77 84 87 81 79 84 83 81 81 86 85 86 88 94 92 92 94 94 94 96 97 91 87 85

GFSCGP_sfc_rhum_096.txt.gz
RH
96 100 98 89 84 80 85 88 92 88 85 87 89 94 84 81 87 84 83 78 68 72 85 94 98 93 91 88 85 87 88 83 88 95 95 91 88 91 92 87 79 75 69 72
96 99 79 82 84 87 81 91 84 95 83 84 87 90 87 79 89 85 82 81 68 64 64 56 78 99 96 92 90 89 85 79 88 89 88 92 94 97 95 92 89 75 76 76
97 87 77 96 95 95 85 86 92 90 89 85 88 90 88 85 71 86 77 79 78 64 61 60 55 92 97 99 96 93 88 85 84 82 94 99 99 99 98 98 96 94 88 88
98 79 77 99 92 74 93 73 80 90 96 99 85 93 90 85 77 74 75 74 71 68 62 57 57 53 79 91 97 97 97 94 91 94 87 93 91 91 94 96 98 99 99 99
98 96 97 100 94 78 87 75 77 84 92 92 93 95 80 84 81 69 65 69 65 64 61 55 54 53 51 52 69 96 98 98 98 99 95 95 93 90 98 99 99 99 97 95
97 96 94 94 87 81 72 74 87 91 89 93 94 88 76 64 59 57 56 56 60 63 64 59 55 56 54 56 56 67 92 97 98 99 99 99 98 99 100 99 98 99 97 96
90 93 85 91 84 80 77 81 98 94 95 90 88 86 60 54 45 51 47 49 55 60 63 63 61 57 55 56 57 66 81 90 97 99 99 99 98 98 97 98 98 98 98 98
94 96 96 82 95 94 90 79 92 92 94 82 81 87 59 42 43 48 54 54 59 59 62 59 58 60 57 55 57 66 77 89 96 92 96 97 97 99 99 98 98 97 97 98
97 99 73 83 85 85 87 88 68 79 74 91 85 64 39 42 45 45 45 44 49 53 55 61 76 65 62 62 61 68 79 87 94 94 94 95 96 97 98 98 97 97 97 94
86 94 76 75 71 76 69 63 78 88 80 71 76 73 59 47 46 42 45 50 50 49 53 55 62 77 76 79 80 83 82 83 86 89 90 92 95 96 96 96 97 95 86 81
82 84 86 78 92 91 79 77 77 74 76 69 73 55 51 50 46 44 59 60 63 60 58 60 63 77 86 87 87 87 87 86 88 89 89 91 92 92 90 88 84 79 75 72
82 86 99 95 83 84 84 89 72 83 78 88 76 59 45 68 69 58 61 61 65 65 62 64 68 75 83 85 88 87 88 89 91 91 89 88 85 82 82 83 81 79 79 76
76 87 93 81 72 71 82 85 81 81 84 87 75 56 46 66 61 54 64 52 52 52 52 61 65 71 79 83 86 88 90 90 90 89 88 88 86 84 83 83 80 78 80 80
67 84 74 86 78 84 86 85 85 83 92 85 83 69 61 55 52 47 46 53 57 55 52 56 62 66 75 83 86 87 89 91 90 89 88 88 88 84 83 79 76 78 80 81
73 90 88 82 84 84 85 84 88 90 84 85 79 76 63 59 62 58 50 50 55 54 50 51 54 63 73 78 83 88 90 91 90 90 90 90 87 84 84 83 84 81 78 83
80 96 83 84 76 76 79 80 82 85 85 85 85 83 65 66 64 61 61 62 62 56 54 56 57 61 67 77 80 86 89 91 92 91 90 90 89 89 89 90 88 84 90 91
82 85 87 92 83 70 73 71 74 79 81 80 78 63 67 59 58 62 60 60 61 58 60 60 62 65 67 66 69 78 85 91 93 92 91 91 91 91 93 93 93 94 94 93
83 87 89 95 74 67 53 58 60 65 63 68 71 63 71 70 70 72 68 68 64 62 60 59 61 66 68 69 71 79 88 92 93 93 92 92 92 93 94 94 94 95 95 95
81 85 92 91 93 66 71 68 69 69 62 64 78 76 75 75 72 62 56 69 72 71 69 70 71 72 75 74 72 80 90 93 94 92 91 91 91 93 94 95 96 96 96 96
76 80 82 92 91 81 58 76 71 68 75 75 78 83 84 82 91 84 72 72 69 68 73 74 75 79 84 76 86 92 92 94 94 89 88 90 90 90 92 93 96 96 96 99
89 90 91 88 88 82 70 70 67 81 70 80 82 86 87 94 87 78 76 80 81 80 76 77 83 86 83 86 92 94 93 95 85 88 92 91 91 91 91 94 96 97 99 99
84 92 93 93 96 91 79 72 75 79 85 86 87 90 94 92 89 87 84 83 82 83 83 80 86 83 83 89 93 94 95 88 90 92 91 92 93 90 93 95 97 97 98 98
82 73 82 81 79 73 84 82 83 84 89 92 98 94 92 90 89 83 81 81 85 86 84 86 84 83 86 89 92 95 91 94 94 93 90 90 94 95 95 95 98 99 98 98
85 83 83 77 77 85 83 86 89 93 96 92 88 85 88 84 66 66 64 65 66 71 75 85 90 89 86 88 90 93 92 94 94 93 87 88 89 92 90 89 92 97 98 99
84 85 85 84 81 80 89 90 93 93 88 84 81 81 76 74 80 79 79 78 79 79 72 81 85 83 83 88 90 91 91 94 95 95 92 92 94 93 95 92 92 93 94 90
90 85 87 83 78 77 80 90 90 91 92 89 81 83 76 71 76 76 85 88 94 88 84 85 82 86 81 90 90 90 85 87 91 97 96 95 96 97 96 97 99 91 87 85

GFSCGP_sfc_rhum_099.txt.gz
RH
92 100 98 90 80 76 98 69 68 73 81 77 82 87 81 79 80 79 84 86 88 82 87 92 91 93 93 92 88 88 78 77 81 90 96 95 95 91 90 85 74 69 68 67
94 99 94 66 69 80 96 77 82 76 77 75 84 84 84 84 82 79 78 82 77 80 86 93 90 97 94 91 83 89 85 77 78 85 85 92 96 95 92 91 83 74 75 75
96 89 91 94 84 86 84 82 87 80 85 80 81 88 83 74 85 75 72 72 74 70 65 71 88 94 94 92 90 86 84 83 78 86 92 95 95 95 94 92 91 90 86 87
99 94 95 97 88 91 92 75 70 84 88 98 88 88 87 85 88 78 59 62 66 64 60 57 61 70 87 95 90 85 81 83 84 93 91 89 92 92 90 88 96 97 95 97
99 95 99 95 84 80 76 76 79 84 87 88 88 88 79 80 87 74 55 53 56 60 61 60 56 57 67 69 90 95 97 97 88 89 88 92 91 94 87 91 98 97 98 97
99 91 88 91 88 80 72 81 84 83 81 90 84 66 59 72 75 62 47 52 54 60 59 53 52 52 51 58 60 77 90 93 95 95 96 95 94 92 97 98 98 98 98 98
99 97 90 89 88 82 76 74 93 88 91 80 68 71 60 52 58 52 47 41 40 46 52 53 52 53 52 56 60 58 64 74 90 96 94 94 96 95 96 97 98 97 97 97
96 98 94 85 90 88 86 72 83 86 87 81 77 73 55 41 45 46 47 48 52 51 50 50 51 55 56 56 54 58 59 67 87 91 93 92 94 96 94 95 95 94 93 93
90 99 78 86 84 86 82 82 64 74 69 85 73 57 38 40 41 40 43 45 51 52 52 51 57 62 61 58 55 57 61 70 85 86 86 88 91 93 93 94 92 92 92 92
79 98 85 75 81 77 68 59 70 84 77 74 61 60 54 47 43 44 52 54 52 50 50 50 50 63 70 71 72 68 68 70 80 85 81 84 86 89 91 92 94 91 89 86
77 82 86 74 90 96 82 78 73 70 68 59 57 53 43 50 49 47 56 57 57 56 54 54 56 62 71 74 77 74 74 74 77 78 78 81 86 87 89 89 88 85 80 78
82 84 98 94 76 78 82 86 67 80 72 80 61 54 42 57 57 54 54 53 51 51 53 54 57 62 64 71 74 75 75 74 76 76 75 78 81 81 80 77 74 71 71 67
74 84 91 77 66 68 81 82 76 76 76 84 64 53 45 52 52 44 45 46 49 50 50 47 50 55 62 66 72 74 76 76 77 77 77 78 78 75 75 72 69 67 66 67
66 83 72 82 75 81 81 82 82 79 86 77 66 58 53 57 59 58 56 47 48 51 53 50 50 52 58 64 70 74 75 78 79 79 78 78 76 74 72 71 69 69 66 68
71 90 86 80 79 78 81 80 82 89 78 80 73 68 61 66 65 60 54 56 57 55 52 53 53 53 58 63 66 73 77 78 80 80 81 80 76 73 72 72 71 71 70 70
78 95 81 86 73 71 74 72 78 79 81 81 81 75 62 56 57 62 61 62 60 59 56 58 58 57 56 57 59 68 74 80 83 82 81 80 78 78 77 77 76 74 75 76
81 83 83 90 78 64 68 65 70 74 75 74 70 64 68 71 71 70 69 68 67 64 62 61 61 60 60 61 63 63 67 74 84 84 81 80 78 78 79 78 79 81 82 82
83 87 86 94 63 62 53 58 59 62 66 68 71 79 78 79 74 71 69 72 70 68 65 64 63 64 62 65 66 67 70 76 84 85 84 82 81 81 82 83 83 84 83 83
79 83 88 87 88 56 68 67 64 62 74 81 82 84 81 80 74 64 72 73 73 71 67 67 66 67 68 68 67 73 77 78 84 86 86 85 83 83 84 87 88 94 89 90
75 78 79 91 87 60 50 70 67 57 72 81 82 88 89 86 79 77 76 74 75 70 68 71 68 71 73 67 74 81 78 82 84 82 83 84 85 83 84 85 88 90 87 97
89 89 91 89 92 78 65 68 64 78 58 84 84 89 92 95 86 81 81 84 78 77 79 75 76 76 73 70 77 82 81 86 78 85 87 88 86 85 82 88 90 93 99 98
83 89 93 94 96 80 74 72 70 73 85 86 92 93 96 90 85 84 81 75 71 71 69 70 75 81 76 75 82 82 84 79 87 88 90 90 89 86 89 90 93 91 94 96
83 71 78 78 76 67 85 80 87 84 84 94 96 87 90 89 90 78 70 65 64 59 60 62 68 74 77 80 83 86 80 83 88 91 91 89 89 87 87 89 92 92 89 91
84 82 82 74 75 85 84 90 88 91 92 88 85 87 86 90 75 67 69 70 70 71 76 79 82 80 81 79 81 82 79 84 90 93 90 88 88 90 87 83 86 89 90 88
80 85 84 84 82 84 88 87 87 93 87 88 88 82 78 74 74 70 72 73 75 79 86 88 91 91 86 73 74 78 84 89 95 94 92 91 87 91 91 85 86 87 86 84
91 85 86 77 74 73 81 89 89 83 86 88 80 77 74 78 80 77 78 76 81 84 87 93 95 96 95 82 82 84 87 89 89 94 94 92 91 93 93 96 97 86 88 88

GFSCGP_sfc_rhum_102.txt.gz
RH
60 100 95 97 70 58 85 48 43 45 39 54 56 62 60 60 63 65 61 66 71 82 71 83 96 94 92 79 83 84 83 75 65 67 78 81 78 78 75 70 59 55 54 55
92 98 72 63 62 57 99 67 50 54 53 47 64 63 60 60 68 65 62 66 70 86 93 92 89 96 98 95 90 88 87 79 76 65 68 75 80 82 77 77 68 62 61 69
96 81 92 86 65 67 85 65 49 60 66 59 59 69 72 61 65 59 61 59 68 79 94 93 88 90 95 98 95 88 86 88 81 80 75 81 82 86 86 87 80 74 78 80
100 90 96 93 68 66 67 51 50 60 63 74 73 74 63 70 70 67 70 64 66 67 75 90 85 89 87 90 91 87 84 87 88 85 86 85 86 81 78 82 89 92 85 87
98 92 96 93 69 60 49 49 61 63 64 62 67 62 76 80 82 75 70 60 61 59 59 70 83 91 94 86 89 86 80 79 85 95 92 95 94 91 86 90 89 94 91 91
96 82 90 77 54 63 66 75 70 60 64 82 71 66 82 85 87 86 59 53 54 58 57 53 52 55 60 81 94 89 82 78 78 81 90 90 85 86 86 87 92 96 97 97
99 96 85 78 72 70 70 86 94 83 87 76 58 57 70 59 59 74 62 52 33 43 44 44 44 44 45 51 58 62 79 85 85 86 82 84 83 77 90 87 88 97 98 97
96 98 96 82 76 66 62 54 66 66 61 63 59 89 70 43 33 47 59 45 40 40 40 43 43 44 43 48 47 46 44 48 56 72 82 85 81 90 84 84 90 94 95 96
72 100 87 71 70 68 60 66 51 58 56 55 53 44 40 32 32 35 37 38 41 39 38 40 43 49 52 48 47 44 43 45 49 59 67 75 83 84 90 84 85 88 88 90
64 99 87 77 63 60 53 47 58 68 62 58 46 42 45 38 36 35 37 36 36 36 36 38 39 46 51 54 56 54 47 47 52 59 64 67 68 73 78 84 89 87 82 83
55 59 86 69 73 76 59 53 53 47 45 36 38 44 36 37 36 40 37 40 39 37 35 35 36 41 47 50 55 55 55 57 60 67 66 66 65 68 70 79 83 84 82 84
56 57 86 72 61 59 61 59 49 58 51 54 34 46 37 40 39 36 37 37 35 35 36 33 35 35 38 44 50 55 55 56 58 60 61 63 64 69 73 77 81 79 81 77
49 59 74 64 53 50 61 60 55 52 57 67 41 47 36 34 36 38 38 33 32 34 36 32 32 33 34 38 44 48 53 55 57 58 56 60 65 68 71 72 74 74 72 66
52 57 56 61 68 65 63 58 56 63 87 43 41 46 43 42 40 35 37 36 36 36 38 38 37 35 35 38 41 43 47 52 58 60 60 58 58 61 64 66 66 66 61 59
51 76 72 62 60 65 61 61 57 88 58 60 50 46 46 43 45 45 43 44 42 42 43 44 43 39 36 35 36 38 41 48 56 60 62 61 58 58 59 60 60 58 56 54
53 77 65 65 50 52 56 53 55 56 60 57 54 56 50 46 44 44 48 48 48 47 45 44 43 42 41 40 41 44 43 44 48 57 62 60 62 61 62 61 60 59 58 58
56 59 62 70 54 46 49 50 50 53 53 54 47 58 52 50 53 52 52 50 51 50 49 47 45 44 44 43 44 44 44 44 48 49 50 59 62 63 63 61 61 63 64 63
56 59 60 62 42 50 46 42 43 50 57 53 61 62 60 61 54 50 56 52 45 45 45 45 44 47 46 45 45 45 46 48 52 55 54 55 64 67 65 65 65 65 65 68
50 50 58 51 44 45 50 48 46 46 56 63 62 63 59 55 50 47 53 44 44 46 46 46 45 46 49 50 47 48 51 51 54 59 58 58 60 68 67 72 73 77 75 74
53 48 44 62 50 33 42 51 48 40 46 63 61 59 58 50 47 37 38 43 45 46 48 49 48 50 50 46 46 51 51 54 56 56 59 61 63 66 67 70 72 76 73 85
60 60 58 54 57 43 41 48 47 54 40 61 58 57 54 45 38 41 47 51 51 51 50 48 48 48 47 47 52 58 58 63 59 60 63 68 71 76 67 71 71 79 88 84
52 55 57 64 67 53 47 52 50 49 60 53 58 52 54 51 52 56 59 58 56 61 63 61 63 63 59 60 59 62 65 63 62 63 67 69 75 75 78 78 81 80 81 90
54 46 42 50 40 50 53 51 59 51 47 59 56 49 58 63 64 64 59 54 53 54 58 64 68 69 73 71 76 76 69 59 60 64 65 67 71 74 75 82 82 80 78 82
54 54 50 54 47 53 59 64 57 55 51 57 56 61 65 69 60 59 57 57 60 62 66 65 70 80 88 76 76 81 71 59 61 66 64 65 74 78 76 76 77 75 80 84
44 58 53 53 52 59 61 61 58 62 61 60 62 62 58 57 59 61 65 68 70 71 71 70 77 89 88 87 95 90 87 73 69 71 74 77 80 82 80 77 76 74 72 74
56 51 49 40 40 44 51 57 60 59 54 56 61 58 53 60 64 67 72 71 72 73 72 73 82 89 92 95 95 90 84 79 79 76 80 85 88 89 86 86 89 85 85 86

GFSCGP_sfc_rhum_105.txt.gz
RH
53 92 85 68 63 76 70 49 44 38 22 44 40 48 42 40 49 50 51 50 48 60 60 76 93 90 87 81 95 86 88 90 72 80 79 75 76 70 67 61 59 54 55 57
86 92 55 87 76 88 97 60 52 37 36 38 37 45 37 40 44 43 47 49 52 66 78 94 97 97 96 96 95 96 92 92 78 75 77 77 77 75 71 68 64 58 57 60
96 74 86 95 71 67 63 60 53 94 44 36 35 48 50 50 52 48 49 46 52 66 92 97 95 94 96 94 95 94 91 93 84 80 86 81 84 80 83 81 78 72 65 74
100 79 92 95 70 50 48 36 72 78 52 69 41 67 62 65 65 51 42 50 62 75 91 94 97 94 89 94 98 96 96 95 91 87 86 84 85 85 81 80 84 82 78 84
94 83 92 88 56 43 53 42 49 58 55 64 79 93 75 68 75 64 64 54 67 77 88 92 95 94 90 95 99 98 96 95 93 92 90 90 87 86 87 88 80 84 87 91
88 74 80 68 52 47 54 58 93 88 80 67 62 65 88 88 90 84 64 63 67 76 78 84 90 93 93 93 94 94 92 83 85 88 91 93 92 91 92 91 90 94 95 97
97 86 72 69 65 73 98 96 95 91 94 71 58 61 97 78 71 83 82 51 70 69 70 75 70 66 65 82 92 88 84 83 84 87 90 86 87 86 89 90 93 91 96 98
92 96 95 66 79 92 97 69 79 92 80 69 57 93 96 68 65 83 77 48 52 52 48 48 49 49 52 58 60 66 76 78 72 78 77 83 80 84 82 87 90 90 93 97
93 99 70 60 59 60 57 64 47 53 39 58 72 83 68 37 52 70 66 44 47 43 45 45 46 46 46 48 49 50 49 50 53 66 73 76 84 80 84 78 81 94 92 96
68 94 68 60 54 51 49 42 58 67 56 57 72 89 84 47 40 46 46 41 39 37 37 38 40 43 47 50 51 50 43 42 45 52 56 62 70 80 81 83 89 88 87 88
56 69 77 56 61 70 56 51 42 43 40 36 46 52 37 38 36 36 38 38 38 36 34 34 37 38 41 45 50 50 50 49 49 56 56 61 63 69 69 79 83 85 85 88
46 55 77 66 49 47 52 50 41 62 39 39 35 53 33 35 35 33 34 34 35 36 34 33 33 34 35 40 43 48 51 50 53 56 59 60 60 64 67 69 77 80 84 84
45 52 78 61 48 43 48 42 39 43 61 57 43 52 31 32 33 33 35 34 34 35 35 33 32 33 34 36 38 40 44 50 53 54 54 54 59 61 64 68 76 79 81 84
53 50 54 67 70 59 56 47 42 61 80 42 47 48 38 36 38 38 37 35 36 38 39 40 38 35 34 33 34 35 37 42 49 54 57 58 56 57 59 66 72 77 78 79
43 67 71 51 50 58 50 49 46 72 45 58 43 47 44 42 39 39 39 39 40 40 40 39 39 36 34 34 34 36 39 39 41 49 56 59 58 56 57 61 67 70 74 76
42 66 61 55 41 44 45 41 42 45 44 44 44 55 41 39 36 39 41 41 42 42 41 40 39 38 38 37 39 41 39 38 42 45 47 52 58 59 62 63 63 65 66 64
45 50 57 62 43 39 44 46 43 45 45 46 44 52 42 45 47 46 47 44 40 37 36 35 36 37 39 40 42 42 41 40 42 45 45 46 51 61 63 62 64 66 67 65
42 46 50 54 41 56 46 39 38 43 47 46 51 52 51 51 44 39 47 46 39 32 32 33 33 35 36 35 35 37 40 43 47 50 50 50 51 58 65 66 67 68 66 68
41 39 45 48 35 37 44 44 44 44 44 48 50 52 49 44 39 37 45 34 32 33 36 39 39 40 40 40 39 40 40 40 44 47 51 52 54 56 59 71 73 75 74 75
45 39 39 46 45 28 34 43 39 37 42 49 49 50 49 44 40 32 31 31 35 41 43 46 47 47 45 44 44 47 47 47 48 48 50 53 56 59 62 65 73 74 74 80
47 46 49 38 47 31 38 43 40 48 47 50 47 46 45 43 35 32 33 39 44 45 46 47 48 52 52 50 54 61 64 64 56 55 58 60 61 64 64 68 71 78 83 81
41 42 43 46 52 51 38 47 46 47 46 46 48 44 42 37 36 40 44 49 48 49 48 48 53 54 54 56 63 75 78 74 70 66 64 61 63 64 67 77 77 78 80 81
45 37 37 39 37 41 38 41 47 42 45 47 44 38 39 44 46 47 50 46 47 49 55 60 64 67 67 68 76 84 73 70 70 72 71 62 55 60 62 75 82 81 76 78
40 42 43 47 34 39 44 46 46 44 43 44 41 42 46 50 46 45 44 48 52 55 60 62 65 64 66 70 71 78 85 89 90 89 84 69 63 63 63 71 82 83 79 78
35 46 42 41 36 44 44 47 48 49 46 43 44 46 48 47 46 46 49 52 56 61 63 64 67 67 70 74 75 82 90 94 92 90 89 81 75 74 78 81 82 82 72 73
40 37 42 30 28 35 39 43 48 53 51 42 43 44 43 45 50 48 49 49 52 58 64 67 69 72 72 77 76 79 83 95 95 95 91 84 83 87 91 94 92 86 83 81

GFSCGP_sfc_rhum_108.txt.gz
RH
58 95 95 80 69 61 64 82 74 54 34 42 36 64 65 57 67 68 62 62 61 60 64 72 88 96 96 90 91 95 96 95 88 86 85 85 82 80 80 76 70 73 74 73
91 97 64 54 66 74 86 86 78 58 49 42 56 62 44 43 50 58 60 63 60 63 70 94 97 97 96 98 96 97 94 86 80 85 88 90 89 84 80 79 74 71 72 77
100 78 72 86 87 79 81 73 68 84 76 47 63 81 55 43 44 46 50 57 58 68 86 93 96 97 97 98 98 98 95 96 94 93 86 91 93 94 94 91 86 82 75 79
98 72 86 86 78 65 74 48 62 85 88 96 73 89 54 62 74 64 61 59 63 82 93 92 94 96 98 97 96 97 97 97 96 93 95 95 93 92 94 92 93 93 89 90
95 88 76 78 63 50 53 56 92 82 97 74 61 89 97 78 76 70 64 63 80 89 95 96 96 94 95 97 98 97 98 98 99 97 94 97 96 96 94 96 91 92 94 94
94 71 82 70 62 58 56 84 94 100 100 99 91 98 99 98 92 82 67 74 82 94 97 96 94 92 96 96 98 96 96 97 98 98 97 97 95 92 97 96 97 98 97 97
91 87 74 69 81 75 95 100 98 98 98 98 89 92 99 92 82 85 80 69 91 93 96 97 98 98 98 98 96 98 98 97 96 96 94 95 95 96 96 93 94 98 99 99
96 90 94 71 85 99 96 96 99 97 97 98 66 97 99 88 85 84 77 81 86 93 90 87 74 70 67 80 96 97 95 94 91 93 91 91 89 90 95 92 93 95 96 97
99 95 68 72 68 70 77 94 68 99 61 88 99 98 87 86 86 73 77 77 92 86 73 57 59 60 59 58 58 68 76 79 85 81 85 89 87 90 93 90 91 91 90 95
66 90 65 60 60 65 67 50 77 96 90 95 96 98 98 98 97 64 60 64 83 68 48 51 54 59 63 66 65 61 56 53 55 59 75 83 92 94 95 97 97 97 97 98
65 79 74 61 70 74 66 68 56 55 53 59 83 96 64 83 81 75 50 46 44 45 45 44 49 51 54 58 65 65 64 63 65 70 75 76 81 86 92 94 96 96 96 96
56 68 89 78 57 52 60 53 52 91 74 70 78 87 42 45 42 42 46 44 45 46 45 44 46 46 49 52 55 61 64 66 67 68 70 72 75 80 84 84 91 93 96 95
58 71 92 79 67 58 56 49 55 56 85 68 82 87 37 45 46 44 47 47 47 47 47 47 46 47 48 48 48 50 57 64 67 68 70 70 73 77 81 85 90 88 93 94
68 67 79 94 86 75 75 56 55 80 84 69 76 60 54 52 54 52 50 50 50 48 47 49 50 49 48 47 48 51 52 53 58 65 73 75 74 73 75 81 90 91 90 93
58 80 78 62 58 71 57 56 56 66 59 76 59 66 61 54 56 53 50 48 48 47 46 49 52 53 51 52 54 54 53 53 55 58 63 71 75 74 74 78 87 91 91 87
51 79 77 71 46 48 57 51 55 56 52 59 62 67 53 52 52 52 52 49 47 43 40 40 41 43 47 52 49 49 55 57 58 60 62 60 64 76 79 80 83 89 91 91
56 69 79 84 58 50 67 56 53 55 56 61 72 63 53 58 54 55 58 51 45 39 35 37 40 42 47 48 47 49 48 48 54 62 62 63 63 67 80 80 83 86 91 89
55 57 70 84 64 75 61 50 48 51 53 59 61 60 58 60 60 54 62 56 46 38 40 44 48 50 51 49 48 47 48 50 53 56 55 62 69 72 74 85 87 88 89 87
53 58 67 80 61 50 53 53 54 58 62 54 62 61 58 56 58 68 42 38 43 47 50 53 58 58 58 59 58 60 62 63 65 63 60 59 62 70 77 82 89 91 90 90
53 54 64 64 71 54 54 52 47 49 69 58 57 59 60 57 64 62 42 46 52 58 56 59 60 59 62 63 62 66 66 67 68 70 70 67 67 70 74 78 87 91 91 90
66 66 73 70 75 55 54 52 50 74 66 60 56 56 58 60 54 45 46 55 59 58 59 61 68 71 72 71 68 72 71 72 68 71 70 71 71 72 70 74 82 86 92 91
58 64 71 67 74 70 54 59 64 62 63 59 58 56 58 53 50 54 56 59 58 62 66 70 75 75 72 69 67 73 78 73 73 75 83 83 76 70 68 74 80 91 85 93
67 55 64 55 63 53 54 62 57 56 60 60 60 50 51 54 57 56 58 55 58 63 68 72 76 75 72 71 68 76 78 75 76 80 87 88 84 81 76 71 66 69 81 86
58 57 64 56 52 58 52 59 58 58 59 57 49 50 56 60 57 55 54 58 62 66 72 73 75 75 71 64 65 69 70 71 80 87 94 92 90 87 81 70 74 78 83 83
54 60 59 57 51 58 52 58 61 57 55 50 51 53 56 59 59 56 60 60 62 64 68 71 74 67 67 66 67 66 70 69 77 82 87 93 95 89 88 82 77 75 77 79
57 58 59 58 44 54 59 57 60 63 60 53 53 54 55 56 58 58 62 61 63 67 68 71 78 67 68 68 68 69 68 70 80 87 91 94 95 96 95 90 88 88 88 87

GFSCGP_sfc_rhum_111.txt.gz
RH
78 98 97 90 86 73 76 83 82 68 61 64 60 52 44 38 56 71 65 39 64 64 67 76 90 97 93 92 89 96 97 96 97 96 98 96 84 86 85 79 69 73 72 73
93 96 75 66 62 68 97 94 84 68 58 61 67 58 49 43 61 65 75 71 70 69 73 93 90 98 97 98 96 98 96 95 96 98 96 92 95 95 90 86 80 73 80 78
97 82 77 85 91 94 88 87 85 87 68 65 64 75 56 44 61 62 65 67 69 66 75 96 94 98 97 97 97 97 97 93 94 95 94 93 92 93 93 94 93 88 83 84
94 71 81 84 88 81 91 63 79 94 85 98 74 95 75 66 58 54 61 73 68 76 94 94 97 99 97 97 98 97 97 94 93 94 96 94 92 91 94 97 94 93 91 90
86 88 93 78 69 64 73 56 76 92 97 86 69 96 91 91 79 90 82 71 74 90 95 94 97 94 97 98 98 98 98 97 99 98 96 97 97 98 97 96 94 94 94 92
96 73 88 73 62 63 67 80 87 100 98 98 80 90 99 99 96 85 76 84 93 97 93 95 96 96 98 95 98 98 97 98 98 98 97 96 95 97 98 96 97 97 98 98
94 89 82 71 85 80 93 100 98 98 98 98 99 98 99 96 87 86 92 76 97 96 97 96 97 99 99 97 98 97 99 98 99 99 99 98 96 98 98 98 98 98 98 99
93 82 90 75 83 99 99 99 99 97 97 98 90 98 99 93 77 79 80 93 97 95 92 92 92 90 81 93 98 98 98 97 98 97 98 98 98 97 97 96 95 97 96 95
91 89 73 74 72 83 91 100 85 100 94 93 98 100 89 89 87 87 95 93 90 84 82 83 73 67 67 64 76 91 92 90 92 95 95 96 97 97 98 97 95 93 94 96
81 96 67 62 68 69 84 62 85 97 96 96 97 98 99 98 98 87 92 84 85 73 66 62 58 60 66 70 70 66 58 61 62 73 92 88 89 91 92 92 94 93 89 91
71 82 75 65 72 78 79 74 63 63 68 89 92 98 98 99 86 71 88 87 72 53 47 48 50 52 56 63 68 70 72 73 76 77 80 82 87 89 97 98 97 97 95 98
62 77 93 80 59 54 64 65 60 89 78 81 89 98 61 86 81 52 53 51 51 51 50 48 50 52 54 56 56 63 66 70 72 71 73 74 76 80 86 88 95 95 97 98
65 82 92 77 64 62 74 55 64 66 81 88 90 98 48 53 54 54 56 54 50 51 52 54 53 55 55 56 55 55 57 58 64 68 74 75 76 78 81 86 91 93 96 98
68 74 82 92 80 78 74 61 61 76 92 87 89 82 69 67 64 61 60 58 56 53 52 50 51 58 57 60 56 55 57 58 60 61 65 69 75 78 78 80 89 94 94 97
64 80 82 73 64 68 64 65 66 77 71 82 75 77 70 72 70 67 61 54 49 45 43 44 45 49 52 53 51 50 54 56 60 62 65 67 67 73 82 80 82 92 94 95
61 80 80 75 53 57 62 59 60 64 64 72 72 75 59 64 63 61 59 51 47 42 40 43 45 48 53 59 55 53 55 56 57 61 64 65 67 69 72 82 87 89 94 95
64 76 85 87 68 59 69 61 64 63 68 68 77 69 61 67 62 68 68 55 50 44 46 52 56 60 62 62 58 64 64 62 63 63 60 59 61 66 73 77 86 90 91 94
67 66 79 89 64 68 62 54 53 60 66 70 67 68 66 67 66 64 56 50 48 51 59 62 68 68 69 68 68 66 66 70 73 75 74 72 71 72 71 74 82 86 92 92
63 68 71 78 79 52 66 57 60 64 63 64 69 68 67 58 72 60 44 44 54 60 61 64 65 63 67 63 65 67 68 66 67 69 70 74 75 78 79 82 86 88 90 90
60 64 70 71 70 55 48 58 50 51 66 60 65 69 63 61 88 82 45 50 57 58 60 61 62 66 72 76 72 71 72 74 73 72 77 72 74 80 81 79 78 79 81 87
71 74 76 79 82 60 56 56 50 69 46 66 64 64 61 64 60 53 55 63 64 62 62 70 76 81 81 76 75 77 70 71 70 74 74 77 77 83 81 86 79 80 83 85
62 76 76 77 78 68 59 64 52 49 76 65 65 61 60 57 53 56 59 64 65 70 72 73 81 82 80 78 69 67 74 70 73 75 76 77 75 76 78 84 85 86 82 80
63 58 59 61 63 52 62 55 59 63 67 65 64 56 54 52 56 60 62 65 65 68 73 76 81 83 82 77 66 69 66 65 70 70 71 73 76 75 75 85 85 88 83 74
65 62 61 55 52 60 59 67 62 60 62 61 56 51 51 53 59 63 60 64 65 68 72 77 82 87 85 77 65 64 63 61 67 68 69 73 78 79 78 79 82 88 87 80
56 62 64 67 58 69 56 62 64 59 62 55 52 52 54 59 65 62 65 64 66 68 70 74 79 85 81 76 79 75 70 66 70 72 74 75 76 78 82 79 82 88 86 85
67 61 56 58 52 54 57 58 66 64 62 56 55 58 59 62 64 63 66 67 69 72 74 76 80 83 82 78 80 77 74 68 74 81 78 78 77 81 83 86 90 88 92 90

GFSCGP_sfc_rhum_114.txt.gz
RH
85 96 98 93 89 76 81 86 90 74 60 67 71 70 60 53 51 50 49 57 55 50 41 65 90 96 94 92 94 95 96 93 94 94 95 96 96 87 78 72 70 64 64 65
88 93 78 75 75 82 86 91 82 72 62 65 72 73 59 53 51 50 59 64 74 58 66 77 93 95 97 96 96 98 96 94 94 97 93 91 90 89 84 77 70 67 71 70
83 75 72 78 80 85 80 85 85 91 70 72 76 82 69 53 57 54 56 74 75 74 72 88 96 96 96 97 94 98 95 96 95 96 97 92 88 93 92 90 83 76 75 78
90 74 80 85 83 71 86 66 75 81 95 96 66 93 75 89 82 58 58 59 73 76 73 94 95 96 98 97 98 96 98 96 95 97 99 92 92 92 96 82 86 93 91 88
86 93 90 95 75 68 76 64 71 81 99 97 86 96 84 82 93 92 89 89 75 77 90 96 94 94 96 97 98 96 97 95 96 98 98 98 98 99 99 97 96 98 98 97
92 78 89 81 64 58 63 90 87 96 99 100 84 88 99 98 97 88 88 89 90 82 95 94 93 95 97 96 94 96 98 95 95 98 97 97 97 99 98 96 97 98 99 99
89 89 84 76 86 82 96 100 98 98 98 96 99 97 100 98 91 86 88 84 90 96 97 97 98 98 96 97 97 97 96 97 94 97 98 97 96 97 97 98 98 96 97 97
90 87 90 76 92 100 100 100 99 97 97 96 98 98 99 95 89 87 93 93 93 97 96 96 93 94 94 95 96 98 98 98 98 99 99 99 98 98 97 96 98 98 98 96
91 89 65 70 71 89 92 100 94 100 98 90 98 98 96 92 90 88 91 90 97 95 94 94 92 86 79 73 80 92 95 97 97 97 98 99 99 99 98 98 98 98 96 95
76 94 68 62 72 77 84 75 95 98 95 97 90 98 98 98 100 95 93 92 89 86 79 71 72 71 65 68 71 72 70 74 76 82 88 98 98 98 98 98 98 98 95 95
79 85 78 68 73 76 76 79 69 66 90 98 96 98 99 100 97 96 86 79 74 66 63 59 53 53 56 55 58 62 67 69 72 73 75 77 85 93 97 98 98 96 93 96
72 81 94 70 68 63 68 72 68 84 75 83 92 97 80 88 85 78 59 54 54 55 55 56 56 56 56 56 55 56 56 57 60 64 68 73 74 76 80 85 90 96 99 98
69 85 92 59 52 61 77 64 67 72 80 93 87 96 57 74 62 60 60 58 54 52 52 51 53 53 53 50 48 50 52 54 53 57 62 64 69 74 78 80 82 92 96 97
67 78 81 80 72 79 76 66 69 77 94 91 93 86 80 74 70 66 65 60 53 49 47 48 50 54 55 53 53 53 53 53 54 55 59 61 64 69 74 80 82 86 93 96
64 76 82 73 68 73 67 69 75 78 80 83 80 79 75 78 77 75 64 52 46 44 46 49 54 59 62 65 63 61 61 61 61 62 63 64 63 63 66 69 73 80 89 93
66 77 82 76 56 57 62 59 63 69 73 78 78 81 63 73 71 66 62 52 49 46 52 58 62 70 73 78 71 68 69 69 69 72 73 70 68 69 72 71 74 78 84 90
68 79 87 86 67 60 66 61 72 72 77 74 77 65 66 71 66 71 71 60 51 48 58 64 72 70 71 72 71 74 74 74 76 79 76 75 76 78 76 75 78 80 82 84
71 75 82 89 61 66 52 58 56 58 66 70 73 69 66 69 71 71 56 59 53 59 65 67 72 73 72 74 76 77 76 76 78 80 80 79 81 79 79 84 84 83 83 85
66 72 75 71 77 47 65 57 64 58 50 67 71 72 70 65 73 63 48 55 72 70 68 71 72 74 80 84 77 74 72 75 76 76 80 76 76 80 74 75 76 80 86 86
67 69 68 78 65 53 34 58 54 48 53 63 68 72 69 64 52 63 55 61 65 64 69 74 79 78 76 77 72 73 71 72 76 75 77 74 77 76 76 76 77 78 82 83
72 78 78 78 86 65 47 58 52 49 27 70 67 70 67 62 60 57 62 64 63 65 68 79 82 85 84 78 76 78 74 77 72 71 73 74 74 72 73 76 77 80 82 86
58 78 81 82 81 64 62 63 56 45 78 71 71 68 67 62 55 59 64 66 64 66 69 72 82 82 79 78 78 74 76 72 66 67 72 72 69 66 67 74 77 77 80 82
70 59 59 62 61 48 61 56 57 67 70 71 68 66 62 59 55 61 64 67 68 71 72 77 84 84 85 86 84 69 70 65 60 63 71 68 64 65 67 75 76 75 75 81
66 66 66 57 56 55 57 62 66 67 65 68 66 60 56 54 58 63 63 65 68 68 73 75 83 89 90 86 82 80 77 73 72 66 66 70 74 76 72 72 73 74 75 78
56 66 65 68 62 62 55 63 64 64 66 62 60 56 54 54 65 66 67 68 68 71 73 75 82 85 88 85 86 84 82 83 79 71 75 77 77 78 77 72 76 79 74 79
68 62 62 48 48 52 48 58 66 66 68 61 56 58 59 61 66 65 69 69 72 75 79 81 82 86 87 86 87 85 86 87 72 73 75 76 76 77 79 81 80 74 77 84

GFSCGP_sfc_rhum_117.txt.gz
RH
88 96 98 86 89 82 84 90 87 72 61 71 76 75 63 53 60 62 58 46 45 56 47 53 58 70 93 94 93 94 97 97 96 96 96 95 96 90 87 80 76 81 80 82
84 93 79 76 80 85 94 86 78 70 64 71 70 72 61 61 61 57 61 51 55 63 62 56 72 94 94 93 96 96 96 95 96 95 93 93 89 90 87 82 82 85 86 91
92 76 72 81 80 82 81 80 77 85 75 76 83 88 69 72 64 61 57 57 66 71 70 70 91 96 95 96 95 90 95 95 96 96 95 93 91 93 93 91 89 82 81 86
88 77 85 90 88 81 78 63 70 82 94 97 68 94 75 87 90 80 87 85 67 71 75 76 92 94 94 95 95 96 94 98 97 97 97 98 96 93 90 91 91 90 91 89
83 94 85 92 85 73 81 60 74 96 98 99 91 96 78 89 89 87 84 90 92 93 78 81 92 90 94 95 97 97 96 97 97 97 97 98 98 95 96 97 96 96 93 91
96 77 86 86 71 61 57 74 86 94 99 99 82 92 94 97 96 91 83 90 95 97 86 92 92 96 96 93 94 94 96 94 98 97 96 97 99 98 98 99 99 99 99 99
85 86 87 83 92 80 89 100 98 97 97 94 100 98 99 97 93 91 90 90 95 95 97 96 95 94 92 93 93 92 96 94 98 98 97 97 99 98 98 99 99 99 99 98
91 83 91 84 91 99 100 100 99 98 97 94 89 98 100 95 89 88 88 90 92 96 96 97 97 96 95 93 93 94 97 98 97 99 98 97 98 98 98 99 99 99 99 99
96 90 65 72 78 86 92 100 96 100 96 94 98 96 96 92 94 90 89 90 96 97 94 93 89 90 89 91 91 92 91 93 96 97 96 99 99 99 99 99 99 99 98 98
82 94 73 66 72 85 85 80 98 98 97 95 93 98 98 98 99 98 96 94 93 90 88 81 75 69 60 62 64 65 63 68 76 81 86 94 99 99 98 99 99 99 98 98
83 89 78 69 74 77 80 81 83 74 90 95 95 97 98 100 99 98 94 86 78 68 65 59 55 50 48 46 49 50 50 52 56 60 61 64 74 77 84 92 94 98 97 96
79 84 96 74 71 70 72 78 76 91 74 92 89 96 78 83 85 82 63 57 52 53 52 50 50 51 51 52 51 53 54 54 55 55 58 59 61 62 65 71 76 82 90 94
76 86 91 57 54 64 76 69 74 76 79 91 87 88 60 73 79 67 62 57 50 47 48 53 56 58 60 60 59 59 59 60 59 59 60 60 62 63 66 69 73 74 81 90
66 82 76 81 67 76 80 70 77 80 92 91 90 83 79 82 75 73 64 54 52 50 50 54 61 67 72 67 65 64 64 66 67 65 67 69 69 69 70 71 71 73 77 83
67 75 83 72 73 72 66 67 76 84 83 80 79 87 79 80 78 74 60 52 47 50 53 61 67 73 75 77 74 72 71 71 72 73 75 76 77 77 76 74 74 74 76 78
69 73 82 80 68 63 61 59 65 77 82 82 83 78 65 74 76 71 67 56 52 52 59 64 68 73 77 85 81 76 75 76 75 78 79 76 78 76 75 76 77 78 82 84
73 79 86 83 71 61 56 60 62 70 75 75 85 69 71 78 70 71 70 61 55 57 67 72 73 75 78 80 80 82 81 78 78 82 80 82 82 80 79 76 77 81 84 84
74 76 83 89 59 46 36 66 59 60 60 72 75 72 70 72 78 78 72 66 55 62 68 73 76 79 78 79 84 86 82 81 83 84 86 82 80 81 70 71 73 74 73 77
72 76 73 69 74 44 56 62 66 66 49 63 71 71 71 70 74 71 48 53 63 74 69 74 77 80 86 88 85 83 82 82 84 81 80 78 80 82 74 77 76 75 76 81
74 72 69 78 67 37 26 56 58 48 48 50 68 74 77 73 76 57 53 60 66 67 72 77 86 84 87 88 88 85 83 82 78 75 74 76 78 78 72 70 71 75 75 78
78 81 84 77 81 56 49 61 52 43 18 69 71 76 76 70 60 55 59 73 73 72 77 85 86 87 87 85 83 80 76 78 73 68 66 68 71 74 72 71 70 72 73 72
60 73 81 83 82 58 64 62 51 35 73 75 75 72 72 64 58 61 64 65 65 71 75 78 82 83 84 84 80 81 84 75 71 68 70 68 65 64 66 72 73 72 71 73
68 60 58 63 60 47 61 58 54 63 68 74 73 71 68 64 59 56 61 74 69 70 72 77 82 84 83 85 85 88 83 79 75 75 77 67 63 63 64 70 69 69 67 70
65 67 66 58 55 58 54 57 67 65 66 72 73 67 65 60 55 58 63 65 68 70 72 76 80 83 87 86 86 88 87 76 84 88 75 65 67 72 73 72 67 70 75 77
56 66 68 70 56 58 53 57 56 63 67 72 69 63 61 57 60 61 66 68 70 73 75 77 83 85 86 87 89 88 88 86 93 84 75 73 72 74 74 69 71 73 72 74
68 62 64 56 50 46 45 60 64 67 69 67 64 62 60 55 57 64 67 70 72 75 79 84 84 87 89 89 90 89 89 92 94 81 76 78 80 81 78 79 75 70 74 74

GFSCGP_sfc_rhum_123.txt.gz
RH
81 89 86 78 77 69 82 88 89 74 63 69 70 71 62 53 56 56 53 55 55 54 48 50 50 53 57 60 62 60 69 76 83 91 88 88 85 82 80 80 77 73 76 76
81 90 72 72 77 82 94 93 76 68 62 68 70 72 61 62 62 60 64 66 69 63 57 52 54 56 63 58 60 67 74 78 85 87 85 84 83 82 77 76 77 77 73 79
90 71 70 78 85 78 75 86 82 86 65 69 79 85 66 52 69 71 66 70 72 73 69 62 53 58 64 69 67 66 76 83 84 87 87 86 86 90 90 89 88 86 80 77
92 77 81 88 88 74 86 68 74 79 90 90 67 89 68 80 77 74 78 76 75 76 77 76 65 64 71 74 80 81 83 86 86 89 92 88 90 90 88 86 82 80 74 77
79 84 90 92 78 70 76 61 67 73 98 98 88 98 72 77 85 92 91 78 83 89 89 84 77 87 94 91 94 91 90 89 87 88 90 95 95 95 88 88 86 85 80 78
85 79 86 78 76 68 62 77 84 93 98 96 80 91 85 99 100 97 92 90 91 89 93 91 88 87 87 86 86 88 88 86 85 90 94 96 95 92 93 91 92 89 91 92
81 87 86 83 95 79 87 100 97 91 94 88 86 95 88 99 96 98 95 94 94 91 92 92 91 92 89 86 87 86 88 88 86 91 93 91 91 92 95 94 98 98 98 99
96 86 89 87 88 95 98 100 98 97 93 90 83 95 99 96 94 95 90 89 89 92 89 92 93 92 93 89 89 91 91 94 92 93 93 91 94 97 98 98 96 99 99 99
94 89 68 85 79 84 88 94 88 100 87 94 83 90 94 89 95 95 96 92 93 91 90 87 89 89 90 92 91 94 90 85 89 89 91 94 93 93 96 95 95 97 98 99
85 98 73 70 82 84 86 79 87 90 96 93 76 93 100 99 99 97 96 96 85 83 81 77 77 72 67 73 79 87 86 84 80 90 87 89 86 84 80 80 83 82 88 86
87 90 78 70 75 79 75 73 79 84 89 90 88 90 96 100 92 88 81 76 59 52 54 61 60 56 58 57 58 69 70 72 73 66 77 80 78 74 70 71 68 71 70 76
80 86 98 72 65 65 74 72 77 87 76 85 80 87 71 80 77 72 56 43 44 48 52 58 62 60 61 59 60 60 62 61 62 62 64 64 64 62 63 63 64 61 66 62
75 86 91 56 49 61 72 72 71 80 82 86 83 74 68 66 71 60 53 45 46 48 52 60 65 66 67 64 63 62 64 66 66 65 65 66 66 66 67 66 66 67 67 66
69 84 75 72 54 66 77 71 73 81 90 77 80 68 74 74 72 67 57 49 47 49 55 61 66 72 74 70 69 69 68 69 69 70 73 71 70 70 70 68 67 67 68 70
74 86 85 77 71 72 74 72 68 84 75 76 58 79 64 71 73 70 65 54 48 49 53 62 68 72 74 72 70 70 71 72 70 70 71 72 70 69 68 66 66 64 65 66
76 83 83 84 72 78 70 65 67 67 76 78 79 80 63 64 70 72 67 59 54 52 53 60 67 72 75 76 73 73 75 75 74 73 75 73 71 72 70 69 69 66 67 66
78 82 85 81 68 64 47 50 62 61 73 68 78 60 66 71 74 70 71 67 58 56 53 60 67 72 73 73 74 76 77 75 76 76 73 74 74 75 73 71 70 70 70 72
80 78 82 89 59 32 26 62 56 60 60 68 67 64 65 64 69 69 70 67 64 55 55 62 70 73 73 72 72 77 75 74 76 76 75 73 74 74 72 72 72 73 70 70
84 77 79 78 78 40 33 46 61 55 38 55 62 68 67 72 72 68 68 71 66 56 55 64 70 72 72 72 73 79 76 76 77 77 74 72 72 72 71 74 75 75 74 74
78 78 73 81 69 32 15 44 58 50 27 36 59 64 74 73 76 67 63 56 56 58 65 72 74 74 75 73 76 81 76 77 79 76 75 74 72 72 70 71 72 73 72 71
88 88 88 83 82 58 39 56 55 28 16 35 64 66 80 74 63 50 58 58 60 62 69 74 76 73 74 75 79 79 77 79 79 77 77 74 72 72 68 71 71 74 74 70
77 88 92 88 84 62 56 60 41 26 43 64 69 72 77 72 64 60 58 63 67 69 74 81 79 78 74 79 81 77 80 78 80 77 78 75 72 64 66 72 71 70 66 64
69 55 55 64 57 44 59 53 53 47 49 59 66 67 74 74 65 61 61 63 65 67 74 79 80 76 77 79 81 78 79 80 79 81 81 77 71 66 64 69 71 72 66 68
68 67 64 58 55 57 48 44 56 59 57 59 62 63 75 72 71 62 61 65 66 72 73 76 78 78 77 81 78 80 81 82 82 84 81 70 66 66 66 65 66 71 70 72
62 69 68 71 60 50 44 53 46 49 59 66 66 65 69 74 70 65 63 64 66 68 72 76 78 78 79 83 81 83 82 84 83 81 74 70 68 69 71 65 68 72 67 70
70 64 60 46 44 42 42 55 52 57 57 59 66 70 72 75 70 66 64 62 66 71 75 79 82 82 84 85 81 83 85 83 83 76 70 70 75 75 71 74 74 68 70 71

GFSCGP_sfc_rhum_126.txt.gz
RH
60 85 73 61 54 54 65 56 52 42 39 53 50 49 43 37 38 39 39 39 39 39 38 41 38 40 40 37 37 36 36 34 37 48 53 56 55 53 53 50 53 51 52 55
59 76 56 58 63 64 72 78 58 48 48 50 48 50 44 42 44 47 47 46 47 49 48 45 46 42 47 44 38 40 36 33 38 52 55 54 52 49 47 50 55 57 58 59
77 58 56 63 67 67 61 62 60 83 57 49 53 52 49 40 44 45 52 55 52 55 59 57 55 51 42 46 46 40 37 38 38 55 63 65 63 67 67 64 66 63 62 66
73 60 64 72 69 60 64 52 61 72 80 72 51 72 49 53 51 51 61 75 76 76 65 61 62 55 47 48 53 49 41 41 46 58 71 70 68 67 62 63 60 63 62 64
74 65 72 77 62 60 59 57 72 83 92 95 60 94 51 64 82 87 82 84 88 90 81 90 90 87 84 80 83 76 63 60 60 69 68 71 70 67 64 70 73 68 68 66
73 62 71 64 63 59 56 75 77 85 98 93 64 80 65 98 100 94 92 88 87 87 85 84 82 83 82 84 85 81 76 73 70 73 70 69 72 72 83 80 83 86 88 88
66 68 67 70 74 68 81 100 90 90 93 77 80 94 93 97 95 98 97 94 89 92 89 91 91 88 87 79 87 83 82 76 70 72 72 71 75 81 79 84 91 82 83 94
89 89 72 69 67 88 84 99 94 89 73 68 67 89 100 90 93 94 94 94 88 88 89 89 88 89 90 86 88 88 87 92 89 90 87 82 84 83 89 98 98 97 96 95
72 74 53 64 58 68 70 78 70 100 65 77 71 82 96 80 93 93 94 78 76 72 68 73 71 82 82 84 88 90 86 87 88 88 88 88 87 88 89 86 84 91 85 82
64 92 56 58 64 64 70 65 76 89 85 78 56 80 92 98 99 87 82 67 59 55 57 58 54 59 61 71 82 86 86 86 86 86 85 87 84 84 88 87 82 75 76 72
63 74 60 57 65 54 65 58 62 62 66 64 60 76 86 100 85 77 72 57 40 40 50 55 55 54 52 58 67 69 76 76 83 83 82 89 86 81 77 71 74 72 67 66
57 63 79 49 48 47 50 52 50 72 61 56 56 66 50 58 61 60 53 38 35 37 43 47 48 49 51 56 55 48 50 54 52 56 66 63 62 57 59 58 53 49 44 49
55 64 74 40 42 50 54 52 49 58 67 70 54 41 47 49 54 50 49 42 40 38 41 40 41 46 45 45 45 45 46 46 48 47 44 43 44 44 44 46 44 43 46 46
57 61 58 55 37 42 47 52 51 60 84 50 46 33 38 47 51 49 46 39 36 42 44 50 49 48 47 47 46 46 48 46 46 46 47 48 48 46 45 46 44 43 43 43
58 70 65 60 52 52 54 50 47 76 53 62 38 45 32 32 40 42 42 42 36 36 40 41 43 48 51 45 47 51 53 53 49 47 48 52 49 48 47 48 47 46 47 47
56 67 61 68 44 54 63 49 50 49 48 48 46 47 32 30 37 47 46 46 44 38 40 41 43 45 43 39 43 47 49 50 48 48 50 51 50 49 52 51 50 49 50 50
57 60 59 55 44 42 37 25 34 37 38 38 47 31 40 43 48 46 44 47 45 40 39 40 39 42 41 40 44 44 47 47 48 50 50 50 52 53 54 53 51 54 53 53
56 60 58 60 41 40 20 39 33 34 32 40 45 40 38 38 40 42 43 44 44 42 41 40 39 44 45 42 42 45 48 50 53 54 54 54 55 56 55 55 57 57 52 52
59 55 55 52 42 25 22 30 41 41 22 28 35 33 38 43 48 43 42 43 40 39 38 36 36 41 43 40 43 48 48 51 54 55 56 56 54 55 53 58 58 59 57 57
68 60 56 57 54 25 11 32 39 35 17 24 34 31 37 50 46 31 39 42 46 44 39 42 45 46 42 40 46 50 48 50 52 54 56 57 57 56 54 57 57 58 56 56
68 66 74 59 56 35 24 39 39 22 13 19 33 37 44 49 33 34 39 44 43 40 43 44 48 44 39 44 50 53 50 53 55 59 59 59 58 57 54 57 56 58 56 53
49 58 62 58 63 60 34 45 30 19 24 35 39 40 47 44 46 42 38 43 45 47 48 50 48 45 44 50 55 57 56 56 59 60 62 59 55 52 54 59 58 57 51 52
45 34 32 42 36 32 35 35 30 30 31 34 39 36 44 47 52 47 42 41 44 45 49 57 51 50 51 55 57 58 54 59 58 59 55 52 50 50 51 57 59 56 53 56
41 41 39 40 27 32 30 27 31 32 36 35 35 39 41 46 45 48 44 41 42 44 44 48 51 50 51 54 57 56 57 59 60 56 52 50 51 56 53 52 53 57 58 63
33 43 39 38 32 30 30 31 30 31 35 39 40 44 44 44 46 48 47 43 42 43 47 50 50 49 49 51 57 55 59 61 60 52 51 52 53 57 57 55 56 58 58 66
45 39 39 30 23 25 24 28 34 37 38 38 40 42 44 49 48 46 49 46 44 45 49 52 52 52 53 60 60 56 60 63 57 55 53 53 56 57 60 64 65 62 66 69

GFSCGP_sfc_rhum_132.txt.gz
RH
54 95 77 59 49 47 57 59 60 50 43 53 54 53 47 40 42 45 49 58 64 63 64 66 66 62 61 55 49 47 49 48 48 53 60 65 66 80 75 59 53 55 59 58
71 77 51 50 54 56 65 76 64 51 49 54 58 57 46 42 43 55 60 64 75 69 68 71 70 71 74 76 74 61 50 48 49 55 62 63 75 82 80 65 58 56 58 62
76 58 46 52 60 57 59 60 64 86 65 56 58 63 53 42 41 52 64 66 74 72 75 76 72 74 75 80 82 77 81 57 51 52 55 60 61 75 87 78 70 64 63 69
70 53 53 66 63 54 64 54 67 74 85 92 64 94 56 54 58 65 78 82 80 80 78 79 78 78 77 76 75 78 79 79 64 55 60 59 80 79 84 84 81 73 67 73
75 62 67 71 56 54 60 59 68 75 90 88 70 92 70 74 79 80 79 78 78 81 82 84 82 81 81 80 79 79 80 81 80 61 55 73 81 91 87 87 84 71 77 78
68 59 66 60 57 57 56 68 80 81 92 95 76 88 88 96 94 90 85 89 83 74 72 80 80 77 84 84 83 82 83 85 85 82 60 63 82 88 88 86 91 87 94 97
75 66 61 58 71 63 74 90 96 96 100 94 80 92 82 91 82 90 87 91 83 74 76 82 80 86 85 86 91 87 85 88 87 93 83 77 84 86 88 89 94 96 96 96
90 89 67 63 71 80 79 90 94 97 95 88 72 93 84 76 80 83 84 82 82 75 62 66 76 85 86 83 88 88 88 90 89 92 93 94 95 95 96 96 95 95 96 91
81 83 54 58 54 66 74 92 73 94 77 90 86 76 80 73 77 84 82 75 77 58 58 62 68 79 81 81 83 87 86 88 90 90 88 88 90 91 91 88 85 86 84 74
64 86 54 58 62 62 73 64 88 97 87 90 80 83 86 90 85 76 78 77 64 55 54 56 59 68 71 75 79 82 81 82 86 86 86 88 84 83 86 86 90 86 83 76
61 70 70 57 67 75 83 83 71 63 70 89 87 83 84 93 86 82 77 69 60 46 43 41 49 59 66 78 84 85 80 68 79 80 81 85 85 82 81 83 83 83 78 75
61 67 87 65 50 46 54 52 47 82 71 70 76 82 58 66 69 67 66 55 50 39 43 40 46 51 49 47 47 49 46 57 60 68 76 80 80 81 78 84 81 70 65 69
58 75 90 77 56 56 60 49 48 49 84 87 85 73 49 53 57 56 59 58 52 46 50 47 40 43 45 45 45 47 47 49 60 54 71 70 66 66 56 51 44 46 50 45
63 62 70 83 67 60 65 51 50 63 93 80 69 56 42 42 48 53 59 60 56 51 45 50 52 46 48 46 48 48 51 50 50 50 54 57 54 54 55 55 53 52 51 52
68 81 72 68 56 55 57 56 53 64 62 71 50 46 38 35 35 29 41 52 53 47 42 46 52 49 50 46 46 52 56 56 52 53 56 58 56 55 57 57 56 56 57 55
60 82 69 70 50 50 55 50 51 50 47 55 54 55 36 34 38 37 40 44 49 47 41 42 47 43 46 46 46 49 52 54 51 52 54 54 54 56 58 59 58 59 61 59
58 75 79 83 59 55 60 41 39 46 44 44 55 40 36 40 37 43 44 45 47 48 45 44 48 46 44 42 42 47 51 50 52 54 53 54 56 60 61 60 60 63 65 65
56 63 74 88 68 73 44 41 43 36 36 37 37 37 34 35 38 38 42 48 48 47 46 45 50 46 44 42 44 46 49 51 55 58 57 57 61 63 63 63 66 69 70 69
52 66 83 87 79 51 35 41 39 33 32 30 29 32 33 35 52 47 43 44 46 49 48 48 50 47 48 45 44 48 52 53 54 56 56 59 63 65 66 67 70 72 71 74
61 64 79 76 79 60 30 36 39 40 39 28 31 31 30 43 60 48 42 46 47 47 48 50 49 44 48 45 48 51 51 51 51 54 60 62 66 67 69 68 70 71 73 70
82 73 92 89 91 69 38 36 42 47 25 33 30 32 38 50 49 42 43 42 49 52 51 49 49 50 49 47 50 55 52 54 54 61 63 65 66 67 67 66 72 74 74 69
77 88 92 87 85 77 43 48 36 30 32 30 33 39 44 45 45 45 46 49 47 58 56 54 56 54 50 50 54 60 61 59 63 63 66 67 65 56 52 69 73 72 71 65
52 50 57 60 61 41 42 37 36 32 32 37 43 44 44 46 47 49 52 56 49 58 61 60 61 58 54 56 60 65 65 61 62 63 65 63 54 54 57 66 71 74 68 68
43 37 48 42 35 29 27 33 33 33 40 41 41 42 43 48 48 49 50 55 55 53 59 61 63 60 61 61 62 66 63 62 62 65 64 58 58 59 66 62 64 73 73 77
42 50 45 42 33 30 27 23 24 30 33 34 36 40 43 48 51 51 53 53 57 55 57 60 62 62 60 61 64 64 62 63 68 68 66 60 60 65 69 67 70 73 74 78
48 42 47 40 26 28 26 32 34 34 36 38 41 46 47 51 55 55 57 56 57 61 58 61 63 66 60 60 64 64 64 67 71 72 66 67 71 74 74 78 81 68 62 63